GFSGBSN_925_thetae_000.txt.gz
Theta_e
310 310 310 310 309 309 309 310 310 309 309 308 304 302 302 302 302 302 302 302 302 303 305 305 306 308 321 326 323 324 320 321 324 332 324 326 324 326 326 329 331 333 334 335 337 342 344
309 309 309 309 309 309 309 309 308 308 309 309 308 305 301 301 302 302 302 302 303 303 305 306 311 311 325 322 321 324 330 333 330 327 324 324 324 325 327 329 331 333 333 334 335 341 345
309 309 309 309 309 308 308 308 308 308 309 309 309 306 301 301 301 301 302 302 303 304 305 308 318 319 325 323 321 321 322 325 329 327 326 323 324 325 326 329 331 332 336 342 341 344 348
309 309 309 308 308 308 307 308 308 307 307 306 303 300 299 300 300 301 302 303 304 307 312 319 319 325 326 324 324 324 325 325 325 329 326 325 323 325 326 331 331 334 337 342 345 346 348
309 308 308 308 307 307 306 306 307 308 308 307 302 299 298 299 300 300 302 304 309 318 319 319 325 327 327 325 327 327 327 325 324 325 324 323 324 326 327 331 334 336 340 340 349 347 351
308 308 308 308 307 307 306 306 306 305 306 307 306 299 298 298 299 301 302 307 316 320 322 323 326 331 329 326 328 325 328 323 324 326 325 324 325 326 328 331 336 339 339 340 342 349 351
308 307 307 307 307 306 307 306 306 303 302 302 301 299 298 298 299 301 306 313 322 326 325 326 324 327 324 324 323 325 326 322 323 326 323 323 323 325 328 331 334 336 339 340 340 347 350
308 307 307 306 305 305 306 305 305 303 302 301 299 299 298 299 299 304 307 311 314 311 314 316 317 318 319 320 321 322 324 327 324 325 324 323 323 325 326 329 332 336 338 339 341 347 349
307 306 306 306 305 305 305 304 305 303 302 301 299 299 298 299 300 310 308 311 310 309 315 318 318 318 320 319 321 323 324 326 326 324 324 324 323 324 325 327 331 335 338 339 343 347 348
307 306 306 307 306 305 304 304 305 303 303 302 300 300 299 298 307 307 312 310 310 309 318 321 321 323 323 324 325 324 323 325 325 325 325 323 324 323 323 326 331 335 335 337 341 346 350
307 307 306 306 305 306 304 304 304 303 304 303 301 299 299 302 305 310 310 308 308 312 323 323 324 324 326 327 326 325 323 324 325 325 326 324 322 322 323 325 328 333 334 336 337 344 346
306 306 306 305 305 305 303 304 303 303 304 304 303 301 300 306 308 307 307 309 313 322 322 322 325 325 326 326 326 325 324 324 324 325 326 326 324 323 323 324 327 331 333 335 337 339 346
307 306 305 305 305 304 304 304 302 303 304 304 303 302 301 305 308 308 309 311 317 320 321 321 323 325 324 323 325 326 325 325 326 328 327 325 324 323 323 324 325 329 335 339 341 341 343
308 307 306 305 304 304 304 303 304 303 304 303 303 302 307 307 307 307 308 310 317 319 320 322 323 324 325 324 324 325 326 325 324 326 327 327 325 324 323 323 327 329 333 337 342 339 339
307 308 307 306 306 304 304 303 302 303 303 302 303 305 306 309 309 309 312 310 315 317 319 319 320 322 324 324 322 324 325 326 325 326 328 328 327 325 324 324 325 330 333 333 336 336 336
307 307 307 306 306 304 304 303 302 303 303 302 304 305 306 308 312 312 312 311 314 314 317 320 321 322 322 322 322 324 324 325 325 326 328 328 329 327 325 324 325 327 330 333 335 344 340
306 306 306 305 304 303 304 303 302 303 302 303 306 307 310 314 314 316 314 312 312 313 314 317 318 320 321 322 323 323 324 325 325 326 328 328 328 326 326 324 325 326 329 332 334 335 338
306 304 305 305 304 304 304 303 303 303 303 305 305 307 308 312 315 314 314 314 311 313 313 313 315 316 318 321 322 323 323 324 325 326 329 330 330 329 324 325 324 326 329 332 335 340 336
304 305 305 305 305 305 305 304 303 304 304 304 307 306 306 308 309 310 313 313 313 313 313 313 313 315 317 318 321 321 321 321 322 325 328 329 330 332 330 324 324 324 326 329 332 334 343
305 305 305 305 305 305 304 303 303 303 303 303 307 306 308 312 310 313 314 315 314 313 314 314 315 316 315 317 319 320 322 321 323 324 339 332 328 330 330 329 326 325 324 326 328 334 335
304 304 304 304 304 304 304 303 303 303 302 304 306 307 309 308 314 315 316 315 314 313 314 316 316 318 318 318 319 321 322 324 325 330 331 337 338 333 329 328 328 327 325 324 326 327 333
303 304 304 304 304 304 304 303 303 303 302 303 306 308 309 308 308 309 309 312 314 313 315 317 318 317 317 319 320 320 320 322 322 326 327 330 338 336 335 331 330 329 327 325 325 325 327
304 304 304 304 304 304 304 303 303 303 302 304 304 304 304 305 304 306 308 309 310 313 313 314 316 317 318 320 321 322 323 325 326 327 329 333 336 341 339 334 333 333 331 328 326 325 326
304 304 305 304 304 304 304 304 302 303 302 302 304 303 304 306 305 306 306 308 309 310 313 313 313 313 316 314 315 318 321 323 324 326 329 335 341 340 339 339 340 331 331 330 327 325 327
303 303 303 304 304 304 304 304 304 303 303 302 303 302 304 305 305 305 305 306 309 309 311 312 311 311 312 312 317 321 323 326 326 326 328 332 336 339 338 338 336 334 335 330 329 327 326
303 303 303 303 303 304 304 304 304 303 303 302 302 302 303 305 305 305 305 307 310 310 310 310 310 311 312 313 320 326 325 325 326 328 330 332 335 338 338 338 339 342 340 339 341 339 329
303 303 303 303 303 303 303 304 304 303 303 302 303 304 304 306 305 305 306 306 308 310 312 310 310 311 316 325 324 326 325 325 326 332 336 338 339 335 337 340 338 342 338 339 345 336 330
302 303 303 303 303 302 303 304 304 303 303 302 302 303 303 304 304 306 306 305 306 309 312 311 311 314 318 329 328 325 327 327 327 332 340 340 339 335 338 342 341 337 339 346 346 343 342
302 302 303 303 301 301 302 303 303 302 301 302 303 304 304 304 304 304 304 304 305 305 307 308 310 310 311 322 328 331 337 334 331 331 336 337 334 335 337 335 338 335 338 338 340 342 342

GFSGBSN_925_thetae_003.txt.gz
Theta_e
310 311 310 310 310 309 309 309 309 309 309 311 309 304 301 300 301 301 301 301 302 304 305 305 306 307 319 327 326 328 322 320 328 328 332 329 330 330 334 333 335 336 339 338 338 341 342
310 310 310 310 310 309 308 309 309 308 309 308 307 301 299 299 300 300 301 301 302 303 305 305 306 309 325 326 323 326 325 329 328 328 327 327 329 329 330 332 335 336 337 337 337 339 342
310 309 309 309 308 307 307 307 308 308 308 307 304 300 299 298 299 300 301 301 302 303 305 306 308 319 325 326 323 323 327 326 327 327 328 325 326 327 328 330 333 335 335 338 338 339 342
309 309 308 309 309 307 308 307 307 307 306 304 301 300 299 298 298 299 300 302 303 305 310 313 318 323 326 325 326 324 323 324 325 326 326 326 324 327 328 331 333 334 336 339 341 339 340
309 308 309 308 308 307 307 307 307 305 303 302 301 300 299 299 299 299 300 302 306 313 318 319 326 329 327 326 327 325 326 327 326 325 327 326 327 326 327 329 333 336 337 339 342 340 344
309 309 308 308 308 307 306 307 305 305 303 302 302 299 299 299 300 300 302 309 314 321 323 324 327 331 327 329 327 327 327 326 325 327 326 325 326 326 327 331 335 338 338 340 346 341 345
308 307 308 308 308 305 306 305 305 305 304 303 302 300 299 299 300 300 306 316 325 330 328 328 329 327 327 326 328 326 327 325 325 327 326 325 325 326 329 332 334 337 339 339 340 340 344
309 308 307 307 307 306 306 305 304 304 304 303 303 302 299 299 300 304 310 316 317 314 316 319 322 323 323 323 324 326 326 326 324 327 326 325 325 327 329 331 333 335 338 340 340 340 342
307 307 307 307 307 306 306 306 304 304 303 304 304 304 302 300 301 312 310 313 313 313 317 319 322 322 322 322 322 323 324 326 325 325 327 325 325 326 329 332 333 335 337 339 340 346 346
307 307 306 306 306 306 306 304 304 303 303 304 305 304 303 300 308 309 314 313 312 312 319 322 322 322 323 324 322 324 326 324 327 326 325 326 326 326 327 330 332 334 335 337 339 344 349
307 307 307 306 305 305 304 304 304 304 303 303 304 304 303 302 306 311 312 311 311 314 323 325 325 325 327 327 329 327 326 325 326 326 326 325 325 326 326 328 331 332 334 337 338 343 350
307 307 308 307 306 305 304 304 304 303 303 304 304 304 303 307 309 311 310 310 313 319 324 325 326 326 328 327 326 328 326 326 326 326 326 326 327 325 326 327 329 331 333 336 337 340 344
307 307 308 308 307 306 305 304 304 303 302 304 304 303 303 306 310 311 310 313 317 321 324 325 325 326 326 326 327 327 326 326 326 326 328 327 326 327 326 326 328 330 333 337 339 340 341
307 307 307 308 307 306 305 304 304 303 303 303 303 304 307 309 310 309 309 313 318 322 322 325 324 326 326 326 326 327 327 326 326 327 327 328 328 327 326 326 327 330 332 335 341 341 340
307 308 307 307 307 305 304 304 304 303 303 303 304 307 308 310 310 310 312 313 317 320 323 323 324 325 326 326 326 325 327 328 327 326 328 329 329 327 327 326 326 328 332 333 336 338 339
307 307 307 305 305 306 304 304 304 304 304 303 306 309 310 310 312 313 314 314 317 318 320 320 322 324 326 326 326 325 327 327 328 327 327 328 330 328 326 326 325 326 329 333 337 343 342
306 305 304 305 306 305 305 305 305 304 304 304 308 310 312 311 314 316 315 315 315 316 317 318 320 323 323 324 325 326 326 326 326 327 328 327 329 330 329 327 326 325 327 331 334 336 338
305 305 305 305 306 305 305 305 305 304 304 306 308 312 311 312 317 316 318 317 315 317 317 316 316 319 322 323 324 325 326 326 327 327 328 328 329 332 330 329 327 326 327 328 336 341 336
304 304 304 305 304 305 305 304 305 303 304 305 309 311 309 309 310 312 313 315 316 317 317 317 316 316 318 320 322 324 325 325 326 327 329 329 330 332 333 330 328 327 327 327 329 335 343
304 304 305 305 304 305 305 304 305 304 304 304 309 311 311 311 311 311 311 313 314 315 315 316 316 317 316 317 320 321 323 324 325 324 332 331 331 332 334 333 328 327 326 326 328 332 334
304 304 304 304 304 305 305 304 304 304 304 303 308 309 310 312 312 312 313 316 315 317 316 316 316 316 317 318 317 319 321 324 324 327 327 330 333 332 331 331 331 328 325 325 326 328 332
304 304 305 305 305 305 305 304 304 303 304 303 309 309 309 309 310 309 309 311 310 311 313 314 315 316 317 318 320 319 320 323 325 325 328 330 336 334 332 330 329 329 329 326 326 326 327
303 304 304 304 305 305 305 304 304 303 303 304 305 306 308 307 308 308 308 309 310 309 309 312 315 316 319 319 319 320 322 323 324 327 330 333 336 340 340 335 334 333 330 329 329 328 327
303 303 304 304 304 304 305 304 304 303 303 304 303 304 308 308 307 308 308 306 308 309 312 312 312 315 317 314 316 319 320 323 324 326 325 330 334 334 337 338 340 334 335 333 331 330 329
303 303 303 304 304 304 305 304 304 304 303 304 304 302 304 308 306 307 308 308 307 308 309 308 309 311 311 313 317 321 321 321 322 322 327 330 333 335 338 340 342 338 341 341 343 339 332
303 303 303 303 304 304 304 305 305 304 303 304 305 304 303 306 307 307 308 308 309 309 310 310 309 311 311 314 316 320 321 320 322 321 322 327 332 337 340 340 341 335 341 340 339 340 333
303 303 303 303 303 304 304 304 304 304 303 304 304 303 303 305 305 306 308 308 309 309 313 313 313 312 311 314 316 317 318 318 321 323 324 325 329 332 335 338 336 342 340 340 341 341 347
303 302 303 303 303 303 302 304 304 303 303 303 305 305 304 306 305 306 307 308 306 309 310 313 314 314 316 320 322 319 319 321 323 325 328 326 332 332 334 335 337 340 339 341 346 344 345
303 302 302 302 303 301 302 303 303 303 302 302 304 303 303 305 306 305 306 305 306 307 308 309 311 311 314 321 324 324 331 332 327 329 326 331 330 332 332 335 343 340 342 341 341 343 344

GFSGBSN_925_thetae_006.txt.gz
Theta_e
311 310 310 310 310 309 309 309 309 309 308 308 308 303 300 300 299 300 300 300 301 302 304 305 306 306 315 324 328 325 321 321 324 327 327 330 331 334 334 336 337 335 341 341 339 340 341
310 310 310 310 310 309 309 309 309 308 307 306 304 301 300 300 300 300 300 300 301 302 304 305 306 307 323 321 324 325 326 328 327 325 327 331 330 332 333 334 335 335 336 338 337 338 340
310 310 310 310 308 307 306 308 308 307 305 303 303 303 300 299 299 300 300 301 302 303 304 305 308 317 321 320 325 325 325 328 326 328 326 328 329 330 332 332 333 334 336 336 336 337 340
310 310 310 310 309 306 306 306 306 305 305 303 302 301 300 299 299 299 300 302 303 304 306 312 315 324 322 320 324 325 325 326 326 328 327 327 327 328 330 330 331 332 334 337 337 338 339
309 309 308 309 309 308 306 306 306 305 305 304 304 303 300 299 300 300 301 303 305 309 315 319 324 327 326 325 326 327 326 325 325 325 327 327 327 326 327 329 330 332 335 336 337 339 339
310 309 308 308 307 307 307 307 307 305 304 304 304 304 303 300 300 300 302 306 312 314 324 324 325 330 330 328 328 326 325 325 327 327 326 328 327 328 326 329 331 333 335 337 338 341 339
308 307 308 307 307 307 307 306 306 305 304 303 303 304 304 302 300 300 304 316 324 328 327 330 330 325 326 328 326 328 328 328 327 326 327 328 327 328 330 329 331 332 337 337 338 343 340
307 307 307 306 306 306 306 305 305 304 304 304 303 304 304 302 301 302 307 319 317 316 316 318 322 327 328 328 328 329 327 328 326 326 327 326 326 326 329 331 331 333 335 338 339 342 343
307 307 307 307 306 306 305 305 304 304 304 303 304 304 304 302 302 312 315 312 315 315 316 318 319 320 324 328 327 326 327 328 325 325 328 326 326 326 328 330 332 333 334 337 338 341 341
307 307 308 308 308 307 306 306 305 304 304 303 302 303 304 303 311 309 312 315 313 314 316 320 323 322 322 323 323 324 325 327 327 326 325 327 327 326 326 329 332 333 333 335 336 342 345
308 307 307 308 309 308 306 306 306 305 304 303 303 303 304 302 306 311 313 313 312 314 322 327 325 325 324 323 325 324 324 324 324 325 327 325 327 326 325 327 330 333 334 334 335 338 346
308 308 307 307 307 308 307 306 305 304 304 303 303 303 303 306 308 311 312 312 313 318 322 326 326 325 324 324 327 328 324 325 326 324 327 327 327 327 326 327 328 331 333 333 334 337 342
307 307 308 308 307 308 307 305 304 304 304 304 303 304 304 306 309 310 311 313 316 320 325 326 327 327 328 327 325 328 327 327 326 325 327 327 327 327 327 326 327 328 331 337 337 339 341
306 306 307 308 307 306 305 306 305 304 304 304 304 304 308 309 311 312 311 313 318 322 322 327 327 327 327 329 328 327 328 328 326 326 327 328 328 327 327 326 327 327 329 336 340 340 339
306 306 306 306 305 305 306 306 305 305 305 303 304 308 309 310 312 312 314 312 318 321 324 325 326 326 327 327 327 327 328 328 326 326 329 327 328 329 327 328 326 327 328 330 333 335 338
305 305 305 305 305 306 306 306 306 305 305 303 305 308 313 313 312 312 314 315 316 318 321 323 324 325 326 328 327 328 328 329 328 327 327 328 329 329 329 328 327 327 328 328 331 339 342
304 304 303 304 304 305 305 305 305 305 304 303 307 312 311 312 313 316 316 315 316 316 317 317 319 321 324 326 328 328 327 328 328 329 328 327 329 329 330 329 328 326 327 328 330 334 339
304 304 304 304 304 304 304 304 305 305 304 306 308 311 312 314 316 317 318 317 315 317 318 319 319 319 320 321 326 327 328 328 328 328 328 329 328 331 329 330 328 328 328 327 329 338 335
304 304 304 304 304 304 304 304 304 304 304 306 308 309 308 309 313 313 314 315 317 318 319 320 319 319 319 319 323 323 326 327 328 327 328 329 330 333 329 330 331 329 327 327 326 329 337
304 304 304 304 304 305 304 304 304 304 304 305 308 309 310 311 311 312 312 313 313 314 316 317 319 320 320 320 320 321 322 324 326 327 336 329 329 334 333 333 331 332 329 328 328 328 331
304 304 304 305 305 305 305 304 304 304 304 304 307 309 309 311 312 312 314 315 315 316 315 317 318 318 319 320 319 319 319 320 324 328 329 328 333 332 330 329 331 331 329 328 329 330 332
303 304 304 304 304 305 305 304 304 304 303 305 307 308 310 310 309 309 308 311 311 314 314 313 316 316 317 319 320 321 320 323 324 325 326 326 333 332 333 331 331 332 331 329 328 329 330
303 303 304 304 304 304 305 304 304 304 303 305 304 305 308 308 308 308 307 307 310 310 311 312 311 313 316 317 317 317 317 319 322 325 330 330 329 337 336 332 332 333 333 331 330 327 328
303 303 304 304 304 304 305 305 305 304 304 304 305 305 305 310 308 308 308 307 308 311 310 311 312 314 314 313 314 317 317 320 321 323 326 334 333 334 338 338 338 332 331 330 330 330 329
303 303 304 304 304 304 304 305 305 304 304 304 305 305 304 307 307 307 308 307 309 311 312 309 310 311 311 311 316 317 319 322 323 324 326 329 336 336 340 341 337 335 334 335 334 335 334
302 303 304 304 304 304 304 305 305 305 304 304 305 305 304 306 306 306 309 308 308 310 311 311 312 312 311 312 316 320 323 324 324 325 325 327 337 335 339 338 343 341 340 339 339 341 344
303 303 304 304 304 304 305 305 305 305 304 304 305 305 304 302 305 306 308 308 309 310 312 312 314 314 313 310 315 319 321 321 324 326 325 328 332 334 337 336 335 340 339 338 343 343 345
302 302 303 303 303 304 304 304 303 304 304 304 305 306 304 305 305 306 307 308 307 309 311 311 310 315 314 311 312 315 319 320 321 325 328 327 326 331 338 343 344 339 340 343 345 343 342
302 302 303 303 303 304 303 304 303 303 303 303 305 305 306 306 305 304 306 307 306 307 309 309 310 311 316 317 320 322 322 326 326 326 323 325 326 328 331 334 336 342 346 343 341 342 345

GFSGBSN_925_thetae_009.txt.gz
Theta_e
312 311 311 311 308 306 307 308 309 306 306 306 303 301 300 300 300 300 300 300 300 301 302 303 303 304 310 323 323 320 322 320 321 323 327 325 323 325 329 332 333 336 338 340 341 342 339
311 311 311 311 310 308 306 306 306 305 305 304 304 303 301 300 300 300 300 300 300 301 302 303 304 308 321 319 316 321 323 321 325 326 325 325 325 327 330 332 332 333 335 339 339 336 341
311 310 310 310 309 309 307 307 308 307 305 304 303 303 303 302 301 300 300 301 302 302 303 304 308 318 322 317 319 326 324 327 327 326 322 325 327 328 328 330 331 331 331 332 334 335 338
310 310 309 308 308 307 307 307 307 307 306 304 304 303 302 301 301 300 300 301 302 304 305 309 317 322 323 316 318 319 322 323 327 326 327 324 326 326 325 327 329 329 327 329 332 334 335
308 308 308 307 307 307 307 307 306 305 304 304 304 303 303 302 301 301 301 302 304 309 311 318 321 325 327 324 322 320 322 325 326 326 327 327 325 324 324 324 325 325 327 328 331 334 338
308 307 307 307 307 306 307 306 306 304 304 304 304 303 303 303 302 302 302 304 313 314 323 323 324 328 328 327 326 325 324 326 323 323 324 324 324 323 323 321 325 326 328 328 331 336 338
308 308 307 307 308 307 306 305 306 305 304 304 304 303 302 302 302 303 304 308 318 320 325 329 326 325 322 324 326 326 326 324 323 322 323 322 324 324 323 322 324 327 328 330 332 337 339
309 308 308 308 308 309 308 307 306 306 305 304 304 303 303 303 303 305 310 314 317 312 314 315 316 322 325 327 328 326 326 324 324 325 323 322 325 325 326 326 325 326 328 329 331 338 338
309 309 308 308 308 308 309 308 307 305 304 304 304 304 303 303 305 313 307 310 313 314 312 313 315 316 317 322 328 328 325 326 325 324 324 323 326 327 326 326 328 327 328 329 331 337 340
307 308 308 308 308 308 308 308 307 305 304 304 304 304 303 303 310 306 310 313 313 312 311 316 317 318 317 318 322 326 327 326 326 324 323 324 325 325 325 324 326 328 329 330 331 333 339
308 307 307 307 308 308 307 307 306 305 305 304 304 304 304 303 306 309 311 311 312 313 318 323 322 321 318 317 322 325 327 325 325 327 322 322 326 326 325 323 324 329 330 330 331 332 340
308 307 306 306 308 307 306 305 305 306 305 305 305 304 303 305 306 307 308 310 312 315 319 322 323 321 319 318 320 322 325 323 323 325 324 325 324 323 325 325 324 325 329 330 330 331 333
307 306 305 306 306 305 305 305 306 305 306 305 304 304 303 306 307 308 309 312 313 316 322 325 323 323 321 320 320 320 321 321 320 320 321 321 323 325 324 324 323 323 323 328 330 332 332
306 305 304 305 305 305 305 306 306 305 305 304 304 303 305 308 310 310 311 312 315 320 319 322 322 324 323 323 321 321 322 321 320 320 321 322 322 324 325 323 323 322 323 326 330 333 332
305 304 304 303 303 304 304 304 304 305 304 304 303 305 306 307 309 311 313 316 315 317 319 321 318 323 325 326 326 323 324 322 321 321 323 322 323 326 326 325 324 323 322 323 323 328 331
304 304 304 304 304 304 304 304 304 304 304 304 305 306 309 309 313 312 314 315 314 315 315 315 316 318 318 320 324 327 324 326 326 325 324 323 326 325 327 325 324 323 324 323 323 325 330
305 304 304 304 304 304 304 304 304 304 303 304 306 309 308 309 311 313 315 314 314 314 315 316 317 317 318 318 318 319 325 327 326 327 324 323 323 324 326 325 324 324 322 321 321 324 327
303 303 303 304 304 304 304 304 304 304 304 305 306 308 307 307 309 313 314 315 314 316 317 317 317 317 318 318 319 318 319 321 327 327 326 324 323 324 324 325 326 324 323 320 323 323 326
303 303 303 303 303 304 304 304 305 304 304 305 306 306 306 308 309 312 313 314 314 314 314 315 317 318 319 319 320 320 320 320 321 322 326 326 325 325 326 325 325 325 324 322 322 321 324
303 303 304 304 303 304 304 304 304 304 304 304 306 307 307 308 309 310 312 312 314 313 314 314 315 317 318 319 318 320 320 321 320 320 337 330 324 326 327 327 325 328 326 325 322 322 322
304 304 304 304 304 304 304 303 304 304 304 304 307 307 306 308 310 308 310 311 311 311 311 311 314 315 315 319 318 320 320 319 320 323 323 321 326 325 326 328 327 326 328 326 325 323 323
303 303 304 304 304 304 304 304 303 303 304 304 306 307 306 305 306 307 308 308 308 308 310 310 312 314 313 317 317 319 317 317 318 318 317 318 326 329 330 329 327 327 328 329 325 325 325
303 303 304 304 304 305 304 304 304 303 304 304 304 305 305 306 305 306 308 308 309 309 309 310 311 311 313 313 313 314 313 313 315 318 318 319 324 331 328 330 330 329 327 328 329 326 326
303 303 304 304 305 304 305 304 304 304 304 304 305 305 306 305 305 306 305 306 307 308 309 309 310 312 311 313 312 312 314 315 317 318 317 320 320 327 327 332 335 331 330 330 330 332 327
303 304 304 304 305 304 305 305 305 304 304 304 305 305 305 306 305 306 305 306 307 308 308 309 310 311 311 312 314 316 317 318 318 319 319 320 321 328 328 330 331 333 331 332 330 329 335
303 303 303 304 304 304 304 305 305 305 304 304 304 305 304 304 305 305 307 306 307 308 309 309 310 311 312 312 317 317 321 322 321 323 320 320 326 329 327 331 333 331 337 338 338 342 346
303 303 303 304 304 304 304 305 305 305 304 305 305 304 303 302 303 304 306 308 308 309 309 308 310 310 312 312 316 318 317 318 321 325 327 326 329 330 333 329 334 340 339 337 341 348 344
301 302 302 302 303 304 304 304 305 305 304 304 305 304 305 304 304 304 305 306 307 308 310 310 310 310 311 317 311 316 316 316 321 322 323 326 330 329 335 338 338 341 339 343 347 345 349
301 301 302 302 302 303 304 305 305 305 304 304 304 304 305 306 305 304 305 305 305 306 308 308 310 308 308 316 319 320 316 323 324 327 322 326 329 331 327 334 340 340 339 342 342 348 349

GFSGBSN_925_thetae_012.txt.gz
Theta_e
311 311 311 310 310 309 308 309 308 307 307 307 305 304 303 302 301 301 301 301 301 301 301 302 302 304 311 320 319 317 320 322 322 321 329 326 322 320 323 324 329 331 332 335 340 341 338
310 310 310 310 309 307 308 309 309 307 305 305 305 305 304 304 303 302 302 302 301 301 302 302 305 310 317 311 314 316 317 319 321 328 329 324 323 321 322 326 328 331 331 331 338 339 339
308 308 308 308 307 307 307 306 307 305 305 305 304 304 304 304 303 303 303 303 303 303 303 305 309 316 320 311 316 323 325 322 322 324 322 324 324 323 324 326 328 330 329 328 328 336 339
308 308 308 308 307 307 307 306 306 306 305 305 305 305 303 303 303 303 303 304 304 304 307 308 314 320 319 313 316 315 316 318 323 326 326 324 324 322 325 325 325 325 325 326 327 330 339
309 309 309 309 309 309 309 307 306 306 305 305 304 304 304 303 303 303 303 305 306 312 312 316 319 322 322 322 323 320 316 319 324 322 325 325 321 321 323 323 321 321 324 325 325 328 341
310 310 310 309 308 308 309 309 308 307 306 305 304 304 304 304 303 304 304 307 315 318 322 321 323 321 319 322 327 323 321 319 321 322 322 325 321 321 319 319 322 323 324 324 325 327 337
310 310 310 309 309 308 308 308 309 307 306 305 304 304 304 304 304 304 308 311 311 312 322 324 322 323 321 322 325 324 323 320 322 320 321 320 320 324 321 320 321 322 323 324 326 327 339
308 308 308 308 309 309 309 308 308 307 305 305 305 305 305 304 304 308 308 311 314 312 309 312 314 318 320 321 324 326 324 322 321 321 319 320 321 320 322 321 322 322 323 324 325 327 337
308 308 308 307 307 308 308 307 305 305 305 305 305 305 305 304 304 310 305 308 310 310 307 310 313 314 314 316 320 323 322 321 321 320 321 320 321 322 324 324 323 322 322 323 325 327 336
308 308 307 306 307 307 306 305 305 305 305 305 305 305 304 303 305 305 308 309 310 310 308 311 312 313 314 315 317 320 325 322 323 322 322 321 321 323 323 325 323 322 324 324 326 327 329
306 307 305 304 306 306 305 305 305 305 305 305 304 304 304 303 305 307 307 308 309 309 318 320 317 316 313 315 318 319 322 323 324 323 321 322 322 322 325 325 324 323 324 326 327 327 328
307 307 305 304 305 303 304 304 304 304 304 304 304 304 303 304 304 306 307 309 310 311 316 318 319 316 314 315 317 321 323 323 322 323 323 321 321 323 324 324 324 323 322 324 326 326 329
306 305 304 304 303 303 303 304 304 304 304 304 303 303 303 304 306 306 309 308 308 313 316 322 318 316 315 315 316 318 325 325 325 320 324 324 324 322 321 321 321 320 318 321 325 327 329
305 304 304 304 304 304 304 304 303 303 303 303 303 303 303 305 304 306 310 307 312 315 314 315 314 316 317 316 316 317 317 326 323 317 317 322 323 320 321 322 320 318 319 321 323 326 327
304 304 304 304 304 304 304 304 304 303 303 303 303 304 305 306 307 306 307 312 310 312 314 314 314 315 315 317 315 316 316 317 322 320 317 316 319 320 321 321 322 322 317 319 318 323 325
304 304 304 303 303 303 304 304 304 304 303 303 305 305 305 306 308 309 308 312 311 312 313 314 314 314 316 316 316 316 315 318 319 320 319 317 319 319 321 320 321 320 319 320 315 321 323
304 304 303 303 303 303 303 303 304 304 303 303 305 302 305 306 304 307 311 310 312 311 313 314 315 316 316 316 316 317 317 317 318 319 319 318 318 321 320 320 322 322 320 317 317 318 322
304 303 303 303 303 303 303 303 303 304 304 303 303 303 304 304 302 304 311 310 311 312 312 313 314 315 316 316 317 317 318 317 319 319 318 318 318 320 322 320 322 323 322 317 321 319 319
303 303 303 303 303 303 303 303 303 304 304 304 302 301 305 305 304 306 308 310 311 312 310 312 312 313 314 316 317 317 317 319 317 318 322 321 322 323 320 319 319 321 322 321 314 315 320
304 304 304 303 303 303 304 303 303 303 304 303 301 304 299 301 305 305 307 310 310 310 310 310 310 313 313 313 314 316 318 318 316 318 321 315 318 319 324 323 321 321 323 321 320 322 321
304 304 304 304 304 304 304 304 303 303 304 303 300 302 302 303 305 305 305 306 309 310 308 308 310 310 313 313 315 317 316 316 314 318 314 314 316 319 321 323 323 324 323 323 321 321 321
303 304 304 304 304 304 304 304 303 303 304 303 304 305 303 302 301 302 304 306 309 309 308 308 309 310 309 313 313 315 313 314 313 313 312 312 316 318 323 324 324 325 325 325 324 323 322
304 304 304 304 304 304 305 304 304 304 304 303 304 304 304 304 302 302 303 305 305 306 308 308 308 309 310 311 310 311 311 312 312 313 313 314 314 317 321 323 325 326 326 325 324 323 323
303 303 304 304 305 305 305 304 304 304 304 304 304 304 306 305 303 303 304 304 305 307 308 306 306 308 309 308 309 309 309 310 312 313 313 315 316 315 321 322 328 327 326 325 324 326 324
303 304 304 304 304 304 304 305 305 304 304 304 304 305 305 305 304 304 305 305 305 304 304 307 307 307 307 308 309 311 313 314 315 314 315 316 317 319 323 325 324 330 329 326 324 326 335
302 303 303 304 304 304 305 305 305 304 304 304 304 304 304 304 304 304 304 304 303 303 306 307 305 305 307 310 312 312 315 319 321 320 318 320 317 319 323 327 330 326 333 333 330 348 343
301 301 301 303 303 304 305 305 305 305 304 304 304 303 304 303 303 302 303 303 303 304 305 305 308 307 308 311 313 314 315 315 320 321 323 326 326 323 326 331 327 338 337 334 336 335 341
301 301 301 301 303 304 305 305 305 305 304 304 303 303 304 303 303 302 302 304 303 303 306 305 307 307 306 312 314 313 313 313 316 318 325 328 331 334 329 337 342 326 336 334 335 348 349
301 301 301 301 302 304 304 304 304 304 304 304 304 303 303 304 305 304 304 304 304 304 302 303 308 307 308 311 312 314 314 316 317 323 324 329 327 330 327 334 326 325 338 343 341 343 344

GFSGBSN_925_thetae_015.txt.gz
Theta_e
308 309 310 310 308 307 307 307 308 307 306 306 305 304 305 304 304 305 305 303 303 303 303 302 305 303 312 318 314 317 318 321 317 323 327 323 321 321 320 321 325 337 336 332 333 336 348
309 310 311 310 310 309 309 309 309 307 306 305 305 304 304 304 304 304 304 303 304 304 304 304 309 309 314 306 314 315 314 320 321 327 327 323 321 319 320 321 324 327 328 329 329 328 348
310 310 310 310 310 309 309 310 310 308 307 306 305 305 304 304 304 304 304 304 305 306 305 308 312 313 319 308 315 323 320 317 323 322 323 325 323 320 319 322 325 327 329 325 326 327 344
311 311 311 310 309 309 308 309 310 309 307 306 305 305 305 305 305 305 304 305 306 307 311 312 314 317 312 310 313 313 316 314 323 324 323 322 324 320 323 323 324 324 323 326 326 327 330
310 310 310 310 310 309 309 309 308 308 306 305 305 305 305 305 304 304 304 306 309 315 313 313 317 318 315 318 322 315 314 316 316 318 325 325 321 320 322 323 321 319 326 325 325 325 338
309 309 309 309 308 309 309 309 307 306 305 305 305 305 305 305 304 304 307 311 315 321 320 320 323 319 316 318 327 324 321 316 318 318 321 322 318 317 316 318 324 323 323 323 324 326 337
309 309 309 307 307 307 308 307 306 305 305 305 305 305 304 304 304 305 305 311 309 310 318 318 321 319 317 319 322 322 318 316 318 320 321 320 322 320 319 318 321 322 323 323 323 327 336
309 308 308 306 306 307 307 307 305 305 305 305 304 304 304 303 303 309 305 306 309 308 308 309 310 313 316 318 318 318 319 316 318 319 318 318 321 321 321 320 320 321 321 322 321 323 327
306 307 307 305 305 306 305 305 304 304 304 304 304 303 303 303 303 307 305 308 307 307 305 308 310 311 312 314 316 317 318 318 319 319 318 320 319 319 322 322 321 320 320 322 322 323 328
307 307 306 305 305 304 303 303 303 303 303 303 303 303 302 302 304 303 306 306 307 308 307 311 310 311 312 315 316 317 322 319 320 321 319 318 319 321 321 322 321 320 320 322 322 324 324
306 305 305 305 305 304 304 303 303 303 303 303 302 302 303 302 304 304 305 306 309 305 319 320 313 313 311 314 316 316 322 322 321 320 319 320 320 320 321 322 320 323 323 323 325 324 325
305 305 306 305 305 304 304 304 304 303 303 302 302 302 302 304 304 304 305 305 307 309 315 317 316 313 313 313 315 318 319 322 321 322 320 321 320 321 320 321 321 323 322 320 322 321 324
305 305 305 304 304 304 303 304 304 303 303 302 302 302 302 304 304 304 304 305 308 310 314 317 314 313 314 313 314 319 321 322 322 323 323 321 323 319 320 321 321 321 317 320 319 322 325
305 304 303 303 302 303 303 303 303 303 303 303 302 302 303 304 306 305 307 305 309 312 311 313 313 313 315 314 314 315 321 323 323 319 322 323 323 322 319 321 321 318 319 316 320 322 324
304 304 304 303 302 303 302 303 303 303 303 303 302 303 304 305 306 305 304 307 308 310 313 314 313 314 315 315 314 315 313 323 324 316 320 320 322 320 322 320 321 319 320 319 317 319 319
304 304 304 303 302 303 303 303 303 303 303 303 303 303 304 304 303 306 306 309 309 311 311 313 314 314 316 315 315 315 315 315 316 320 316 316 318 316 320 320 319 320 317 320 311 321 322
304 304 303 303 302 303 303 303 303 303 303 303 303 300 303 303 304 304 308 308 310 310 311 312 313 314 315 315 316 316 316 317 319 319 317 316 315 319 317 317 319 317 320 316 315 315 320
303 303 303 303 303 303 303 303 303 303 303 304 301 301 303 304 301 299 305 306 309 311 309 311 312 313 314 314 315 315 316 317 317 318 320 318 311 318 318 317 319 318 319 315 319 318 315
303 303 303 303 303 303 303 304 303 303 303 304 299 298 304 304 304 303 303 307 309 309 309 310 311 311 311 314 315 316 316 317 316 317 320 319 316 316 316 317 317 318 318 318 317 314 321
303 303 304 304 304 304 304 304 304 303 303 304 299 302 299 298 301 304 304 305 308 309 309 307 309 311 312 312 312 314 315 317 314 315 320 313 313 317 318 317 318 318 320 320 318 319 322
304 304 304 304 304 304 304 304 304 303 303 303 298 299 300 302 303 302 303 304 309 309 309 308 307 309 311 313 313 314 314 314 313 315 312 311 315 316 317 318 319 321 320 321 319 320 321
304 304 304 304 304 304 305 304 304 303 304 303 302 302 302 303 302 301 301 305 307 306 307 310 308 307 308 310 311 312 311 314 314 312 311 309 316 314 317 319 321 322 320 322 321 321 320
303 304 304 304 304 304 304 304 304 303 304 302 302 303 304 305 304 303 302 303 304 304 307 308 306 305 306 307 309 308 308 308 310 312 310 312 313 315 317 317 319 322 322 322 322 321 320
303 303 304 304 304 305 305 304 304 303 304 303 303 303 305 306 304 304 304 303 304 304 306 305 304 305 306 306 305 306 306 308 310 310 310 312 313 314 316 318 326 322 322 323 322 322 320
302 303 303 303 304 304 305 305 305 304 303 304 304 304 305 305 304 304 304 303 304 303 303 303 304 305 303 305 307 309 309 311 310 310 311 311 313 316 318 321 322 324 327 325 322 322 325
300 301 301 303 303 304 305 305 305 304 304 304 304 304 303 304 304 304 303 303 303 304 304 305 304 303 306 306 308 311 311 315 315 316 311 312 313 317 317 323 327 324 329 332 330 325 339
300 301 301 301 301 304 304 305 305 305 303 304 304 304 303 304 303 302 303 302 303 302 303 302 304 305 306 308 308 309 312 313 314 319 316 316 322 321 319 321 324 328 339 334 333 326 339
300 301 301 301 301 303 304 304 304 305 304 304 303 303 303 304 302 302 302 303 303 303 304 301 304 306 303 309 310 309 311 312 312 314 318 321 324 327 321 327 331 335 339 345 341 340 346
301 301 301 302 302 302 303 304 304 304 304 304 303 303 303 304 302 303 303 303 302 302 303 302 303 304 306 307 307 308 310 312 312 317 316 321 323 328 325 328 327 331 334 339 337 340 342

GFSGBSN_925_thetae_018.txt.gz
Theta_e
311 311 311 311 310 310 310 310 310 311 309 308 306 305 305 305 306 307 307 306 305 305 305 307 309 309 313 316 310 318 315 321 333 337 339 333 346 337 332 332 342 344 342 335 336 335 342
312 312 311 311 310 310 310 310 310 310 309 306 305 305 305 305 305 305 306 306 307 307 305 307 311 312 312 304 312 313 313 317 323 333 326 322 325 321 321 320 330 326 330 334 327 327 339
311 310 310 310 310 310 310 310 310 307 306 305 305 305 305 305 304 304 304 304 306 308 308 309 313 313 317 305 312 317 315 318 318 326 323 323 321 322 319 321 320 323 327 326 325 326 341
309 310 310 310 309 308 308 309 309 307 305 305 305 305 304 304 304 304 304 306 308 310 312 314 315 315 308 309 310 311 315 324 320 322 322 323 322 319 321 320 322 322 322 325 326 328 339
310 309 309 310 308 308 308 308 307 306 305 305 304 304 304 303 303 303 306 306 315 317 313 315 314 315 311 316 318 312 313 312 320 324 324 322 321 320 320 321 320 319 325 324 325 324 333
309 308 308 308 307 306 307 306 306 306 304 304 303 303 302 302 302 303 307 312 321 320 317 318 320 317 316 317 322 323 315 314 314 316 320 322 317 318 315 318 319 323 322 323 325 327 338
308 308 308 307 307 306 306 305 305 304 303 302 302 302 302 302 302 304 305 309 306 308 309 320 319 317 317 317 319 319 317 314 317 318 319 318 319 320 316 317 321 322 322 324 323 324 331
307 307 307 306 306 306 305 304 304 303 302 302 302 302 302 302 302 307 306 306 305 304 306 307 307 310 316 315 316 317 316 314 316 318 317 316 322 320 318 318 320 320 321 321 321 322 323
306 305 304 305 305 305 304 304 304 304 303 302 302 302 302 302 302 304 304 305 305 306 304 307 308 310 310 312 314 315 314 314 315 317 318 321 319 321 322 320 320 319 320 321 323 322 323
306 305 305 305 305 304 304 304 304 304 303 303 302 302 302 302 302 302 303 304 304 306 306 311 309 310 312 312 313 315 316 317 317 318 316 317 318 321 320 322 320 319 318 321 321 320 322
305 305 305 304 304 303 303 303 303 302 303 302 302 302 302 303 303 303 302 304 304 303 319 319 311 311 311 313 315 314 319 320 318 318 318 319 318 319 320 320 319 322 320 320 321 321 321
306 305 305 305 304 304 303 303 302 302 302 302 302 302 302 304 303 303 304 304 304 312 318 317 313 312 313 312 313 316 319 321 318 319 319 320 318 319 319 319 319 320 322 317 317 318 322
305 305 305 304 303 303 302 302 302 302 302 302 302 302 303 303 303 305 305 303 307 311 313 315 313 312 312 313 313 316 317 321 321 320 319 321 321 319 318 319 319 320 318 320 320 321 325
305 304 304 303 302 302 302 303 303 302 302 302 302 302 303 304 303 305 305 304 309 311 310 312 313 312 313 313 314 315 316 322 320 320 319 322 321 321 318 319 319 318 316 318 322 320 322
305 304 303 303 303 302 303 303 303 302 302 302 302 302 303 305 303 305 302 306 307 308 311 312 312 314 315 314 314 314 313 318 322 316 321 320 322 320 319 318 320 317 320 316 315 317 317
304 303 304 303 303 303 303 303 303 303 302 302 303 301 302 303 303 305 305 307 307 309 310 311 313 314 315 314 314 314 314 316 318 317 315 317 322 317 321 319 318 316 315 319 311 321 321
304 303 303 303 303 303 303 303 303 303 302 302 302 298 302 303 304 301 303 306 308 309 310 310 311 312 313 314 314 314 315 317 317 319 316 315 313 317 316 319 322 317 316 314 316 313 318
303 303 303 304 304 304 304 304 304 303 303 303 299 299 302 303 299 299 303 303 308 309 308 309 310 311 313 314 315 314 317 317 315 317 319 318 311 316 318 316 319 322 320 315 319 317 312
303 303 304 303 304 304 304 304 304 303 303 304 301 301 303 302 300 300 303 304 305 310 309 307 308 309 310 312 313 315 314 315 313 314 320 317 314 315 315 316 316 316 318 317 316 313 319
303 304 304 304 303 303 304 304 304 303 303 303 301 302 298 301 298 301 302 303 305 307 310 309 307 308 310 311 311 313 314 314 312 314 318 313 312 314 318 317 317 318 318 315 317 320 321
304 304 304 304 304 304 304 304 303 303 303 303 296 298 300 302 301 303 301 301 307 307 306 308 310 307 308 311 311 312 312 312 312 314 311 310 315 314 316 316 317 318 319 319 316 318 319
303 304 304 304 304 304 304 304 303 303 303 303 303 302 302 302 303 303 301 301 305 304 305 307 310 308 306 308 310 311 309 311 312 310 309 308 315 313 316 316 317 318 319 320 319 318 317
303 303 304 304 304 304 304 304 304 304 303 302 302 302 303 303 305 304 301 303 303 303 304 306 307 305 305 306 308 306 305 306 307 309 309 309 312 314 316 316 316 319 318 319 319 318 318
302 301 303 304 304 304 304 304 304 303 304 303 303 302 304 305 303 304 303 303 303 303 304 304 304 304 304 303 304 303 302 303 305 307 307 309 311 312 315 316 321 317 318 323 320 320 319
300 301 301 301 303 304 304 304 305 304 304 304 304 303 304 305 303 303 303 304 302 302 302 302 303 302 301 305 305 306 306 309 309 309 309 309 308 313 317 317 317 318 327 334 333 331 321
300 301 301 301 302 304 304 305 305 304 304 304 304 304 303 304 303 303 303 302 302 302 302 303 301 300 305 304 306 307 309 308 312 314 309 308 310 311 313 319 322 322 330 332 332 335 338
300 301 301 301 301 302 304 304 305 305 304 304 304 303 303 304 303 302 303 302 302 303 303 302 303 303 304 308 308 307 308 310 311 314 312 310 312 313 315 319 319 323 332 336 335 336 341
300 300 300 300 300 303 304 305 305 305 304 304 303 303 303 303 301 300 302 303 302 302 303 302 302 303 304 308 309 308 308 309 309 308 312 313 315 316 315 320 321 325 335 345 339 338 338
300 300 300 300 300 301 304 305 304 305 305 304 304 303 302 302 303 303 302 302 302 301 302 303 305 301 302 304 307 304 309 309 312 312 311 312 317 320 318 319 318 327 328 333 334 336 336

GFSGBSN_925_thetae_021.txt.gz
Theta_e
312 311 311 310 310 310 310 310 310 309 308 308 308 306 305 305 306 305 306 305 305 307 307 309 311 312 313 316 311 317 319 318 346 345 345 347 350 348 347 351 349 357 348 343 341 341 338
310 310 310 310 309 309 309 309 309 309 308 308 306 304 303 303 303 303 303 304 306 306 306 309 312 313 312 306 309 312 319 341 346 343 341 344 348 342 339 330 344 339 337 330 333 335 332
310 309 310 309 308 309 308 308 308 307 306 305 303 303 303 303 303 302 303 305 306 308 308 310 313 313 315 309 310 312 324 336 341 336 341 336 336 341 328 325 327 327 326 327 328 330 330
309 308 309 308 308 307 307 307 307 306 303 302 302 302 302 303 302 301 302 306 313 317 313 312 314 314 311 308 308 315 325 325 338 332 329 330 326 334 324 323 324 326 326 327 329 328 333
308 308 308 307 307 307 307 306 306 304 302 302 302 302 302 302 302 301 305 305 318 316 316 316 314 316 312 316 312 310 316 322 328 329 323 324 323 325 323 324 324 324 329 329 330 329 339
308 307 306 307 307 306 306 306 305 303 302 302 302 302 302 302 302 302 304 313 319 317 317 318 315 316 313 316 318 313 311 322 323 324 323 323 324 326 324 324 325 325 325 327 330 330 332
307 306 307 307 306 306 306 305 304 303 302 302 302 302 302 302 302 303 306 308 310 312 308 323 323 318 319 317 321 318 311 314 320 323 323 324 323 326 325 323 322 322 325 327 328 328 334
307 307 306 306 306 305 305 304 303 301 301 301 301 301 302 302 302 303 306 307 304 304 309 309 308 312 317 315 318 319 313 315 317 321 322 323 325 323 323 322 322 322 323 327 326 326 326
306 305 305 305 305 305 304 302 302 302 301 301 301 301 301 302 302 303 304 305 303 304 309 311 310 311 312 313 316 319 315 316 318 319 321 324 323 323 323 323 323 322 322 325 327 325 325
306 304 304 304 304 303 303 302 303 303 301 301 301 302 301 302 302 303 304 303 304 304 312 316 312 313 312 315 316 317 318 319 319 320 320 321 323 324 324 324 323 321 321 323 325 326 330
305 304 305 304 304 303 303 301 302 302 301 301 301 301 302 303 303 305 303 305 304 305 316 317 311 311 313 317 316 317 317 319 320 320 321 323 324 324 325 324 324 321 321 322 325 327 327
305 306 305 305 304 303 302 302 302 303 302 301 301 301 302 303 303 303 303 304 305 313 317 319 313 313 315 315 315 316 318 321 321 320 321 322 321 324 324 324 324 325 324 325 325 327 329
305 305 304 304 303 303 303 303 303 303 302 301 301 301 302 303 304 303 304 306 312 315 315 317 316 315 315 315 315 318 319 322 323 322 323 323 322 322 323 323 323 324 324 327 326 327 329
305 304 303 303 303 303 303 303 303 303 303 301 301 301 302 303 304 302 305 307 312 312 313 313 314 315 316 316 316 317 319 322 324 322 322 324 324 323 322 324 323 324 324 324 327 326 326
304 303 303 303 303 303 303 304 303 303 303 301 301 302 302 302 302 302 308 306 310 312 311 312 314 317 317 317 316 317 319 321 324 323 324 323 323 323 323 322 323 324 326 323 323 322 324
303 304 304 303 304 304 304 304 304 303 303 302 302 301 302 302 303 305 308 307 310 310 311 311 315 315 318 317 318 318 320 318 321 321 320 324 326 324 324 323 323 323 324 323 323 324 325
303 304 304 304 303 303 303 304 304 304 302 302 301 304 302 303 302 306 308 307 307 309 310 312 313 314 315 316 316 317 319 317 316 320 320 321 322 322 325 324 324 322 324 323 324 323 323
304 303 303 303 303 303 303 303 303 303 302 302 301 304 302 302 304 304 305 304 305 307 310 309 310 312 314 314 316 317 320 318 314 319 323 320 320 326 324 324 324 324 324 324 325 327 323
303 303 303 303 303 304 304 303 303 303 303 303 301 302 302 302 304 304 304 304 304 308 309 311 310 310 312 314 315 316 317 315 313 319 320 319 322 327 326 323 321 325 325 324 325 325 327
303 304 304 303 303 303 304 304 303 303 303 303 303 304 303 302 302 302 303 304 305 306 308 309 310 308 310 313 313 314 315 314 313 317 319 317 319 325 328 326 322 324 322 325 324 327 326
303 304 304 304 304 304 304 304 304 303 303 303 303 303 302 304 303 304 304 303 306 306 304 307 309 310 309 311 312 314 313 313 313 314 314 317 320 319 319 319 319 320 321 321 323 325 328
304 304 304 304 304 304 304 304 304 304 303 303 305 304 303 302 303 305 303 304 305 305 304 305 310 307 307 309 309 312 311 313 313 313 313 314 317 319 318 317 318 320 320 321 321 322 322
303 303 304 304 304 304 304 303 304 304 303 303 302 302 303 304 304 305 304 303 304 304 304 305 307 305 305 306 306 307 307 308 309 309 312 314 317 318 318 318 319 321 320 321 321 322 322
301 302 303 303 304 304 305 304 304 304 304 303 302 303 304 304 304 303 303 303 303 304 305 304 304 305 305 305 305 306 307 307 307 308 309 314 316 315 316 317 321 321 321 324 325 324 323
300 301 301 301 301 302 304 304 303 304 304 304 304 303 304 304 303 303 303 303 302 302 303 303 304 304 304 306 307 307 310 311 310 308 310 311 314 312 313 317 319 318 320 332 336 328 333
300 300 300 300 300 300 304 304 304 304 304 304 304 303 303 305 304 303 303 302 302 302 303 304 303 304 305 309 309 309 306 308 309 313 311 311 313 314 313 312 317 320 323 330 336 331 341
300 300 300 300 300 300 302 305 306 305 305 305 303 303 303 304 304 303 304 304 302 302 303 302 303 304 307 307 307 309 309 309 308 308 315 314 313 314 314 315 315 317 325 338 341 332 342
300 300 300 300 300 301 303 305 306 306 305 306 304 303 303 304 303 303 303 303 304 303 304 303 304 306 308 309 309 308 310 310 312 308 308 314 317 317 313 313 314 315 321 326 340 340 342
300 300 300 301 301 302 305 306 306 306 306 306 305 304 303 303 303 303 302 302 303 302 303 303 305 305 306 308 308 307 310 310 311 312 311 313 312 318 313 313 314 317 323 331 336 339 340

GFSGBSN_925_thetae_024.txt.gz
Theta_e
310 310 309 309 309 309 309 308 308 307 307 306 304 303 303 302 303 303 303 304 305 307 306 309 312 312 316 317 315 320 318 317 330 331 334 337 343 341 341 344 346 352 347 344 344 342 341
310 309 308 308 308 308 307 308 307 306 305 305 304 303 302 302 302 302 303 304 305 306 307 311 312 313 315 314 314 313 324 327 334 334 335 335 339 338 338 340 345 344 346 343 334 336 338
309 309 308 308 307 307 307 307 306 305 304 303 303 302 302 302 302 302 301 303 304 309 317 318 313 314 317 316 312 313 325 332 336 336 336 333 335 339 334 338 332 340 339 333 332 334 335
308 307 308 307 307 307 307 306 305 303 302 302 301 301 301 301 301 301 302 304 311 315 317 315 314 316 319 315 314 317 324 332 338 335 332 333 334 338 334 329 328 331 332 335 336 336 334
307 308 308 307 307 306 304 303 302 302 301 301 301 301 301 301 301 301 302 309 318 316 316 315 317 318 320 313 312 313 325 328 335 333 332 332 333 333 334 333 330 329 335 337 338 335 337
308 307 307 306 306 306 303 302 301 301 301 301 301 301 301 301 301 302 303 314 318 318 318 319 317 318 317 318 318 313 323 322 333 333 329 328 329 325 329 332 334 333 332 335 337 337 336
307 306 306 306 306 305 303 302 302 302 301 301 301 301 301 301 302 303 306 311 318 322 314 324 327 322 322 319 319 315 316 323 330 332 327 324 324 325 324 326 328 331 332 334 334 336 335
306 306 306 306 306 304 304 302 302 302 302 301 301 301 301 301 302 303 308 311 307 305 310 312 313 317 322 321 324 318 316 324 324 329 325 325 326 324 324 324 325 327 329 331 333 333 332
306 305 305 305 305 305 304 302 302 301 301 301 301 301 301 301 303 307 308 307 306 307 312 315 315 316 316 318 321 322 317 322 324 325 324 325 325 324 323 325 326 326 327 329 332 333 331
306 305 305 304 304 303 303 302 302 301 301 302 301 300 301 302 306 307 308 306 307 307 316 317 316 317 316 319 320 322 316 321 321 325 324 324 325 325 325 325 325 326 325 326 328 331 336
305 305 305 304 304 304 303 303 303 303 302 302 301 300 301 303 307 308 306 306 307 309 316 320 316 315 317 321 324 321 320 317 320 322 324 325 324 325 325 325 325 324 323 324 325 327 331
304 304 305 304 305 304 304 304 304 303 303 303 301 301 301 307 307 306 306 306 309 316 315 320 316 316 317 319 321 322 322 320 320 322 324 324 324 325 325 325 325 324 323 323 324 326 331
304 305 305 304 304 304 304 304 304 304 303 302 301 302 305 305 307 305 305 310 312 314 317 320 319 318 319 319 321 321 322 323 326 324 325 324 325 324 325 326 325 325 325 327 326 327 329
304 305 305 304 304 303 303 304 303 303 303 302 301 304 304 305 304 305 306 311 311 314 317 316 317 317 320 320 319 320 323 325 324 325 326 326 326 324 325 326 326 326 326 326 328 326 327
304 305 304 303 303 303 303 304 303 302 302 301 302 304 305 304 304 306 310 308 308 315 313 314 316 319 321 320 320 320 322 324 324 326 327 327 327 324 325 325 326 327 329 325 326 327 328
305 303 303 303 303 303 304 304 302 302 302 302 305 305 305 304 304 307 310 307 310 310 311 313 317 318 322 321 321 321 322 322 326 325 327 328 329 326 324 325 325 327 327 325 325 328 329
304 303 303 303 303 303 304 303 303 302 302 303 305 307 305 304 305 307 307 307 307 307 309 311 314 315 318 319 320 322 323 320 321 325 325 327 328 329 326 326 326 326 327 326 326 326 328
302 303 303 304 303 303 304 303 303 302 302 304 305 306 304 304 306 306 306 306 305 307 308 310 311 311 315 317 319 321 323 321 317 321 326 326 328 331 327 326 325 326 327 327 327 330 327
301 303 304 304 304 303 303 304 303 303 303 305 307 306 305 304 306 306 306 306 306 307 308 310 312 312 312 315 319 319 320 317 316 322 326 326 327 330 330 328 327 327 327 327 327 328 331
301 304 305 304 304 304 303 304 304 303 303 305 307 306 306 306 305 306 306 306 306 306 306 306 311 312 313 312 315 317 318 316 315 317 318 320 327 329 331 330 328 329 328 327 327 330 328
301 302 304 304 305 304 304 303 304 303 302 305 306 306 305 306 306 305 306 306 305 306 306 306 309 310 311 314 313 314 316 316 315 315 317 321 327 327 329 326 325 328 327 328 329 329 330
300 301 302 303 303 304 304 304 304 304 303 305 306 305 305 305 305 305 305 306 305 305 305 306 307 307 307 312 311 313 313 315 316 315 317 317 325 324 327 324 323 325 325 326 328 329 329
300 301 301 301 301 301 302 303 304 304 304 306 305 305 306 305 305 306 306 304 305 304 306 305 306 306 306 308 308 309 310 310 312 314 315 317 320 323 327 324 324 326 325 325 326 326 327
300 300 300 300 301 301 301 302 303 304 304 304 305 305 306 307 305 305 304 303 304 304 305 305 305 305 306 307 308 309 309 309 310 311 312 316 317 320 324 325 328 326 326 326 326 326 326
300 300 300 300 300 301 301 305 305 304 304 305 304 305 306 307 305 305 304 304 304 303 303 305 305 306 306 307 310 309 310 310 310 310 311 313 316 317 321 323 325 324 323 324 326 327 326
300 300 300 300 300 300 303 305 305 305 305 304 305 303 306 306 307 305 305 304 305 305 305 304 305 305 307 309 309 310 309 309 310 310 310 313 315 317 317 320 323 323 322 327 326 332 329
300 300 300 300 301 301 305 306 307 306 306 306 305 304 304 306 305 305 306 306 305 305 306 305 305 306 306 309 309 308 309 308 309 311 313 311 315 316 316 317 319 320 325 332 331 343 340
300 301 301 302 302 302 305 307 306 306 307 307 306 305 303 304 305 306 305 306 305 305 307 305 306 307 308 310 309 307 309 310 311 309 310 312 313 313 314 316 317 316 318 325 334 337 336
303 302 303 302 303 303 307 306 306 307 307 307 308 306 304 304 305 305 305 305 305 304 305 305 305 306 307 310 311 312 310 311 311 312 311 311 311 314 314 315 315 316 318 320 322 325 333

GFSGBSN_925_thetae_027.txt.gz
Theta_e
309 310 309 309 309 308 308 308 308 307 307 305 302 301 301 301 301 302 302 302 303 303 304 306 310 309 316 320 319 329 317 328 321 325 326 335 340 344 345 342 344 346 348 348 348 346 344
310 309 309 309 308 308 307 307 307 306 303 301 301 301 301 301 301 301 302 302 302 307 309 314 315 313 318 322 319 319 324 325 326 329 326 332 337 340 343 341 343 344 346 347 345 344 342
308 309 308 308 308 307 306 306 305 302 301 301 301 300 300 301 300 301 301 302 305 315 316 317 318 315 320 324 319 316 320 325 330 330 328 331 332 339 340 340 339 342 344 346 347 340 340
308 308 308 308 307 306 305 304 302 301 301 301 301 301 301 300 300 301 302 303 314 319 318 314 317 317 324 323 322 317 322 326 330 332 331 330 331 335 339 337 339 341 342 347 342 339 339
308 308 307 307 307 303 302 302 302 301 301 301 301 301 301 300 300 301 302 306 317 318 316 315 319 321 327 318 319 321 319 328 332 334 334 332 332 336 337 338 336 335 339 341 342 340 339
307 307 307 307 306 303 302 302 303 302 302 301 301 301 301 300 301 302 304 309 314 318 320 321 322 323 323 323 322 319 319 326 334 336 336 334 335 336 338 339 340 336 336 337 339 340 339
307 306 307 306 306 304 303 303 302 302 302 302 301 301 300 300 302 306 309 314 318 325 324 327 327 325 326 324 321 319 319 327 333 336 336 335 336 340 333 338 337 335 335 336 338 339 339
307 306 306 306 305 303 302 302 302 302 302 302 302 300 300 301 303 308 310 313 311 310 313 313 314 316 322 324 325 320 322 327 330 338 333 331 334 332 331 329 332 334 336 336 336 336 338
305 304 305 304 303 303 303 303 303 303 302 302 302 301 300 301 305 309 311 310 309 310 313 313 316 316 317 324 326 326 321 324 329 336 333 329 327 327 326 325 327 330 332 334 335 336 336
304 304 305 304 304 304 304 304 304 303 303 302 302 301 301 301 307 308 311 308 309 310 315 316 319 319 318 321 326 326 319 323 328 334 335 329 327 326 326 325 326 326 327 330 332 334 338
305 305 306 305 305 304 304 305 304 303 303 302 302 301 301 305 309 311 308 307 308 311 317 321 320 319 320 320 325 325 321 322 326 327 331 331 327 327 327 326 326 327 327 327 329 332 335
306 306 306 304 304 304 303 303 303 302 301 301 302 302 304 307 308 307 306 306 310 316 318 321 319 320 321 320 323 326 325 321 325 326 327 328 327 327 327 327 326 327 326 326 327 328 333
305 306 305 305 303 303 303 303 302 301 301 301 301 303 305 306 308 306 306 309 312 313 318 323 321 322 321 323 323 326 326 321 324 326 326 327 328 327 327 328 327 327 327 327 326 328 330
306 305 305 304 303 303 303 303 302 302 301 301 303 306 307 307 305 306 307 310 310 312 318 317 317 319 321 323 324 326 327 328 322 323 325 328 329 328 327 328 328 328 327 327 329 327 327
305 304 304 303 303 303 304 303 302 302 302 303 306 308 308 305 305 306 310 309 309 313 313 313 316 321 321 323 324 326 326 327 325 323 326 329 330 329 328 327 329 329 330 327 328 329 329
304 303 303 303 303 303 304 304 303 302 302 304 307 308 308 305 307 308 310 309 310 309 309 310 314 319 324 325 324 325 326 326 327 325 328 330 332 330 328 328 328 330 328 328 328 331 332
302 302 303 303 304 303 303 304 303 303 302 305 309 309 307 305 307 309 307 308 307 307 308 309 310 313 316 319 322 326 326 325 325 327 328 329 332 332 330 328 329 328 330 329 328 328 331
301 302 303 303 304 304 304 303 303 304 302 306 309 310 307 306 308 307 306 306 305 307 308 308 311 312 313 316 319 323 326 325 319 324 328 329 330 333 331 328 328 329 329 330 330 333 329
301 301 302 303 304 304 304 304 303 303 302 305 310 310 307 306 307 308 307 306 307 308 307 308 309 311 314 315 318 321 323 321 319 324 328 330 331 334 335 331 329 329 328 330 330 330 333
300 301 302 302 303 303 304 304 304 303 302 305 310 310 308 308 307 307 307 307 307 306 306 307 310 310 311 313 314 318 321 320 318 319 321 324 331 333 336 335 330 330 329 328 330 332 331
300 301 301 301 301 302 303 304 304 304 303 306 309 309 308 308 308 307 307 306 308 306 306 307 311 310 310 313 315 317 319 319 319 320 322 325 332 332 332 333 332 330 329 329 330 331 331
300 300 301 301 301 301 302 303 304 304 304 307 309 308 307 308 306 307 308 307 306 306 306 306 307 308 307 311 312 313 316 316 319 319 321 323 328 331 333 331 331 331 331 330 329 330 330
300 300 300 300 300 301 301 302 304 304 305 305 307 307 308 308 307 307 307 307 305 305 307 307 306 306 307 308 309 310 311 312 313 315 318 321 325 331 333 331 331 332 331 331 331 330 331
300 300 300 300 300 301 301 303 305 305 305 304 303 304 308 310 308 307 306 306 306 306 306 306 306 307 308 308 308 310 310 311 312 313 315 318 323 327 330 332 335 331 330 329 330 330 330
300 300 300 300 300 301 301 304 305 305 305 306 304 304 306 310 308 308 307 306 306 306 307 307 306 307 307 308 309 312 312 312 312 311 313 315 318 324 328 331 330 329 329 330 329 330 329
300 300 300 301 302 303 305 306 306 306 306 307 306 303 304 307 309 308 309 307 307 308 309 308 307 307 307 309 309 313 313 314 314 313 312 314 316 319 324 329 333 329 327 326 328 331 329
302 303 303 303 303 304 305 307 306 306 307 307 307 305 304 306 306 308 309 309 308 308 308 307 307 307 308 310 312 311 310 313 313 315 314 314 316 318 320 324 326 327 329 328 331 347 342
303 302 302 302 303 305 308 306 307 306 307 307 308 307 305 305 305 307 308 308 309 307 309 308 309 309 308 311 312 311 309 313 314 312 315 315 316 318 319 321 324 322 323 330 332 331 334
302 302 302 303 305 306 307 306 307 307 307 307 308 307 306 305 306 307 307 307 307 307 307 308 308 308 309 311 314 314 311 311 312 313 312 315 316 316 317 319 320 320 321 321 322 324 327

GFSGBSN_925_thetae_030.txt.gz
Theta_e
310 310 309 309 308 306 306 306 304 302 302 301 301 301 301 300 300 300 301 301 302 302 306 310 310 312 315 320 320 322 322 319 321 318 324 327 336 343 348 346 345 345 352 350 346 349 342
309 309 309 309 308 306 305 305 304 302 301 301 301 301 301 300 300 300 301 302 302 304 314 318 316 314 316 323 324 323 328 326 321 320 324 326 333 339 345 345 343 344 345 348 348 350 343
309 308 308 308 308 304 302 301 301 301 300 301 301 301 301 300 300 300 301 302 303 308 316 318 319 316 318 322 325 321 323 328 324 323 324 325 329 336 342 345 343 341 344 344 346 346 343
308 308 308 308 306 303 302 302 301 301 301 302 302 301 300 300 300 301 303 304 307 311 317 317 319 319 321 326 324 324 318 324 324 327 325 325 329 333 337 341 343 342 341 346 346 346 342
308 308 308 307 306 303 302 302 302 302 302 302 302 302 300 300 300 303 306 309 310 312 319 318 321 320 327 325 326 325 320 322 326 330 329 328 329 332 334 340 343 341 343 344 346 344 342
308 307 307 307 305 303 303 303 303 303 302 302 302 302 301 300 300 307 309 312 312 315 321 321 323 326 324 327 326 325 324 322 327 331 333 333 333 332 334 338 346 342 341 340 344 344 341
307 307 307 305 304 304 303 303 303 303 302 302 302 302 301 300 300 308 309 313 314 322 314 321 327 324 326 327 325 324 324 322 328 333 336 335 337 336 333 336 338 340 339 337 338 340 342
306 306 305 304 304 304 303 303 303 302 302 302 302 302 301 300 302 309 310 313 311 310 312 312 314 315 319 325 326 325 323 323 329 335 336 337 338 335 333 334 336 338 338 336 335 336 338
306 305 305 304 304 303 303 302 302 302 301 301 301 301 302 302 305 310 312 311 309 310 312 311 313 314 315 318 323 327 323 323 327 334 338 338 337 334 335 336 333 337 338 336 336 335 337
305 305 306 304 303 302 303 304 303 302 302 301 301 301 302 303 308 311 311 308 308 309 312 313 316 317 315 317 320 327 323 324 329 332 338 337 334 334 335 334 334 333 335 334 335 336 337
304 306 306 304 303 303 304 304 303 302 302 302 302 302 303 304 308 312 308 307 308 311 315 321 320 321 319 316 321 323 326 324 330 329 334 338 334 332 330 332 330 328 328 331 331 334 335
305 304 303 304 305 303 303 303 302 302 302 302 302 303 305 309 310 309 307 307 309 313 313 320 322 322 322 318 318 324 327 324 328 328 330 335 334 330 328 328 327 326 326 327 328 330 336
306 303 304 304 303 303 302 302 302 302 303 303 302 304 306 308 310 307 307 309 309 311 313 317 318 318 320 323 319 320 327 328 326 328 333 332 335 333 328 328 327 326 326 328 329 330 330
303 303 303 303 303 302 301 302 302 302 303 303 303 307 308 309 307 307 308 309 309 310 313 313 313 314 318 322 324 321 324 329 323 325 329 331 331 332 328 328 329 327 327 329 332 331 328
303 303 303 303 303 303 302 302 302 302 303 303 305 310 311 310 307 308 310 310 311 312 310 310 311 315 319 321 321 325 324 328 326 324 330 330 331 329 329 328 329 328 328 328 327 328 328
301 302 303 303 303 303 303 303 303 302 303 303 306 310 312 309 307 309 311 309 310 309 308 308 310 311 313 314 317 321 327 327 327 324 325 329 331 329 329 329 328 329 329 328 329 333 333
301 302 302 302 303 303 303 304 304 304 304 305 310 313 310 309 308 310 309 308 309 308 309 309 308 309 311 316 317 320 325 328 325 327 326 325 329 330 330 330 329 329 331 329 328 329 331
301 301 302 302 302 302 302 303 303 303 304 306 310 314 310 308 310 309 308 307 307 309 309 308 308 308 312 313 316 319 325 326 323 322 327 327 326 331 332 331 329 329 330 331 332 336 331
301 301 301 302 302 302 301 301 302 301 303 306 312 313 311 308 309 308 308 307 306 309 309 307 308 309 309 311 315 318 320 320 320 322 325 327 331 333 334 333 331 331 329 330 331 330 336
301 301 301 301 301 302 301 301 302 302 302 305 312 313 312 309 309 309 308 307 308 309 310 308 307 309 309 310 311 315 317 319 318 320 329 324 329 334 336 335 334 333 330 330 330 332 332
300 300 300 301 301 301 301 302 302 304 302 307 311 311 309 310 310 309 308 309 310 309 308 306 308 309 309 309 311 312 314 314 317 322 321 326 332 332 331 333 333 330 330 330 332 333 334
300 300 300 300 301 301 301 302 304 304 304 307 310 311 310 310 310 309 308 309 309 307 306 306 308 308 307 307 310 312 312 313 317 316 318 322 330 332 334 333 333 334 330 330 330 330 331
300 300 300 300 301 301 301 302 304 305 305 307 307 304 308 308 310 310 310 309 307 308 308 306 308 307 306 307 308 308 309 309 311 313 316 320 326 331 335 334 334 336 333 331 330 330 330
300 300 300 300 300 301 302 305 306 306 305 307 306 304 305 309 309 310 310 310 309 308 307 307 307 308 308 308 308 308 309 310 311 313 314 317 322 327 332 334 338 334 333 332 331 330 331
299 300 303 303 304 304 304 307 306 306 306 307 307 304 304 309 309 310 310 310 310 309 308 309 309 310 308 308 308 310 311 311 312 313 313 315 319 324 332 334 334 334 333 332 332 333 332
303 303 303 303 303 303 305 307 307 307 306 307 308 306 304 306 308 308 311 310 311 311 309 308 309 309 308 308 309 313 314 317 312 312 313 314 317 320 327 332 335 333 331 330 331 333 342
303 302 302 302 303 305 307 306 307 307 307 307 308 307 303 305 306 307 309 311 310 311 312 309 309 309 309 312 312 312 313 314 316 314 314 315 317 319 323 327 331 330 329 329 333 344 340
302 302 302 302 305 307 306 306 307 307 307 307 308 308 305 306 305 307 308 309 310 310 311 310 310 311 313 315 316 318 316 315 315 316 317 316 317 319 320 325 329 324 327 335 337 331 331
302 302 303 306 306 306 306 306 307 307 308 308 309 309 308 306 307 307 307 307 308 309 310 309 309 309 309 311 314 313 313 312 315 316 316 317 318 318 319 322 328 322 323 322 323 325 325

GFSGBSN_925_thetae_033.txt.gz
Theta_e
309 309 309 309 305 302 301 301 301 301 301 302 302 301 301 300 300 300 300 301 302 303 305 314 318 314 314 318 317 321 320 320 320 319 320 319 322 332 336 344 346 347 351 346 345 345 344
309 309 309 308 307 303 302 302 302 301 301 301 302 302 301 301 300 300 300 303 304 306 307 317 319 315 315 318 320 323 326 322 323 321 320 319 324 329 337 341 346 344 349 346 347 346 346
308 308 308 308 304 302 302 303 303 302 302 302 302 302 301 301 300 300 304 307 308 309 309 316 320 317 318 314 320 324 324 324 323 320 318 320 324 326 335 342 343 344 345 351 348 346 348
308 308 308 307 304 303 303 303 303 302 302 302 301 301 301 301 300 302 307 309 310 311 311 318 319 319 321 318 321 321 322 327 322 320 319 320 324 324 327 335 341 344 343 346 349 348 347
307 307 307 304 303 303 302 303 302 302 301 301 301 301 301 301 301 304 309 310 313 312 313 318 320 321 323 323 322 323 323 326 326 323 322 321 323 323 325 333 337 340 345 341 340 341 344
306 306 305 303 303 302 302 302 302 302 301 301 301 301 301 301 301 306 308 311 311 320 322 321 322 323 322 321 326 325 324 323 325 324 327 324 325 325 327 330 338 342 342 339 340 340 343
305 305 304 303 302 302 302 302 302 302 302 302 301 301 301 302 302 307 308 311 309 313 312 308 309 316 312 322 321 326 325 324 320 325 330 329 329 328 328 329 332 339 341 339 338 338 341
304 304 303 302 302 302 302 302 302 302 302 302 302 302 302 302 303 309 311 309 307 308 307 309 310 311 312 313 316 320 326 324 319 326 329 331 332 330 330 330 331 334 338 340 337 335 338
304 303 302 302 302 302 302 303 303 302 302 303 303 302 302 304 305 310 310 308 307 308 307 308 309 310 311 311 313 317 322 324 320 324 329 333 334 333 335 331 331 332 335 337 337 335 333
304 303 302 302 302 302 302 302 302 302 302 303 303 303 303 304 308 308 310 308 307 307 308 311 312 313 312 312 314 317 320 324 323 323 329 333 333 335 335 334 332 332 333 335 337 336 335
304 302 302 302 303 302 301 301 301 302 302 303 303 303 303 305 307 310 310 307 307 308 310 314 314 316 313 312 315 316 318 321 324 323 329 334 336 336 335 334 333 334 332 333 335 335 330
302 302 302 303 303 302 302 303 303 303 304 304 305 305 304 306 308 310 308 307 308 309 312 312 312 311 311 312 317 316 319 321 323 323 326 330 335 335 335 333 333 333 332 328 331 331 331
302 302 303 303 303 303 303 303 303 303 303 304 305 306 306 307 309 309 309 307 308 309 312 313 310 309 309 314 317 318 316 322 323 322 324 329 330 335 332 332 331 330 327 326 325 329 329
302 302 302 303 303 304 303 303 302 301 301 302 305 307 309 311 310 310 308 309 310 311 311 310 309 308 311 312 312 315 319 320 325 322 327 330 330 330 333 329 327 327 325 321 324 325 325
301 302 302 302 303 303 303 302 301 300 300 301 306 309 311 312 311 309 308 310 309 310 309 308 307 308 309 310 311 314 317 321 323 323 324 328 328 329 331 330 327 325 324 321 322 326 324
301 301 302 302 302 302 302 302 301 300 300 302 306 310 312 311 309 308 309 310 308 308 308 308 308 308 308 311 312 313 315 321 323 320 323 322 324 329 331 331 328 325 323 323 322 325 326
301 301 302 302 302 302 301 301 301 301 300 302 308 313 311 309 309 308 309 308 307 307 308 307 308 308 307 313 312 312 315 317 320 318 319 321 321 322 327 331 331 325 325 323 322 323 325
301 301 301 301 302 302 301 301 301 301 302 304 308 313 313 310 308 309 307 307 306 306 309 309 309 306 308 308 310 311 316 317 315 316 317 321 323 322 323 327 329 326 325 324 325 324 324
301 300 301 301 301 301 301 301 301 301 302 305 310 312 312 310 309 308 308 308 307 309 309 308 308 307 307 311 313 314 314 313 314 314 314 320 322 325 323 323 325 327 325 325 323 325 326
300 300 300 300 301 301 301 302 302 302 302 305 311 313 311 309 309 309 309 308 309 308 309 308 307 306 309 310 310 312 312 312 312 313 318 317 322 324 327 325 326 327 327 326 325 327 326
300 300 300 300 301 302 301 302 303 304 303 306 309 311 310 310 310 309 310 309 309 310 309 307 306 308 307 309 307 311 310 310 310 312 313 313 321 326 329 329 329 330 328 327 326 326 328
300 300 300 300 301 301 301 303 304 305 304 307 309 308 306 307 308 309 310 311 310 310 308 307 307 307 307 307 308 309 309 309 310 311 310 311 318 324 333 331 330 331 329 328 327 327 328
299 299 299 301 303 304 304 305 306 306 306 306 308 305 305 308 308 309 310 311 310 310 309 308 307 306 307 308 309 307 306 307 308 309 310 311 316 322 333 333 334 335 333 328 328 327 327
299 301 303 304 303 304 306 306 307 306 306 306 306 305 305 308 307 308 308 309 311 311 311 309 308 309 309 308 308 308 307 308 308 308 310 312 313 320 330 332 337 333 332 333 328 329 327
301 304 303 303 303 305 307 307 306 306 306 307 307 305 303 306 307 307 308 310 311 310 311 310 308 309 307 308 308 307 309 310 310 310 311 311 313 319 329 333 333 333 331 330 332 338 338
304 303 302 302 304 306 307 306 306 306 307 307 307 307 303 304 307 307 308 308 309 312 311 310 309 308 309 309 310 310 313 313 317 311 312 312 313 319 323 334 339 326 326 330 331 343 335
303 302 302 303 306 307 306 306 306 307 307 307 308 308 304 304 304 306 310 310 309 310 311 310 310 310 310 311 312 313 314 314 316 319 315 314 316 318 321 327 333 324 326 331 340 339 330
302 302 303 306 305 306 306 307 307 307 307 307 308 308 306 305 305 306 306 309 309 309 311 311 310 311 312 313 314 315 317 315 315 316 314 317 319 319 321 327 333 321 322 332 330 323 324
302 303 306 306 305 306 307 307 307 307 307 308 309 309 309 306 307 306 306 306 307 307 309 310 310 310 310 311 312 311 311 314 313 320 314 319 317 320 320 325 319 320 320 320 320 322 320

GFSGBSN_925_thetae_036.txt.gz
Theta_e
309 308 307 304 302 303 303 303 302 301 301 301 301 301 301 301 301 300 301 303 305 307 308 307 313 317 313 317 315 321 325 323 316 317 320 319 317 322 332 337 343 350 351 351 350 349 345
308 308 306 304 303 302 302 302 302 301 301 301 301 301 301 301 301 301 303 306 308 309 310 308 315 316 315 315 313 318 319 324 319 323 320 318 317 319 328 332 341 344 346 347 347 345 343
308 308 307 304 302 301 301 302 301 301 301 301 301 301 301 301 301 302 306 308 309 311 312 309 318 317 316 313 314 319 321 324 321 319 319 319 318 323 324 333 332 336 345 345 347 345 346
307 308 305 302 301 301 301 302 301 301 301 302 302 302 301 301 302 303 307 310 311 312 312 313 319 318 317 313 315 317 318 322 326 319 318 318 318 319 322 323 326 339 341 348 347 347 346
306 305 302 301 301 302 302 302 302 302 302 302 303 303 302 302 302 303 309 311 309 316 321 318 319 318 321 319 322 323 319 322 324 322 318 318 318 319 322 322 323 332 339 343 345 347 347
307 307 303 302 301 301 302 301 301 301 302 302 303 303 303 302 302 305 311 309 307 318 321 320 322 320 318 318 316 314 321 323 321 319 319 318 316 318 321 321 327 333 339 340 342 339 346
304 303 302 302 302 301 301 301 301 302 302 302 303 304 304 303 303 307 311 307 304 303 306 304 305 316 312 310 309 315 317 323 323 321 322 320 320 322 321 322 325 332 335 339 338 338 337
304 302 302 302 302 301 301 302 303 303 303 303 304 304 305 304 305 308 309 303 305 306 303 306 306 306 307 308 309 310 316 321 320 324 323 326 325 322 325 324 325 329 331 337 339 338 334
303 302 302 302 302 302 303 303 303 302 302 302 302 304 306 305 306 308 309 309 308 306 302 305 308 308 308 308 309 309 313 320 322 320 324 328 330 327 328 327 328 328 329 331 337 337 333
301 302 302 302 303 303 303 303 302 301 301 301 301 303 306 305 307 308 309 308 308 306 304 308 311 311 309 309 310 313 312 316 323 320 321 324 329 329 330 329 328 328 328 330 333 334 337
301 302 302 302 303 303 303 302 301 301 301 301 301 303 306 305 306 308 307 309 309 305 307 312 310 311 308 310 312 314 313 315 320 322 318 324 327 331 330 332 331 329 328 329 331 332 332
301 302 302 303 303 303 302 301 301 301 301 301 301 304 307 307 306 307 308 309 306 305 310 311 309 308 307 309 311 312 312 313 318 320 321 321 328 329 331 331 333 331 330 329 330 329 333
301 302 302 302 303 302 302 301 301 301 301 301 301 307 310 307 307 309 310 305 303 306 309 310 307 307 306 309 310 311 312 315 317 320 322 323 323 326 332 333 332 332 329 334 332 331 332
301 301 301 302 302 302 302 301 301 301 301 300 301 310 310 309 310 311 310 303 309 309 308 306 307 306 307 308 310 311 311 312 320 317 319 323 324 324 328 332 334 332 330 332 336 329 330
300 301 301 302 302 302 302 302 301 301 301 300 302 310 311 311 312 311 301 305 307 306 306 306 306 306 307 310 310 310 311 313 316 315 319 320 323 324 326 330 333 328 332 321 318 319 320
300 301 301 301 301 301 301 302 301 301 300 300 304 308 310 311 311 309 303 307 307 305 307 306 306 306 306 309 310 310 311 312 314 314 313 316 321 322 324 328 329 330 322 324 316 322 323
300 300 300 301 301 301 301 301 301 301 300 300 306 305 311 311 309 300 303 304 305 307 308 307 308 308 305 308 310 311 311 310 314 314 313 313 318 321 321 327 329 327 326 322 321 317 321
300 300 300 300 301 301 301 301 302 301 302 302 304 307 311 310 304 300 303 305 307 308 307 307 307 307 306 310 310 310 310 313 311 312 314 314 318 323 322 320 323 329 323 320 322 319 318
300 300 300 301 301 302 301 301 302 301 304 305 304 304 311 308 306 305 305 309 307 308 308 309 307 306 306 310 311 311 311 311 311 312 314 315 320 321 322 318 319 321 328 321 316 317 320
300 300 301 301 301 301 301 301 303 303 304 305 303 307 304 303 305 307 307 309 309 308 308 307 306 304 306 307 309 310 311 310 309 309 312 314 311 317 322 322 321 322 323 323 322 322 321
299 299 299 299 301 303 304 305 305 305 305 305 302 304 306 306 307 306 306 308 311 310 308 306 305 307 305 305 306 310 308 308 308 311 311 311 310 312 315 318 322 325 326 327 323 322 324
299 299 300 303 304 304 306 306 306 306 305 306 304 303 302 306 305 306 306 309 311 311 311 308 308 307 303 304 307 308 308 308 309 309 309 309 309 311 315 326 328 328 328 328 324 324 322
299 300 303 304 304 306 306 306 306 306 306 306 305 305 304 307 306 306 308 308 308 309 311 310 310 308 306 306 306 307 307 307 307 309 310 309 308 311 320 325 330 333 329 329 324 323 324
301 302 304 304 305 306 307 306 306 306 306 306 306 306 305 308 308 309 308 308 309 310 310 310 308 308 307 305 305 305 306 306 306 307 308 309 309 309 319 324 335 327 324 327 335 333 331
303 304 303 304 305 307 306 306 306 306 306 307 307 307 304 306 307 308 309 310 308 308 310 311 309 307 304 305 305 307 308 309 309 309 308 309 309 311 321 327 329 327 324 324 328 332 326
303 302 302 304 307 306 306 306 306 307 307 307 307 308 302 305 306 307 308 307 309 311 310 309 308 306 308 305 306 310 315 316 320 317 308 312 311 310 315 329 335 325 323 327 329 332 324
302 302 303 306 305 305 306 306 307 307 307 307 308 308 303 304 304 305 308 308 306 308 309 310 308 307 308 310 313 316 316 316 319 321 316 315 314 317 321 331 327 322 321 324 333 331 323
302 303 305 305 305 306 306 306 307 307 307 307 308 308 306 305 305 306 307 308 308 308 310 309 310 306 307 311 312 312 315 314 316 316 317 320 321 320 324 328 332 321 321 321 319 319 318
303 306 306 306 306 306 306 307 307 308 308 308 308 309 308 306 307 306 307 307 307 307 308 308 307 305 309 307 309 310 312 313 312 318 314 317 316 319 319 323 318 321 320 317 317 317 320

GFSGBSN_925_thetae_039.txt.gz
Theta_e
308 309 306 302 301 301 301 301 301 301 302 302 302 302 302 301 301 302 303 307 308 310 310 311 311 316 312 313 311 315 318 325 318 314 322 319 320 325 330 333 339 352 354 352 354 353 351
308 308 307 304 302 302 302 302 302 301 302 302 303 303 303 302 302 302 305 309 310 310 312 312 313 315 315 310 311 317 320 324 320 319 317 316 318 321 327 330 341 343 347 349 347 347 346
308 308 307 304 302 302 301 301 301 301 302 303 304 305 305 303 302 303 307 310 310 308 320 312 316 316 315 312 312 313 325 323 320 318 316 317 316 321 320 330 330 333 341 336 342 345 345
308 308 306 303 302 301 301 301 302 303 303 303 304 304 306 305 303 304 310 308 308 308 319 315 318 317 317 314 318 320 318 317 323 318 317 317 317 319 321 323 323 334 333 338 339 344 344
306 306 303 302 302 301 302 303 303 302 302 302 302 303 306 307 304 306 310 308 307 313 318 319 320 317 319 318 315 312 311 318 325 322 319 318 316 316 321 323 322 323 335 342 342 342 346
304 303 302 302 302 303 303 302 302 301 301 301 301 301 305 307 305 307 308 307 306 314 319 318 320 315 313 309 309 309 314 320 320 320 318 316 314 314 317 319 330 327 335 336 338 340 347
305 302 302 302 303 303 302 302 301 301 301 301 301 301 303 307 306 307 307 306 301 301 303 304 303 310 308 308 309 309 310 317 319 317 317 315 315 317 316 320 323 328 334 338 338 337 341
302 302 302 303 303 303 302 301 301 301 301 301 301 301 301 307 306 308 308 304 305 306 301 304 304 304 307 307 308 309 312 317 322 320 319 318 318 317 317 319 322 322 326 332 334 334 334
301 302 302 303 303 302 301 301 301 301 301 301 301 300 303 308 306 307 307 308 308 307 301 303 305 307 307 307 309 311 311 312 315 324 321 323 323 320 321 320 322 322 323 327 332 333 334
302 302 302 303 303 302 302 301 301 301 302 302 301 301 306 307 306 306 307 307 308 306 302 307 308 307 306 308 310 311 312 312 314 320 322 322 323 324 321 324 323 323 324 327 329 332 334
301 301 302 302 303 302 302 302 302 302 302 301 301 301 309 307 306 306 307 309 309 304 305 311 307 308 305 308 309 311 311 312 314 314 316 322 324 325 325 324 325 326 324 327 328 328 330
301 301 301 302 302 302 302 302 302 302 302 301 301 301 310 308 306 307 308 310 305 304 306 310 307 306 306 306 309 310 310 312 314 317 316 316 318 323 325 327 326 327 326 326 327 326 331
300 301 301 301 302 302 302 301 302 301 301 301 301 304 310 309 306 307 309 303 303 305 307 307 306 305 305 308 309 309 309 316 316 319 319 320 319 320 324 326 327 329 325 329 330 330 334
300 300 301 301 301 301 301 301 301 301 301 300 301 306 311 310 310 310 307 302 308 307 307 305 305 305 306 309 309 309 309 312 315 315 317 318 323 322 321 327 329 329 328 330 333 334 335
300 301 301 300 300 300 301 301 301 301 300 300 301 306 310 310 309 310 301 304 306 304 305 306 304 306 306 309 308 309 309 311 316 315 317 318 320 316 322 322 329 329 332 326 323 317 324
300 300 300 300 300 300 301 301 301 300 300 300 303 306 309 310 309 306 301 306 305 306 306 306 306 306 306 307 309 309 309 310 312 313 312 315 317 316 320 322 325 330 326 330 320 328 328
300 300 300 300 301 301 300 301 302 301 300 301 304 303 310 309 307 299 302 302 305 307 307 307 307 307 305 307 309 310 309 309 310 310 311 314 315 319 320 321 323 325 328 329 328 320 329
301 301 301 301 301 300 300 301 302 303 303 303 301 301 308 308 303 299 302 303 306 307 307 307 306 306 305 308 308 308 310 311 310 313 313 312 317 323 323 319 318 324 325 319 333 327 316
300 300 300 300 300 301 304 305 305 304 305 305 303 300 308 307 306 304 304 308 307 307 307 308 307 305 304 307 308 310 310 310 312 310 312 312 320 317 320 318 318 320 326 321 322 317 320
299 300 299 300 302 305 306 306 305 305 305 305 303 304 302 300 302 305 306 308 309 309 309 307 306 304 305 306 305 307 309 310 309 309 311 313 315 313 319 319 315 319 320 324 320 319 322
299 299 299 302 304 306 306 306 306 306 305 305 299 302 304 302 303 304 305 307 309 311 310 308 305 306 306 303 304 305 307 308 309 311 310 311 313 309 311 312 312 314 316 319 319 321 322
301 300 301 304 305 306 307 306 306 305 305 305 303 303 300 305 305 305 306 307 309 309 309 311 310 310 309 302 303 304 306 307 309 309 309 310 313 309 311 313 313 315 321 325 325 321 320
302 302 304 304 304 307 306 306 306 305 306 305 303 304 305 307 308 308 308 310 309 309 311 310 310 310 307 306 305 303 303 306 307 310 309 310 311 309 313 318 323 328 325 328 328 327 326
303 304 303 304 306 306 306 306 306 306 306 306 306 306 306 309 309 309 309 309 309 310 309 309 309 308 307 305 304 303 303 306 307 308 307 310 310 307 311 318 335 323 322 324 329 327 327
304 303 302 306 307 306 306 306 306 306 306 307 307 307 306 306 307 308 309 309 308 308 309 310 309 307 305 306 304 305 309 311 307 308 307 307 310 309 314 323 327 325 323 324 324 328 324
302 302 304 307 305 305 306 306 306 307 307 307 307 307 303 306 308 307 308 308 309 308 309 308 307 305 307 308 306 311 313 317 314 314 308 310 310 315 311 331 334 325 323 320 323 328 321
302 303 305 305 305 306 306 306 307 307 307 307 308 308 303 305 304 306 308 308 306 306 306 308 307 307 306 309 311 314 315 312 320 317 315 316 316 316 316 332 327 321 321 319 325 323 319
303 306 305 306 305 306 306 307 307 308 308 307 308 308 306 305 305 306 307 309 308 308 309 307 304 307 306 310 310 311 313 313 315 313 316 317 319 323 326 329 331 319 320 321 317 318 318
306 306 307 306 306 306 306 307 308 308 308 308 308 309 308 306 307 307 307 307 307 308 309 308 309 307 306 308 309 309 313 313 312 314 312 317 313 318 319 321 318 320 320 314 313 313 314

GFSGBSN_925_thetae_042.txt.gz
Theta_e
309 309 308 305 301 301 301 302 303 304 304 303 303 304 306 306 304 303 305 309 309 309 308 314 310 313 313 311 308 317 321 323 322 335 330 324 332 324 340 345 341 356 355 352 353 353 351
308 308 306 304 301 301 303 303 302 302 301 301 302 303 305 306 306 304 307 309 308 308 313 313 311 314 314 309 310 315 325 323 325 328 324 319 329 323 327 332 342 343 346 349 347 347 346
308 308 307 305 302 303 303 302 301 301 301 301 301 302 304 305 307 304 309 309 307 307 318 313 315 315 314 313 316 316 323 323 324 323 317 318 319 323 321 328 328 337 339 336 335 343 346
308 306 306 304 303 303 302 301 301 301 301 301 301 301 303 305 307 305 309 307 307 310 318 315 317 317 315 316 315 311 311 316 321 320 316 319 318 319 320 322 321 329 333 338 337 337 341
303 303 303 303 304 302 301 301 301 301 301 302 301 301 303 306 308 306 307 306 307 317 315 319 319 317 313 311 311 309 309 315 323 320 317 317 316 315 319 322 322 321 338 337 341 339 345
302 303 303 303 303 302 301 301 301 302 302 302 302 301 301 306 308 307 306 306 308 315 317 317 318 312 308 307 308 309 311 319 322 320 320 316 312 313 313 319 328 328 329 336 341 339 344
302 302 302 303 303 302 301 301 302 303 303 302 302 301 301 307 307 307 307 306 301 302 303 303 302 305 307 307 309 311 312 314 318 317 319 314 314 315 315 320 324 327 332 336 336 336 345
301 302 302 303 303 303 302 302 302 303 302 301 301 301 300 308 306 306 307 303 305 305 303 302 303 303 305 307 307 310 312 315 320 320 316 315 315 315 314 314 320 322 323 327 331 335 338
301 301 302 302 303 303 303 302 302 302 302 302 301 301 302 309 306 306 307 306 307 306 301 302 304 306 306 306 309 309 309 311 312 320 318 317 316 316 316 317 316 318 322 323 331 331 333
301 301 301 302 302 302 302 302 302 302 302 302 301 301 304 309 305 306 305 306 309 305 301 306 307 306 306 307 306 309 310 311 312 317 320 319 319 320 316 317 318 316 320 324 324 329 333
301 301 301 301 301 302 301 301 301 301 301 301 301 300 306 310 306 305 306 309 306 302 306 309 306 307 305 305 306 307 310 311 314 314 314 320 321 321 321 317 318 318 319 321 324 327 329
300 300 300 301 301 301 300 301 301 301 301 301 300 300 309 310 307 307 309 309 303 302 306 308 306 306 305 305 308 308 309 312 313 316 315 315 315 317 322 322 319 322 323 322 324 323 330
300 300 301 301 300 300 300 300 300 301 300 300 300 301 310 309 307 308 310 301 302 303 306 306 305 304 305 307 308 307 311 313 314 314 318 318 318 315 317 321 321 324 323 326 327 328 332
300 300 301 300 300 300 300 301 301 300 300 300 300 302 309 309 307 309 304 302 306 306 306 304 305 304 306 307 307 308 307 314 314 313 315 317 320 318 317 318 323 324 324 326 330 329 330
301 301 300 300 301 301 301 300 300 300 301 301 301 302 309 308 308 309 301 303 305 304 304 305 303 305 305 307 307 307 307 312 314 313 315 315 318 314 316 318 321 324 327 322 324 319 325
301 301 301 301 301 300 300 301 303 304 304 303 302 304 307 307 307 305 302 305 304 306 306 305 305 305 306 305 307 308 308 308 313 312 310 314 317 314 316 319 319 324 324 328 323 334 326
302 301 300 299 299 300 303 306 306 305 305 304 303 299 307 307 304 298 303 301 303 306 306 306 305 305 305 306 307 308 307 309 310 311 310 312 316 315 315 320 321 322 329 328 326 323 332
301 300 300 300 300 302 305 306 306 305 305 304 300 297 307 307 303 298 302 303 305 306 306 306 305 304 305 306 307 307 309 310 312 312 313 313 316 318 317 317 318 318 322 326 332 328 319
302 301 300 300 301 304 306 306 306 305 305 305 301 302 307 306 305 303 303 306 307 307 306 307 307 305 303 305 307 308 309 310 312 312 311 311 313 318 317 316 314 318 320 321 318 328 330
302 302 301 301 304 306 306 306 306 305 305 305 302 303 301 299 299 304 306 306 308 309 309 309 306 304 304 305 306 305 308 311 311 309 311 312 314 315 316 317 313 314 314 319 319 327 331
303 303 303 304 306 308 307 306 305 305 305 305 298 300 303 303 302 306 306 305 308 310 310 309 308 309 309 306 303 304 305 306 309 310 310 309 314 313 312 312 312 313 313 314 316 319 328
302 304 305 307 308 307 306 305 306 305 305 304 303 303 300 305 305 306 306 309 309 309 309 311 311 310 309 311 308 306 304 304 306 309 310 310 312 314 312 311 311 312 314 315 316 319 318
303 304 307 307 307 306 306 306 306 306 306 305 303 303 305 307 307 307 309 309 309 309 308 309 311 311 311 309 306 303 301 302 305 308 310 310 313 312 310 312 314 317 318 325 328 328 327
304 304 306 307 306 306 306 306 306 307 307 306 306 306 307 308 307 309 309 309 310 310 310 308 308 309 308 306 305 306 303 304 304 305 307 310 311 311 312 311 328 324 323 326 325 322 326
303 303 305 306 306 306 306 306 306 306 307 307 307 307 306 307 308 309 309 309 308 308 309 309 308 308 305 306 308 302 304 306 305 306 308 308 310 312 312 315 327 325 322 323 325 325 320
302 304 307 305 305 306 306 306 307 307 307 307 307 307 304 307 309 307 309 309 309 308 308 308 305 305 306 308 309 311 309 313 312 310 308 309 309 312 315 320 338 324 320 320 321 328 319
303 306 306 306 306 306 306 307 307 307 307 307 308 308 304 305 306 306 309 309 307 307 306 306 307 306 305 308 310 311 312 309 315 315 314 313 312 311 316 321 328 320 321 317 328 324 317
306 307 306 306 306 306 306 307 308 308 308 308 308 308 307 306 306 306 307 309 309 308 307 308 305 307 308 310 311 310 312 312 314 312 314 316 317 322 322 331 334 320 317 320 316 314 314
307 307 307 306 306 306 307 308 308 308 308 308 308 309 308 306 307 306 307 308 307 308 310 307 307 309 308 309 309 309 312 311 312 315 312 315 313 314 316 320 313 317 314 312 312 313 314

GFSGBSN_925_thetae_045.txt.gz
Theta_e
309 309 308 304 303 303 301 301 301 301 301 301 301 302 302 304 307 306 306 309 308 307 307 315 311 313 313 312 310 314 324 325 327 330 333 327 336 336 335 343 347 356 357 354 353 352 352
308 306 305 304 303 302 301 301 301 301 302 302 302 302 302 304 307 307 306 308 307 307 315 313 312 313 315 311 312 318 324 326 327 331 328 328 328 332 334 344 341 342 350 353 349 351 350
304 303 303 304 303 301 301 301 301 302 302 302 302 302 302 304 307 307 307 307 306 307 317 311 315 315 315 315 314 312 316 325 325 328 327 325 327 328 328 328 335 339 345 340 342 342 347
302 302 303 303 303 301 301 301 302 302 302 302 302 301 301 305 308 306 307 306 306 314 313 317 317 317 317 312 310 309 311 320 323 325 319 320 322 328 323 324 325 328 332 334 341 343 343
302 302 303 303 303 302 302 302 302 303 303 302 301 301 301 305 308 306 306 306 309 313 316 318 318 318 310 309 310 310 309 317 323 326 318 318 319 322 323 327 328 330 326 331 336 341 347
302 302 302 303 303 303 303 302 303 302 302 302 301 301 301 306 307 307 306 307 308 311 314 318 317 313 309 308 308 309 312 322 323 320 318 318 321 320 321 323 323 328 328 337 336 344 346
302 302 302 302 302 303 303 302 302 302 302 301 301 300 300 307 306 307 306 306 308 309 307 306 307 307 308 308 309 310 311 321 320 317 316 318 318 321 320 321 321 329 332 331 339 341 346
301 301 301 301 302 302 302 301 301 301 301 301 301 300 300 309 306 307 308 309 308 307 309 305 304 306 307 306 311 310 312 320 325 324 317 317 318 318 317 317 322 322 329 332 335 335 344
300 301 301 301 301 301 301 301 301 301 301 301 300 300 301 310 306 306 306 306 307 304 306 306 306 308 308 309 310 309 312 314 320 324 323 322 320 318 317 317 318 321 322 328 330 330 335
300 301 300 301 301 301 300 300 300 300 300 300 300 300 303 310 306 306 306 306 308 306 307 309 308 307 308 308 309 309 311 313 315 320 324 324 323 319 318 318 318 318 318 322 328 330 339
300 300 300 300 300 300 300 300 300 300 300 300 300 300 306 309 307 307 306 308 305 303 310 309 308 307 308 308 309 309 311 314 316 317 318 325 324 325 324 321 319 319 318 318 320 328 332
301 300 300 300 300 300 300 300 300 300 301 302 303 302 307 309 307 307 307 306 303 308 309 308 307 307 307 308 309 309 313 313 315 316 319 318 317 320 325 324 319 319 320 321 321 320 326
301 301 301 301 300 301 300 300 300 303 304 305 305 304 307 308 308 307 308 304 308 308 307 307 306 306 308 308 308 308 314 315 316 310 316 315 315 318 319 322 322 322 324 327 326 326 322
302 302 302 301 301 300 299 302 305 305 305 305 306 303 307 308 306 308 304 309 310 307 307 306 306 306 307 307 308 308 311 314 314 316 317 316 310 319 317 321 323 324 325 325 328 327 322
302 302 302 301 300 300 303 305 306 305 305 305 306 304 308 306 306 307 309 309 309 307 306 307 305 306 307 308 306 307 311 316 314 314 313 316 317 316 315 317 319 324 327 324 325 328 328
303 302 301 300 300 301 304 305 306 305 305 305 304 303 307 306 306 305 311 309 308 306 307 306 307 306 307 307 307 307 308 311 314 313 312 314 306 312 315 315 319 322 323 328 327 329 328
304 303 301 300 300 303 306 306 306 306 305 305 302 305 305 306 303 307 310 308 305 307 308 307 307 307 307 307 307 308 307 310 312 312 311 312 311 307 310 316 321 323 324 326 328 329 329
304 302 301 300 302 305 307 306 306 305 305 305 302 303 305 306 311 306 309 308 307 308 307 308 307 307 307 307 308 308 308 307 311 312 312 313 314 313 308 308 312 315 320 324 332 334 332
305 303 303 303 305 307 307 306 305 305 305 305 304 305 305 306 311 310 308 308 307 309 309 309 308 307 307 307 307 308 309 309 312 311 312 313 313 309 305 309 313 315 318 320 325 329 335
306 304 304 306 308 307 306 306 305 305 305 305 306 308 307 305 304 307 305 308 309 308 310 310 309 307 306 306 308 307 308 312 312 310 312 311 312 310 307 308 315 317 318 318 322 330 333
303 304 306 308 307 306 306 306 306 305 305 305 304 307 304 309 308 306 306 306 309 310 310 310 311 309 310 310 307 307 307 307 312 311 312 312 311 310 310 310 310 312 313 315 318 323 332
304 305 306 307 306 306 306 306 306 306 305 304 308 308 304 307 305 307 307 309 309 309 309 310 310 310 311 313 310 309 308 308 308 310 311 311 311 310 310 307 310 314 314 315 316 318 323
304 304 306 306 306 306 306 306 306 306 306 306 302 303 306 307 307 308 309 309 309 310 309 309 310 306 309 310 309 310 309 309 307 308 310 311 311 310 309 308 313 317 315 316 317 321 322
302 304 306 306 306 306 306 306 306 306 307 306 306 306 307 309 308 309 309 309 310 309 310 309 309 309 308 308 308 309 309 309 309 309 309 310 311 311 310 310 320 318 324 318 327 327 328
302 305 306 306 306 306 306 306 307 307 307 307 307 307 307 309 308 309 309 309 309 309 308 308 308 308 308 308 311 310 309 310 309 310 309 309 311 312 313 317 318 328 326 325 331 327 324
304 307 306 306 306 306 306 307 307 307 307 307 307 307 305 308 310 309 309 308 309 308 308 307 306 307 307 310 312 312 312 311 311 310 309 310 311 312 312 318 327 327 322 322 324 333 320
307 307 306 306 306 306 307 307 308 308 308 307 308 307 305 307 307 307 310 310 308 308 306 307 307 308 307 310 312 312 313 309 315 312 311 313 312 312 312 314 314 319 321 320 335 329 317
306 307 306 306 306 306 307 308 308 308 308 308 308 308 307 307 309 307 307 309 308 309 308 308 309 308 309 311 313 312 313 313 314 312 313 312 314 313 313 315 317 315 320 325 319 316 317
307 307 307 306 306 307 307 308 308 308 308 308 308 308 307 307 309 307 307 307 308 308 309 308 309 308 309 309 310 310 312 312 314 316 311 316 311 314 313 315 309 313 315 315 315 315 315

GFSGBSN_925_thetae_048.txt.gz
Theta_e
305 303 304 303 302 301 301 301 302 302 302 302 302 302 302 302 307 308 306 307 307 306 310 314 312 311 317 318 314 316 326 331 322 331 335 333 335 334 334 336 339 347 351 354 351 352 351
304 303 304 304 302 301 301 302 302 303 302 302 302 302 302 302 308 308 306 307 306 306 314 312 312 313 319 316 316 316 324 325 324 332 333 330 332 330 330 331 334 336 341 353 352 353 352
302 302 303 304 303 303 303 303 303 302 302 302 302 302 301 302 308 306 306 306 306 309 311 314 316 318 317 314 314 314 319 325 326 327 331 326 326 329 326 330 332 334 342 341 347 349 352
302 302 303 303 303 303 303 303 302 302 301 301 301 301 301 302 308 306 306 306 307 311 313 314 317 321 316 313 314 313 316 324 326 328 326 326 325 327 325 326 324 329 330 339 342 345 348
302 302 302 302 303 303 303 302 302 301 301 301 301 301 301 305 307 307 307 307 311 308 313 317 321 319 314 312 313 313 313 323 324 324 323 324 325 328 328 325 324 325 328 332 341 345 349
301 301 301 301 302 302 302 301 301 301 301 301 301 300 301 306 306 307 307 308 306 318 317 319 317 317 312 312 311 314 318 324 325 327 320 321 324 324 325 325 326 326 326 331 335 345 350
301 301 301 301 301 301 301 300 300 301 301 301 300 300 300 308 306 307 309 311 318 314 312 311 312 312 311 312 311 316 318 323 324 328 325 320 323 324 323 324 324 326 329 330 336 341 350
300 300 300 301 301 301 300 300 300 300 300 300 300 301 301 309 306 308 310 312 311 310 313 309 310 311 310 311 314 314 319 325 322 325 323 321 321 322 323 322 323 323 330 334 334 337 345
301 300 300 300 301 300 300 300 300 300 300 302 304 303 302 309 307 309 310 310 310 309 313 310 311 311 311 312 312 311 315 319 326 323 322 323 323 321 320 321 322 323 323 326 333 335 336
301 301 301 301 301 301 301 300 300 301 304 305 306 306 303 308 308 309 310 309 310 309 314 312 312 310 311 312 312 310 312 316 320 326 325 322 322 322 321 321 321 322 322 322 324 331 340
302 302 301 302 301 301 300 300 302 305 305 306 306 307 303 309 311 311 310 310 308 308 312 312 311 309 311 312 311 311 312 314 318 320 325 326 325 325 325 323 322 323 322 321 321 323 333
304 303 302 302 301 300 299 302 305 305 305 306 307 307 303 312 311 310 310 309 307 313 312 311 310 310 311 311 311 311 313 314 316 315 321 323 323 323 325 325 324 323 323 322 322 322 323
305 304 303 302 300 299 301 305 305 306 305 306 307 305 305 309 312 310 310 309 312 312 311 311 310 310 310 311 311 310 314 314 315 313 317 319 320 323 323 326 327 325 325 328 327 325 323
307 305 303 301 300 300 304 305 306 306 306 306 307 305 308 309 309 309 311 313 312 312 311 309 309 309 311 310 311 310 312 314 314 315 315 315 316 318 320 323 327 326 326 331 333 328 324
308 305 303 301 300 301 305 306 307 306 306 306 307 309 310 309 308 310 313 313 312 312 310 310 310 311 312 310 310 310 311 313 313 314 314 315 314 318 318 321 324 327 328 327 330 330 330
307 304 303 301 301 304 307 307 306 306 306 306 307 310 308 308 307 310 313 311 312 310 310 310 312 311 312 311 311 311 310 313 312 311 311 315 311 312 314 315 320 325 326 329 328 333 334
307 304 304 304 305 307 307 307 306 305 306 307 308 312 308 308 306 313 314 315 312 310 310 311 312 312 311 311 311 312 311 311 312 312 311 312 311 312 310 311 316 322 325 326 328 329 333
307 304 305 307 308 307 307 306 306 305 305 309 310 310 308 310 315 314 315 312 307 311 310 310 310 311 311 311 311 312 311 310 311 311 311 312 313 315 311 310 311 313 322 325 329 331 331
307 304 306 308 308 306 306 306 306 306 305 308 312 310 309 312 317 315 312 312 311 311 312 312 311 311 311 311 311 310 310 308 310 310 310 312 312 313 310 310 311 312 314 320 324 328 332
303 306 308 307 307 306 306 306 306 306 305 308 312 315 313 311 310 310 310 311 312 310 311 312 312 312 311 311 310 310 309 309 310 310 311 309 309 311 311 311 310 314 316 318 323 327 329
305 307 307 307 306 306 306 306 306 306 305 308 312 312 310 312 310 310 309 310 310 311 310 310 312 312 313 314 312 310 309 309 310 310 312 312 315 311 310 310 310 310 309 314 320 323 327
304 307 307 306 306 306 307 307 306 306 306 310 313 312 308 308 308 310 310 311 311 311 310 310 311 311 312 315 313 312 311 311 310 312 311 312 314 311 311 310 310 309 308 309 312 317 321
304 306 307 306 307 307 307 306 306 306 307 309 306 305 308 307 309 311 311 311 311 310 310 310 310 311 310 311 310 311 311 312 313 312 313 313 314 313 311 309 308 309 309 311 311 315 319
303 307 306 306 306 307 307 307 307 306 307 308 306 307 310 312 311 311 311 311 310 311 310 310 309 311 310 309 310 310 311 312 312 311 310 313 314 314 312 309 312 310 310 311 313 314 318
305 307 306 306 306 307 307 307 307 307 307 309 307 308 309 312 310 310 311 310 310 309 309 310 309 309 309 310 312 314 312 311 312 311 310 311 313 313 314 312 311 311 313 318 314 316 318
307 307 306 306 307 307 307 308 308 308 307 309 310 308 307 311 311 310 310 311 310 310 312 310 309 309 309 311 313 315 316 314 313 312 310 310 313 315 313 313 314 315 311 310 321 325 328
307 307 306 306 307 307 307 308 308 308 308 310 311 309 307 312 311 311 311 311 309 310 310 311 311 310 309 312 314 316 315 314 314 315 313 315 316 315 313 313 312 310 310 310 326 331 325
308 307 307 306 307 307 308 308 308 308 308 310 311 308 309 311 311 310 310 311 310 311 311 310 312 311 310 313 315 315 315 314 313 313 313 313 314 314 313 314 314 311 310 318 325 319 318
308 308 307 307 307 308 308 308 308 308 308 309 311 307 308 308 313 311 310 310 310 310 311 311 311 311 310 310 311 311 314 314 314 317 309 314 312 315 313 315 312 307 308 316 316 318 317

GFSGBSN_925_thetae_051.txt.gz
Theta_e
303 303 304 304 303 303 303 303 303 302 302 302 302 302 301 301 304 308 307 306 307 306 307 314 313 311 318 323 319 318 325 326 325 324 336 337 336 338 336 336 341 347 347 352 353 353 353
302 303 303 304 304 303 303 303 302 302 302 302 302 302 301 301 306 307 306 306 306 306 310 313 311 311 324 322 317 317 325 330 328 323 333 334 334 335 334 334 337 338 342 351 354 352 352
302 302 302 303 303 303 303 303 302 301 301 301 301 301 301 301 307 306 306 306 306 309 310 313 315 319 323 318 316 317 324 325 323 326 334 333 331 333 331 331 330 334 339 340 353 353 356
302 302 302 302 302 302 302 301 301 301 301 301 301 301 301 301 307 306 307 307 309 308 311 314 316 325 320 315 316 316 320 326 327 330 333 329 329 329 331 329 327 332 336 346 348 351 351
301 301 301 301 301 301 301 301 300 301 301 301 300 301 301 301 308 307 307 308 310 309 311 316 325 327 318 314 316 316 317 326 328 329 328 329 328 328 329 328 329 326 333 337 340 348 350
300 301 301 301 301 301 301 300 300 300 300 300 301 302 302 302 307 307 308 307 314 312 321 321 320 320 315 316 315 317 319 324 327 329 327 329 328 329 329 330 328 326 328 332 337 346 349
301 301 301 301 301 301 300 300 300 300 300 303 305 306 303 304 307 308 311 315 323 322 316 316 317 316 315 315 315 319 324 326 328 329 326 326 328 328 330 330 328 327 327 330 334 340 349
302 301 301 300 301 301 301 301 300 301 305 306 306 307 306 305 308 307 311 316 314 314 316 313 313 314 314 315 316 319 322 326 325 331 328 325 325 326 326 326 326 326 327 331 332 338 349
306 302 302 302 302 301 301 300 301 305 306 306 306 307 308 306 307 310 313 312 312 313 316 314 314 314 314 315 316 315 319 324 326 327 330 329 326 324 325 326 326 326 327 329 335 337 340
308 305 303 303 302 301 300 301 305 306 306 306 307 307 308 307 308 312 314 313 313 313 317 315 313 314 314 315 315 313 315 320 323 326 323 325 325 325 325 324 326 327 326 325 328 337 343
310 306 303 303 301 300 300 304 306 306 306 306 307 307 307 306 313 314 313 313 312 313 315 315 314 312 313 314 315 314 313 317 320 322 327 327 324 324 325 325 324 326 326 325 324 327 333
312 307 304 303 301 300 301 305 306 307 307 307 307 307 303 313 313 313 313 313 312 315 315 314 313 313 314 314 314 314 314 315 318 320 322 325 326 325 325 325 325 325 325 326 325 324 326
313 307 305 302 300 300 303 306 307 307 307 307 307 304 304 312 315 313 313 314 315 313 316 315 314 313 314 315 314 314 316 316 316 315 316 319 322 325 325 326 326 326 327 330 330 327 326
311 307 304 302 300 302 306 307 307 307 307 307 307 308 309 310 311 312 314 316 316 315 315 314 313 313 313 314 315 314 314 316 317 317 318 318 319 319 323 324 327 328 328 330 334 332 328
310 306 303 302 302 306 308 308 307 306 306 307 309 312 313 311 311 312 316 317 316 316 314 313 313 313 314 314 313 314 315 315 317 316 317 316 318 320 322 322 325 328 330 328 329 331 333
309 305 303 305 307 308 307 307 307 306 306 307 312 313 311 311 311 312 316 316 315 314 313 313 314 316 316 316 314 315 316 316 316 314 314 317 320 319 318 320 321 325 328 330 329 332 335
308 305 304 307 308 307 307 307 307 306 306 310 313 316 312 313 312 316 318 319 317 315 313 315 316 316 316 316 315 316 316 315 314 314 313 314 316 316 315 317 317 318 322 327 329 329 331
305 304 307 308 307 307 307 307 307 306 306 313 316 317 313 314 319 318 321 317 310 315 314 314 314 315 315 316 316 315 315 316 314 314 314 313 314 316 315 315 315 315 318 320 327 333 332
304 306 308 307 307 307 307 307 307 306 306 310 318 317 314 315 320 319 317 316 314 315 315 315 315 315 314 314 315 315 315 314 312 312 313 314 315 315 316 316 315 313 315 321 324 325 332
305 306 307 307 307 307 307 307 307 306 306 309 317 320 318 315 314 316 316 315 315 313 314 314 314 314 314 315 314 315 313 312 311 312 312 311 314 316 317 317 314 316 313 315 320 325 327
304 307 307 307 307 307 307 307 307 306 307 310 316 316 314 317 315 315 314 314 314 314 313 313 313 313 314 316 315 315 314 313 312 312 312 312 313 314 314 313 313 313 314 315 317 319 322
304 307 307 307 307 307 307 307 307 307 310 313 316 315 313 314 313 314 313 313 312 312 312 313 313 313 313 314 314 316 315 317 315 312 312 312 315 314 317 314 312 312 312 313 312 313 319
305 307 307 307 307 307 307 307 307 307 311 312 310 310 314 309 313 313 312 312 312 312 312 312 311 312 313 313 312 313 313 313 315 316 316 315 315 316 317 315 313 313 313 312 312 312 312
306 307 307 307 307 307 307 307 307 307 311 311 310 311 315 315 314 313 312 312 312 312 312 311 311 311 312 310 311 312 312 312 313 313 313 316 318 320 319 314 316 313 312 311 311 312 313
307 307 307 307 307 307 307 308 308 307 309 311 311 312 313 315 312 312 312 312 312 312 312 312 310 310 310 312 314 315 314 313 314 313 313 313 318 320 320 317 313 311 311 310 317 316 317
308 308 307 307 307 307 307 308 308 308 308 312 312 310 311 316 315 313 313 313 313 314 314 312 312 311 312 313 314 316 317 318 315 315 313 313 315 318 317 316 316 313 312 315 314 319 315
308 308 307 307 307 308 308 308 308 308 309 312 311 312 312 316 314 313 314 313 311 313 312 314 313 313 311 313 315 319 317 316 317 316 316 316 319 319 320 317 315 312 312 312 315 316 319
308 308 307 307 308 308 308 308 308 308 308 312 313 312 313 317 315 313 312 313 313 313 315 314 315 314 312 315 316 317 317 317 314 314 317 316 317 318 316 317 318 314 313 314 315 313 310
308 309 307 307 308 308 308 308 308 308 308 310 313 311 311 311 316 314 313 312 312 312 314 313 315 313 311 312 312 311 314 314 314 317 312 317 316 317 317 316 315 313 311 311 308 311 312

GFSGBSN_925_thetae_054.txt.gz
Theta_e
302 303 303 303 303 303 303 303 302 301 301 301 301 301 301 301 302 307 307 306 306 306 306 308 314 311 316 324 326 320 322 322 321 322 328 340 340 340 341 340 340 343 345 346 351 354 356
302 302 302 303 302 302 302 301 301 301 301 301 301 301 301 301 302 307 306 307 306 306 308 312 311 312 320 330 318 318 322 331 325 320 327 340 339 337 337 337 336 340 343 344 349 353 354
302 302 302 302 302 301 301 301 301 301 301 301 301 301 302 302 302 307 307 307 307 309 310 310 315 317 328 327 317 318 322 328 326 322 327 336 336 335 335 334 333 333 338 338 342 354 354
301 301 301 301 301 301 301 300 300 300 301 300 301 303 304 303 302 307 307 308 308 308 311 314 315 323 332 316 317 317 321 327 327 324 325 334 334 333 334 333 330 330 333 338 340 353 354
302 301 301 301 301 301 301 300 300 300 300 302 305 306 307 306 303 307 307 308 307 308 310 313 324 326 329 316 317 317 318 326 326 326 330 334 332 332 330 333 331 329 330 336 339 346 353
305 303 302 302 301 301 301 301 300 300 304 306 306 307 308 308 305 307 308 311 312 311 320 321 321 323 321 317 317 318 319 326 328 330 332 333 332 330 330 331 333 330 328 331 336 338 349
310 305 303 302 302 302 301 300 300 303 306 306 307 307 308 308 306 308 307 316 321 325 320 322 321 320 317 317 316 320 322 322 327 331 331 331 332 332 331 329 331 329 328 327 331 334 349
316 309 305 303 302 302 301 300 302 306 306 307 307 307 308 308 306 308 308 318 315 315 317 319 316 315 315 316 317 321 324 327 328 333 328 328 331 331 327 330 330 331 330 328 329 332 342
317 310 306 304 303 301 300 300 305 306 306 307 307 307 308 308 306 308 314 315 314 315 316 317 316 315 316 316 317 317 319 325 327 327 330 327 327 326 327 327 329 328 329 328 329 332 337
316 312 307 305 302 301 300 302 306 306 307 307 307 308 307 307 310 315 315 314 315 315 317 318 315 315 315 315 316 317 316 320 323 326 326 329 328 327 325 327 327 328 327 327 327 330 337
316 313 307 305 302 301 300 304 306 307 307 307 307 307 307 303 309 316 315 314 314 315 319 316 316 314 316 315 316 316 315 317 319 323 326 326 327 328 327 326 326 327 328 328 327 327 331
315 312 307 304 302 300 302 306 307 307 307 307 307 307 305 310 311 314 313 314 314 316 316 316 316 314 314 315 316 316 315 316 318 319 321 323 326 325 325 325 325 326 326 327 328 326 327
313 310 305 303 302 302 306 307 307 307 307 307 307 306 304 309 317 315 313 316 316 316 318 317 315 314 315 316 316 315 316 316 315 316 317 321 323 326 327 325 325 326 326 328 329 329 327
311 307 304 302 304 306 307 307 307 307 307 307 309 308 312 311 312 312 313 317 318 318 317 316 314 314 314 316 315 315 315 316 318 317 318 319 317 320 325 327 326 326 326 328 331 330 329
310 306 303 304 306 307 307 308 307 307 307 307 310 314 314 314 312 312 316 319 318 317 316 315 315 313 313 314 315 316 316 316 317 318 317 317 319 321 320 324 325 327 330 327 328 329 330
308 305 304 307 307 307 308 307 307 307 307 308 310 316 314 314 312 313 317 317 318 316 316 315 315 315 317 317 316 316 316 317 316 318 317 318 319 320 321 322 323 324 326 329 329 333 336
304 305 307 307 307 307 307 307 307 307 307 311 314 320 316 316 315 317 319 321 320 317 316 316 317 318 318 318 318 318 317 317 316 316 315 315 316 317 320 320 320 321 322 325 329 331 333
305 306 308 308 308 308 307 307 307 307 307 314 319 320 317 316 320 321 322 319 311 318 317 317 316 317 317 317 318 318 318 317 316 315 316 316 314 317 317 318 319 318 319 318 321 333 332
305 306 308 308 308 308 308 308 308 307 306 310 321 319 317 318 322 322 319 318 316 316 317 316 317 317 317 317 317 317 317 316 315 314 316 316 316 316 317 317 317 316 316 316 317 319 327
304 305 308 308 308 308 308 308 307 307 307 310 321 322 320 317 317 318 319 317 317 315 316 315 315 315 316 316 316 317 318 316 315 313 315 313 315 317 318 318 317 318 317 316 316 321 323
304 307 308 308 308 308 308 308 308 309 311 312 318 318 316 318 317 317 317 316 316 315 314 314 315 315 315 315 316 316 315 317 316 315 313 313 314 315 315 315 315 316 316 316 316 316 322
305 307 308 308 308 308 308 308 308 311 313 315 317 318 316 315 315 316 314 315 314 314 314 314 314 313 313 314 314 315 314 315 316 317 315 313 314 315 316 315 316 316 315 315 316 315 316
305 308 308 308 308 308 308 308 308 311 312 314 314 314 316 313 315 315 315 314 314 314 314 313 313 313 313 313 312 312 312 313 314 314 318 316 316 316 317 314 316 317 317 315 315 316 316
305 308 308 308 308 308 308 308 308 311 312 313 313 315 319 316 315 315 314 313 314 313 314 313 314 312 312 312 312 312 312 312 312 313 314 315 318 320 320 317 322 317 316 316 314 315 315
305 308 308 307 308 307 308 308 308 309 313 315 313 314 316 317 315 315 314 314 315 314 314 313 313 312 312 313 315 316 315 315 314 313 312 313 316 320 321 319 316 314 315 315 317 315 314
307 308 308 307 308 308 308 308 308 308 312 314 312 313 316 320 317 314 315 314 315 315 315 314 313 313 313 313 315 317 319 317 316 314 315 314 315 321 320 319 317 314 313 314 314 316 314
309 308 308 308 308 308 308 308 308 308 311 313 315 314 316 320 316 315 316 316 314 314 315 314 314 314 313 313 316 319 318 316 318 316 316 318 320 322 321 320 315 313 313 314 315 314 317
309 308 309 308 308 308 308 308 308 308 310 313 315 314 316 320 316 315 315 316 315 315 317 315 316 315 314 315 315 315 315 315 315 314 317 316 322 320 321 320 319 316 316 317 316 316 315
309 308 310 308 308 308 309 309 308 308 309 311 316 315 314 315 318 316 316 313 314 314 315 315 316 315 314 314 314 313 315 314 315 317 312 318 314 314 315 318 314 313 314 313 313 313 313

GFSGBSN_925_thetae_057.txt.gz
Theta_e
302 302 302 302 302 302 301 301 301 301 301 301 301 301 302 302 303 302 307 306 307 306 306 306 311 312 316 321 321 319 321 318 317 316 319 325 338 338 341 341 340 343 343 343 349 353 361
301 301 301 301 301 301 301 300 300 300 301 301 301 303 305 305 305 303 306 306 307 308 310 312 310 311 316 327 319 320 322 323 323 323 321 326 339 338 338 339 338 338 339 339 342 356 360
303 302 301 301 301 301 300 300 301 301 300 301 304 306 307 307 307 304 306 306 307 309 309 309 315 316 324 328 319 318 318 330 326 323 319 326 335 340 335 335 334 332 332 332 336 348 357
310 305 303 302 301 301 301 301 301 300 301 305 307 307 307 308 308 306 307 307 307 308 310 314 316 321 329 323 317 318 318 323 329 325 320 326 333 336 332 332 333 329 327 330 333 343 351
318 311 306 303 302 302 302 301 300 300 305 306 307 307 307 308 308 307 307 307 308 310 309 314 320 322 328 317 316 317 318 322 328 327 322 322 327 333 331 330 331 331 326 328 330 333 353
319 314 308 306 303 303 302 300 300 304 306 307 307 307 307 307 308 308 307 309 312 314 315 321 321 322 323 320 317 318 318 318 325 323 324 324 331 330 329 326 331 332 327 325 327 333 352
319 317 311 306 304 303 301 300 301 306 306 307 307 307 307 307 308 308 307 309 318 318 316 322 323 322 320 317 316 317 320 320 326 327 330 331 333 332 328 327 327 329 330 328 326 328 346
318 317 312 307 305 302 301 300 303 306 307 307 308 308 307 307 307 307 307 312 314 314 314 317 320 319 316 316 316 320 323 319 326 328 329 329 332 331 330 329 329 327 328 328 329 327 330
318 316 312 307 304 301 300 301 305 306 307 307 308 307 307 307 307 309 310 314 314 315 314 315 314 315 313 314 315 318 321 324 326 327 331 327 328 329 330 330 327 327 327 328 328 327 336
317 314 311 306 303 301 300 302 306 307 307 308 307 307 307 307 309 310 313 315 314 315 313 317 314 315 315 315 314 317 316 317 321 326 326 326 327 327 327 328 326 324 326 327 326 325 326
316 313 308 305 302 301 303 306 307 307 308 308 307 307 307 305 305 310 315 314 314 314 318 316 314 314 315 313 316 315 315 314 315 318 321 324 324 327 328 326 324 324 326 325 326 324 323
313 310 306 302 302 305 308 307 308 308 307 307 307 308 306 312 310 315 316 313 314 314 318 316 315 314 313 313 314 315 315 314 315 315 316 318 320 323 326 327 325 325 324 323 323 323 325
311 308 304 303 305 308 307 308 308 307 307 307 308 309 307 305 314 313 312 313 315 315 317 315 314 313 313 314 315 315 315 314 313 314 315 318 320 321 322 324 322 323 322 322 324 324 326
307 307 305 306 309 308 308 307 307 307 307 307 309 310 309 311 312 313 312 314 319 318 315 315 314 314 314 315 315 315 314 313 315 313 313 315 315 315 321 324 326 322 320 322 326 327 326
305 305 306 308 308 308 308 308 308 307 307 307 310 314 315 316 314 312 312 317 318 316 316 315 314 313 314 313 314 315 316 314 315 315 316 316 317 318 319 322 325 325 325 321 322 323 325
306 305 306 308 308 308 308 308 308 308 308 309 311 315 318 315 313 312 315 317 318 316 316 316 317 316 317 317 315 315 315 315 317 316 314 315 314 316 317 319 323 323 323 322 322 326 328
305 305 307 309 308 308 309 309 308 307 308 313 315 320 317 317 316 316 318 321 319 317 317 316 317 317 317 317 317 318 318 316 316 316 314 315 313 313 314 317 319 321 320 321 321 325 328
305 305 308 309 308 309 309 308 308 307 308 312 317 323 317 317 320 322 321 318 315 317 317 317 317 317 317 317 317 317 317 317 316 315 315 314 313 312 313 314 315 315 318 317 318 322 326
306 306 308 309 309 309 309 308 308 308 308 309 318 321 317 318 320 320 319 316 315 315 315 315 316 315 315 316 317 318 317 316 315 314 315 312 313 314 313 313 315 316 315 313 312 311 314
305 306 308 309 309 309 308 308 308 309 310 310 319 322 318 317 316 316 318 317 316 314 314 314 315 315 314 314 314 317 317 316 316 315 316 313 312 313 314 315 314 315 315 315 313 310 312
305 307 308 309 308 309 308 308 309 311 312 313 320 316 316 317 316 316 315 314 313 313 313 313 315 313 312 313 313 314 314 315 315 317 315 312 312 312 312 313 313 314 314 315 314 313 314
305 307 308 308 308 308 308 308 310 312 314 315 316 318 316 315 316 315 314 315 314 314 315 313 314 313 313 313 313 313 312 312 313 314 314 314 315 312 313 313 313 314 315 316 316 315 314
306 308 308 308 308 308 308 308 310 313 315 315 316 316 317 314 315 314 314 314 314 314 313 312 314 314 314 313 312 311 310 309 310 311 314 316 316 317 316 314 315 316 314 315 315 316 313
307 308 309 308 308 308 309 308 310 312 313 314 314 316 319 316 314 315 314 314 314 313 314 313 313 314 313 311 312 311 312 311 311 310 309 313 316 318 316 316 318 316 314 315 316 316 315
307 309 309 308 308 308 308 308 309 312 314 314 314 315 318 318 316 315 315 315 315 314 314 314 313 313 312 312 314 315 316 317 316 314 314 313 313 316 314 316 315 314 313 313 314 315 315
306 309 310 308 309 309 309 308 309 312 314 316 314 315 317 321 316 315 317 315 315 314 315 315 313 313 311 312 316 317 319 316 315 314 312 313 315 319 318 316 316 312 312 312 312 313 313
306 309 310 309 309 309 309 309 308 309 313 315 316 315 317 322 316 316 315 316 315 315 316 315 315 314 311 313 314 314 316 313 313 314 314 313 315 317 319 322 319 314 313 315 317 316 315
306 309 310 309 309 309 309 309 309 308 310 314 317 315 316 319 317 316 315 316 316 315 318 315 317 315 313 313 312 312 312 312 312 311 312 313 315 318 317 320 317 311 312 316 313 310 310
306 309 309 310 310 309 309 309 309 309 309 313 317 316 315 316 318 317 317 315 314 314 315 314 316 315 313 314 312 312 312 312 313 313 312 312 313 312 311 313 310 310 309 308 308 308 308

GFSGBSN_925_thetae_060.txt.gz
Theta_e
306 304 303 302 302 301 301 301 301 301 300 301 303 305 306 307 307 307 306 305 306 306 308 310 311 312 316 320 315 323 320 320 317 316 317 320 329 334 334 339 342 341 343 345 346 357 354
314 309 305 303 302 302 302 302 301 301 300 303 306 307 307 307 307 308 308 306 306 306 308 309 309 312 315 325 325 319 321 319 317 316 320 318 329 335 337 337 339 339 338 337 358 356 354
320 315 310 306 304 303 302 302 301 300 302 306 307 307 307 307 307 308 308 306 307 307 308 311 315 316 320 321 320 319 322 324 319 317 318 318 322 330 337 336 335 336 335 328 346 360 360
320 319 315 309 306 304 303 301 300 300 305 306 307 307 307 307 307 307 308 307 307 307 308 311 315 320 321 326 322 321 322 327 325 323 318 317 321 327 336 335 331 330 326 326 333 359 358
320 319 317 311 307 305 303 301 300 303 306 307 307 307 307 307 307 307 307 307 308 309 309 311 318 320 324 321 317 316 317 317 327 324 322 319 321 325 330 330 326 326 331 329 326 337 358
321 319 317 312 307 305 302 300 300 304 306 307 307 308 307 307 307 307 307 308 311 313 313 320 321 320 319 321 316 317 317 319 326 324 323 321 319 323 326 325 329 331 331 325 325 325 353
320 318 316 312 307 303 301 300 302 306 307 307 307 308 307 307 307 306 307 308 310 314 318 317 319 319 318 319 316 316 319 318 323 321 322 324 327 331 330 326 326 327 327 327 327 327 331
319 317 314 310 305 302 300 301 305 307 307 307 307 307 307 307 307 307 308 309 312 312 311 313 317 318 319 318 314 315 318 318 324 326 326 327 330 329 329 327 327 328 327 326 326 326 329
317 315 313 307 303 301 302 305 307 307 307 307 307 307 307 308 306 312 308 312 315 315 311 312 313 314 315 313 313 315 319 319 324 325 327 328 328 329 331 330 330 327 326 326 326 326 352
315 312 308 304 302 303 307 307 308 307 307 307 307 307 308 306 311 306 311 315 314 312 308 312 313 313 312 312 312 315 315 316 319 324 325 327 328 327 328 329 327 326 323 325 327 323 329
309 306 304 303 304 307 307 307 307 307 307 307 307 308 308 308 307 308 314 313 312 311 317 315 312 313 312 310 313 313 314 313 314 315 317 321 323 326 327 326 325 326 324 323 323 323 321
305 306 305 306 308 308 307 308 308 308 308 308 308 309 309 309 308 314 312 312 312 310 317 314 312 312 311 312 313 314 314 313 313 313 314 314 316 319 321 324 325 324 322 320 318 319 321
306 306 306 307 308 308 308 308 308 308 308 309 310 310 310 307 310 312 312 308 311 312 313 313 312 311 311 311 312 313 313 313 310 311 311 313 315 316 320 320 320 321 317 319 321 320 321
306 305 306 308 309 308 308 309 308 308 308 310 311 312 313 311 310 311 311 309 316 315 314 313 312 310 311 312 312 314 313 311 312 311 309 311 313 314 315 320 323 321 316 319 323 323 322
306 306 306 308 309 308 309 309 308 308 309 310 314 313 315 314 314 315 306 312 314 314 315 315 312 311 313 314 312 313 313 312 314 312 311 313 315 315 316 314 320 323 322 316 318 319 321
305 306 308 309 309 309 309 308 308 308 311 312 315 315 316 316 313 311 308 318 315 315 315 313 314 314 314 314 314 313 312 314 314 313 311 313 313 312 314 313 316 322 320 322 317 322 324
306 306 308 309 309 309 308 308 308 309 312 314 317 315 317 316 315 308 315 318 316 314 315 314 314 314 314 314 314 314 314 314 314 314 310 310 309 311 311 310 312 311 313 317 316 319 323
306 306 308 309 309 309 309 308 308 310 311 313 313 315 315 317 314 312 311 313 313 312 312 312 313 313 314 313 314 315 315 315 314 313 314 310 308 311 312 311 312 312 311 309 315 319 318
307 307 308 309 309 309 308 308 309 311 311 310 312 314 316 315 312 311 312 313 312 312 312 312 313 312 311 312 314 315 315 315 314 313 314 310 309 311 311 309 310 312 312 311 307 306 310
307 307 308 309 309 308 308 309 312 313 313 312 312 312 310 308 308 311 311 311 312 312 312 311 311 309 309 309 309 312 312 313 313 316 319 310 307 310 311 312 311 312 312 312 308 307 309
307 307 309 309 309 308 308 309 313 314 314 314 309 311 310 312 311 310 311 312 313 313 311 310 312 311 309 309 309 311 310 309 311 314 311 308 309 310 310 311 312 312 313 313 313 312 312
307 308 309 309 308 308 308 310 313 314 315 314 310 311 309 308 310 311 310 311 313 313 312 312 313 312 310 311 312 312 309 308 310 307 310 309 313 312 313 313 313 314 314 314 313 313 314
306 308 309 309 308 309 308 310 313 314 314 314 314 314 308 309 310 310 311 312 313 312 311 312 313 312 312 312 311 309 307 306 306 308 307 311 312 312 314 313 313 313 313 313 313 313 313
306 308 309 310 309 309 308 309 312 314 314 313 314 313 309 311 311 312 313 314 314 312 312 312 311 312 311 309 308 308 308 308 308 308 303 309 311 311 313 313 314 310 311 312 312 313 313
306 308 309 310 309 309 308 309 312 313 315 314 315 314 311 311 312 314 313 313 310 311 313 314 313 311 307 307 309 310 310 310 312 310 308 307 308 310 315 310 311 312 312 314 314 312 316
305 308 309 311 310 309 309 308 309 312 315 315 315 315 313 312 312 315 313 312 310 311 311 314 311 310 307 307 308 312 313 312 311 311 307 308 309 311 314 315 314 313 310 311 313 311 311
305 308 309 311 310 309 309 309 308 310 312 315 316 315 316 315 310 312 312 312 311 310 310 312 313 311 306 305 311 311 313 310 306 311 311 309 310 311 316 317 316 309 310 312 314 312 309
305 308 309 311 310 310 309 309 309 309 312 315 317 315 314 311 312 314 313 313 313 309 311 310 309 308 307 306 309 309 310 310 309 309 310 311 309 312 310 315 316 309 310 311 309 307 307
305 308 309 310 311 310 310 310 309 309 309 311 316 316 316 313 312 316 317 317 313 312 309 309 308 309 307 308 308 304 309 310 309 310 311 309 307 307 311 308 307 306 307 305 306 306 305

GFSGBSN_925_thetae_063.txt.gz
Theta_e
320 319 316 309 306 305 303 303 302 300 300 304 307 307 307 307 307 307 307 308 307 306 306 309 310 310 314 319 314 323 312 314 317 317 317 316 326 329 334 336 339 344 344 342 342 347 352
320 320 319 313 308 306 304 303 301 300 302 306 307 307 307 307 307 307 307 307 307 306 306 310 309 309 315 316 323 321 316 318 318 318 317 320 324 329 334 334 338 339 341 339 345 353 351
321 320 319 316 310 306 305 302 300 300 305 307 307 307 307 307 307 307 306 307 307 306 306 310 316 317 318 313 322 320 320 320 319 317 317 316 324 330 335 340 335 336 339 334 356 353 356
322 320 318 317 312 307 305 302 300 302 305 307 307 307 307 307 307 306 306 307 307 307 307 311 314 320 321 320 324 321 321 323 319 317 317 317 319 324 332 333 330 328 325 327 354 356 358
321 320 318 315 310 307 302 301 301 304 306 307 307 307 307 307 306 307 306 307 308 309 308 314 318 320 323 322 324 322 320 325 323 322 318 318 319 323 326 331 326 324 331 330 339 358 359
319 318 317 314 308 303 301 301 303 306 307 307 307 307 306 306 307 307 306 308 311 311 317 319 320 319 317 320 316 315 316 322 326 321 321 320 317 319 322 326 334 330 331 327 326 355 357
317 315 315 309 304 301 302 304 307 307 307 306 306 306 306 307 308 305 307 310 307 310 319 314 313 316 318 318 314 316 315 323 321 322 323 319 320 323 325 326 328 327 327 327 326 325 326
315 313 306 304 302 303 306 307 307 307 307 307 307 306 307 308 307 307 308 307 311 310 309 312 316 317 318 318 315 314 317 317 322 323 322 324 326 326 329 327 326 327 327 327 325 325 324
306 305 305 304 305 307 307 307 307 308 308 308 307 307 308 309 307 310 306 312 312 311 309 310 312 313 313 316 314 313 315 317 323 325 325 326 328 328 330 331 330 327 326 326 326 325 354
306 306 306 306 307 308 308 308 308 308 309 308 308 308 309 308 309 308 309 312 311 311 307 310 312 313 312 311 312 313 318 317 317 324 324 326 326 328 327 329 328 328 325 327 325 323 322
306 306 306 307 308 309 308 308 309 309 308 308 309 309 309 308 310 309 312 312 312 309 315 314 311 312 309 310 312 313 313 313 315 316 320 325 322 328 327 325 325 326 325 323 323 321 320
306 306 306 307 309 310 308 309 309 308 308 309 310 311 311 308 307 312 310 312 311 309 315 313 312 311 310 311 312 313 313 311 311 312 312 313 314 318 321 323 323 324 324 318 315 315 319
306 306 307 309 311 309 309 309 308 308 309 311 312 312 311 307 309 309 312 307 309 312 312 313 312 311 310 311 312 313 313 312 310 311 311 312 314 315 318 319 318 319 316 320 320 319 320
306 306 308 310 310 310 309 309 308 309 311 313 314 312 314 312 311 313 310 308 314 315 314 312 311 308 311 310 311 312 310 309 311 310 307 309 312 314 315 317 319 317 316 317 322 320 321
306 306 309 311 310 310 309 309 308 310 312 313 315 314 315 315 315 314 307 311 313 313 314 313 313 312 313 313 312 311 312 312 312 310 310 312 314 312 314 313 315 320 320 315 315 316 319
306 306 308 310 309 309 308 308 309 312 313 314 317 317 315 315 314 311 312 316 313 312 312 312 313 313 314 313 314 312 312 312 313 311 309 311 314 311 312 312 311 314 317 320 315 320 322
306 307 309 309 309 309 308 309 311 313 313 316 317 311 315 315 313 308 313 313 313 312 313 312 313 313 313 313 313 312 314 314 313 313 309 309 309 311 310 310 311 310 310 309 314 315 319
306 307 309 309 309 308 308 310 312 313 314 315 313 312 314 313 309 306 308 310 311 311 310 311 311 311 312 310 312 314 316 314 314 311 313 309 306 311 311 309 311 311 310 307 312 316 314
306 307 309 309 309 308 309 311 313 314 314 313 312 312 314 313 311 309 310 311 311 311 310 311 310 309 308 309 312 312 314 312 314 315 317 311 307 309 310 308 308 310 310 309 305 303 308
306 308 309 309 308 308 310 312 313 314 314 315 308 311 308 306 305 309 310 311 312 312 311 310 310 308 308 308 307 310 311 310 311 314 319 309 304 308 309 311 309 311 311 310 307 309 309
306 308 310 309 309 308 310 312 313 313 314 313 305 309 308 310 309 309 309 312 313 312 310 309 311 310 309 310 310 310 309 308 309 310 310 306 309 311 309 309 311 311 313 312 312 312 313
306 308 310 310 309 308 310 312 313 313 314 314 310 310 306 307 307 308 308 311 312 312 311 312 312 311 309 311 311 312 310 308 309 307 307 307 312 311 312 312 312 312 312 312 312 311 312
306 308 310 310 309 308 309 312 314 314 314 312 312 311 305 307 308 309 310 312 312 310 311 312 312 310 312 312 310 308 306 307 308 309 306 308 309 309 313 311 311 311 312 312 312 313 312
306 308 310 310 310 308 309 310 313 314 314 314 313 310 307 311 310 310 313 313 313 311 312 311 311 312 311 308 307 306 305 307 307 305 302 308 308 308 311 310 310 309 310 312 312 316 315
306 308 309 311 310 309 308 309 312 314 314 314 314 312 307 310 310 313 312 311 310 309 312 313 311 309 305 306 307 309 307 308 309 307 305 304 306 308 309 306 310 312 311 310 312 314 311
306 308 309 311 311 310 309 308 309 312 315 315 314 315 310 308 310 313 311 311 309 310 310 313 310 307 305 305 305 311 308 309 311 309 305 306 305 307 311 311 314 312 309 308 310 314 308
305 308 309 311 311 311 309 309 309 310 315 316 315 315 314 312 310 309 310 311 308 308 308 308 311 309 304 302 302 301 309 309 303 308 309 305 304 306 314 318 315 309 308 308 315 311 306
304 308 309 309 311 311 311 309 309 309 313 316 315 315 314 309 310 312 311 312 311 307 309 308 308 306 304 304 300 308 308 309 306 308 309 308 306 299 308 310 309 307 308 308 306 305 306
305 307 309 309 311 311 312 310 309 309 309 310 316 315 315 311 310 315 316 316 314 311 307 305 305 306 304 304 304 305 308 309 307 299 310 310 303 302 304 304 305 305 305 306 306 305 304

GFSGBSN_925_thetae_066.txt.gz
Theta_e
320 319 318 317 315 309 306 304 302 300 301 306 307 307 307 307 307 307 306 306 307 307 306 307 309 310 314 316 311 321 311 318 328 320 318 318 329 329 336 336 338 343 345 342 342 343 350
321 321 318 318 315 310 307 303 301 301 304 306 307 307 307 307 307 306 306 306 306 307 306 307 313 310 315 311 320 317 311 314 320 317 315 320 325 328 331 333 340 339 341 340 336 339 348
321 321 319 318 315 309 305 302 301 303 305 307 307 308 307 307 306 306 306 306 306 306 306 308 313 315 317 309 321 318 315 317 318 317 314 318 324 329 332 338 335 335 338 333 334 353 353
320 319 317 316 312 306 302 301 302 305 307 307 307 307 307 306 306 307 307 306 306 307 307 310 315 319 320 319 324 320 319 321 319 317 317 317 320 324 329 331 328 327 325 328 347 353 355
318 317 316 314 306 302 302 303 306 307 306 306 306 306 306 306 307 307 306 306 309 309 308 316 319 319 321 320 323 322 319 323 320 318 317 317 318 321 324 328 329 324 331 330 329 354 357
315 314 308 305 303 303 305 307 307 307 307 307 307 306 306 307 307 307 306 311 313 313 316 318 320 319 317 320 317 323 321 323 322 320 319 318 315 318 320 325 338 331 330 327 328 357 357
307 305 306 305 305 306 308 308 308 308 308 308 308 307 307 308 308 307 308 313 305 307 320 312 312 318 314 317 316 313 323 322 320 320 322 318 319 321 322 325 328 328 327 327 325 329 331
306 306 306 306 307 308 309 309 308 309 309 309 308 308 309 309 308 308 308 307 310 309 310 311 316 316 316 317 316 312 319 320 322 324 320 320 319 321 323 326 327 326 327 327 325 325 322
306 306 306 307 308 310 310 309 309 309 309 309 308 309 310 310 308 309 306 310 310 310 309 309 311 313 313 315 315 311 314 318 322 322 321 322 326 324 329 329 328 327 327 326 327 326 337
306 306 307 309 310 311 310 309 309 309 308 309 310 310 310 309 308 309 309 310 310 310 307 309 311 312 311 311 311 312 315 318 320 322 323 325 325 328 327 329 328 331 325 326 327 323 321
306 306 308 310 310 310 309 309 309 308 309 310 310 311 311 310 308 309 311 311 309 308 314 313 311 312 308 309 311 312 311 313 316 318 322 325 325 327 327 326 325 329 323 325 324 322 319
306 306 309 311 311 310 309 309 308 309 310 311 312 312 311 308 308 311 311 311 309 308 314 312 310 310 309 310 312 311 312 309 310 311 313 318 313 321 325 325 323 323 321 314 313 314 318
306 306 309 310 310 309 308 308 309 310 312 313 314 312 311 308 308 309 313 307 308 312 312 313 310 309 309 309 311 311 309 307 308 309 311 311 314 315 316 318 318 318 317 319 319 318 320
306 306 310 310 310 308 308 308 310 312 313 315 315 313 313 313 313 313 309 309 314 315 314 311 310 311 312 310 311 311 311 310 311 307 305 309 312 312 313 314 314 316 316 318 322 319 320
306 306 310 311 309 308 308 310 312 313 313 316 316 315 313 313 313 311 306 311 313 313 313 312 312 313 313 312 310 310 310 311 311 309 310 311 313 311 312 311 314 316 317 315 314 314 317
306 306 309 311 309 308 309 311 313 313 314 316 317 316 313 314 313 311 309 313 313 312 312 312 314 313 314 312 312 311 311 312 313 310 308 310 312 310 311 311 309 314 312 318 313 320 322
306 307 308 310 308 309 310 312 313 314 314 316 315 309 313 313 312 306 309 311 312 311 312 313 313 313 311 312 312 312 313 313 313 311 308 308 308 311 309 309 309 311 310 308 312 313 318
306 307 309 309 308 309 311 312 312 313 314 315 311 311 314 312 308 303 307 309 310 310 308 309 310 310 311 309 310 314 313 311 312 311 313 308 307 310 310 308 308 309 310 306 315 318 309
306 307 310 309 308 309 312 312 313 313 314 315 311 309 313 311 310 307 309 310 310 310 309 309 309 308 306 308 311 311 311 310 310 316 316 311 306 307 311 307 307 309 309 307 303 303 309
306 307 310 309 308 310 312 313 313 314 314 314 305 309 307 304 303 308 310 310 311 310 310 309 309 307 307 308 307 310 310 310 308 313 317 307 304 307 308 310 308 311 311 310 307 310 310
306 307 310 309 308 309 312 313 314 314 314 311 304 308 306 308 308 307 308 309 312 311 309 308 310 308 308 309 309 310 309 308 308 309 308 305 311 309 308 310 311 311 312 312 311 310 311
306 307 310 309 308 309 311 313 314 315 315 313 310 308 303 305 305 308 307 310 311 311 310 311 311 310 309 310 310 311 310 308 308 307 306 304 311 310 311 311 311 312 311 312 311 311 311
306 308 309 310 308 309 310 313 314 314 314 312 310 309 304 306 306 309 309 311 311 310 310 311 311 309 311 312 309 308 307 304 306 308 305 307 306 306 309 311 309 311 311 311 311 312 313
306 308 309 310 309 308 309 313 313 314 315 314 312 308 307 310 309 310 312 311 311 311 312 311 310 311 310 305 305 304 303 304 305 304 300 306 306 305 308 306 305 307 309 310 313 315 312
306 308 308 310 310 309 309 310 313 314 314 315 314 311 305 309 309 312 311 310 309 309 311 312 310 307 303 304 305 307 305 308 307 305 304 302 305 306 307 303 308 312 310 309 311 312 309
305 307 308 310 310 310 309 309 309 314 315 315 314 315 307 306 309 312 311 310 308 309 309 311 308 305 302 301 303 308 305 308 309 307 303 304 302 306 304 310 312 311 308 307 308 314 306
305 306 308 309 311 311 310 309 309 313 315 315 315 314 313 309 308 308 309 309 306 306 307 307 309 307 302 300 300 299 301 308 302 306 307 302 303 306 309 311 312 308 307 308 312 310 305
305 306 308 309 310 311 312 310 309 310 310 315 315 315 314 308 308 311 309 309 308 306 309 307 306 304 302 301 300 307 307 308 305 302 306 302 299 298 309 310 306 307 306 307 305 304 305
304 305 307 309 308 310 311 311 310 309 309 311 314 314 314 311 309 313 314 314 312 310 305 303 305 304 303 302 301 303 308 308 304 299 306 306 301 300 301 302 302 305 304 304 304 305 305

GFSGBSN_925_thetae_069.txt.gz
Theta_e
321 321 319 317 316 313 309 304 302 301 304 306 307 307 308 308 308 306 306 307 306 306 306 306 308 309 314 316 313 318 313 321 334 325 323 326 331 336 338 345 344 351 349 346 344 344 347
320 320 317 316 315 310 305 302 302 303 307 308 308 308 307 307 308 306 306 307 306 306 306 306 310 310 315 311 318 317 322 333 324 319 321 327 331 334 337 343 344 343 342 341 338 338 343
318 317 316 316 312 305 302 303 305 307 308 308 308 308 307 307 307 307 308 307 306 306 306 306 312 314 315 312 324 315 325 326 323 317 320 322 331 333 335 339 337 338 340 333 347 349 353
316 315 311 307 305 304 304 306 306 307 307 307 308 307 306 306 307 308 307 306 306 307 306 308 317 319 318 319 324 320 320 320 321 317 317 318 325 330 333 333 333 335 330 339 351 354 354
311 307 306 306 305 306 306 307 308 309 309 309 308 308 308 307 309 309 307 311 311 308 308 315 318 320 320 320 327 325 321 320 319 318 317 317 322 329 329 338 341 331 341 336 334 356 357
307 307 306 306 307 308 309 310 311 310 310 310 309 308 308 308 309 308 308 313 315 316 319 320 320 322 319 321 321 323 322 320 320 319 318 318 320 329 330 339 343 340 335 331 337 353 357
307 307 307 309 309 310 311 311 310 309 310 309 308 309 309 310 309 307 311 314 310 314 320 315 314 317 315 316 316 323 322 323 321 320 320 318 325 330 336 337 332 332 332 333 330 337 338
307 308 310 311 311 311 312 310 309 309 309 308 310 310 311 310 309 307 308 311 311 310 314 313 316 316 316 316 316 322 323 323 325 322 321 319 322 325 330 334 331 333 334 333 330 328 330
306 309 311 311 311 311 310 310 309 309 308 309 310 311 310 310 309 309 307 310 310 309 313 312 314 315 315 316 316 317 322 323 326 326 322 319 320 323 330 332 333 333 335 332 331 329 338
306 308 310 311 310 311 310 309 308 309 310 311 312 311 311 309 308 310 310 309 309 309 312 313 313 315 314 316 313 314 318 323 325 328 325 324 324 326 333 335 334 337 330 331 330 331 330
306 307 307 311 310 310 309 308 309 310 312 312 312 312 311 308 309 311 310 310 309 308 315 314 313 311 311 313 314 314 314 318 323 325 326 327 328 328 334 334 332 336 329 331 330 330 326
306 306 308 310 310 308 308 309 311 312 313 313 313 312 309 309 309 309 311 309 308 314 316 314 311 313 313 312 313 313 314 313 313 319 323 323 319 329 332 329 328 329 325 322 322 325 329
306 306 308 311 308 308 309 310 312 313 313 314 314 313 313 310 310 312 312 310 315 317 315 315 313 311 312 311 313 313 315 315 315 320 324 316 317 317 321 325 325 327 328 329 330 330 331
306 307 309 308 309 309 310 312 312 313 314 315 316 314 312 313 311 313 309 316 319 316 316 314 313 314 314 314 314 314 315 316 314 311 314 324 323 315 315 319 322 326 328 328 331 330 329
306 306 308 309 308 309 311 312 312 313 314 317 317 315 312 311 312 310 315 318 316 315 314 315 315 316 316 315 315 315 315 316 315 313 316 317 316 313 313 314 317 321 324 323 324 321 327
306 307 309 309 308 309 311 312 312 313 314 316 317 314 312 312 311 311 316 315 315 312 313 314 317 316 318 316 316 316 316 316 316 313 311 314 316 313 313 314 315 320 317 323 324 329 329
305 307 310 309 308 310 312 313 313 313 314 316 313 317 313 311 310 313 315 314 314 312 312 314 314 315 314 316 316 316 315 316 314 315 312 312 315 316 315 314 315 319 320 320 323 323 327
305 307 310 309 308 310 312 313 313 314 315 314 312 317 312 312 315 310 313 312 310 312 311 312 312 311 313 314 316 317 317 315 312 316 314 311 314 316 315 312 311 313 314 315 326 328 322
306 307 310 310 308 310 312 314 314 314 314 315 316 313 312 311 315 314 312 312 312 313 312 312 312 311 311 312 317 315 314 311 312 318 316 313 313 317 316 314 313 315 314 312 311 315 323
306 307 309 310 308 310 312 313 314 314 313 311 313 315 313 310 307 312 312 313 313 311 311 311 312 311 312 313 313 314 313 311 310 315 316 312 313 315 316 316 314 316 315 314 315 319 318
305 307 309 311 308 310 312 313 314 314 314 311 311 312 309 314 313 312 312 312 313 313 312 312 312 312 312 314 314 314 312 312 312 311 313 315 317 314 314 313 314 314 314 314 315 315 318
305 307 309 311 309 309 312 313 314 314 313 312 316 313 309 310 309 313 312 313 313 313 313 313 313 313 313 314 313 314 313 313 312 312 312 312 317 315 316 314 314 314 313 313 313 313 314
305 307 308 311 310 308 311 312 313 315 314 313 309 307 313 309 312 313 314 313 313 312 313 313 312 313 314 313 312 311 310 309 310 312 312 314 316 315 315 314 313 313 314 313 314 317 316
305 306 308 311 311 309 309 310 313 314 315 314 311 309 315 315 314 314 313 313 313 313 314 313 313 313 311 308 308 309 310 310 311 310 308 313 316 316 315 312 313 314 312 312 316 316 317
305 306 308 309 311 311 309 309 313 314 314 315 313 311 314 316 313 313 313 313 312 313 314 314 312 310 308 309 313 314 314 314 312 310 311 310 314 317 318 314 312 313 312 312 315 315 311
305 305 307 308 311 311 310 309 310 314 315 314 314 313 311 316 314 313 313 312 314 314 314 314 310 307 307 310 314 316 318 314 315 311 308 311 312 317 318 317 316 315 309 309 311 315 310
305 305 306 308 309 311 311 310 309 309 312 315 315 314 314 317 312 312 314 314 311 312 314 312 313 311 307 310 315 315 314 310 315 313 313 314 316 318 318 318 316 312 309 311 317 315 308
306 305 306 308 308 310 311 311 310 309 309 313 314 314 314 316 314 312 312 313 311 312 316 312 313 310 309 313 312 311 313 311 310 309 312 313 317 318 315 316 317 311 309 313 311 308 308
307 304 305 307 308 309 310 311 311 309 309 311 313 312 313 315 315 311 312 312 313 313 313 310 312 311 310 311 309 309 312 310 311 316 309 314 312 316 314 315 310 310 309 308 307 308 307

GFSGBSN_925_thetae_072.txt.gz
Theta_e
320 319 317 316 315 306 304 302 304 306 307 307 307 306 307 306 306 307 308 307 306 306 306 306 306 308 318 319 315 327 319 310 323 329 327 329 331 332 338 341 349 354 353 349 346 343 344
317 316 316 313 307 304 304 306 309 310 309 310 310 308 307 306 306 308 307 307 307 306 306 306 307 308 317 316 323 323 322 325 325 325 324 326 327 329 332 338 343 347 347 346 342 339 341
314 311 309 309 307 307 308 311 310 311 312 311 312 311 310 307 306 307 308 307 306 305 306 306 308 316 317 316 325 321 327 325 323 322 324 324 327 329 332 336 338 342 345 344 344 343 348
308 310 310 310 310 310 311 311 312 312 312 312 311 311 309 308 308 309 309 307 310 308 307 306 311 320 320 318 325 324 326 326 320 321 322 324 328 329 330 335 337 340 342 347 347 346 350
307 307 308 310 311 311 312 312 312 312 311 312 311 309 309 310 310 309 308 315 314 308 307 312 322 323 321 325 326 321 321 324 321 320 321 321 327 329 331 333 335 338 344 344 349 349 353
307 308 309 310 311 311 311 311 311 312 310 310 309 310 311 311 311 309 309 314 317 319 320 321 321 322 321 322 325 323 322 321 321 321 320 321 327 329 331 331 334 337 342 344 342 353 352
307 309 309 311 312 311 310 311 310 309 309 309 310 311 312 311 310 308 314 317 319 323 318 319 317 318 321 320 324 323 323 322 322 322 323 321 326 326 329 331 335 335 340 342 338 348 346
307 308 308 311 311 310 310 310 309 309 309 310 312 312 312 310 309 308 313 316 315 314 317 318 318 317 318 319 321 323 323 326 323 322 322 322 324 326 329 333 337 336 339 340 335 333 338
306 308 310 311 311 310 309 308 309 310 312 312 312 312 311 310 308 310 312 313 311 312 317 316 317 318 318 318 320 325 324 324 325 322 322 323 323 326 332 336 338 336 337 340 339 334 334
306 307 308 311 310 309 309 310 311 312 312 313 312 312 311 309 311 313 314 312 312 312 318 316 316 317 317 319 318 322 323 323 324 327 323 322 323 324 330 336 335 336 335 335 336 336 338
306 306 308 310 309 309 309 311 312 312 313 313 312 310 308 309 314 315 312 313 311 313 320 316 316 315 319 319 317 321 322 322 325 327 327 325 323 325 330 334 334 336 335 335 335 338 335
306 306 308 310 309 309 310 312 312 312 314 314 313 313 310 312 313 312 312 312 311 319 319 316 315 317 317 316 317 319 320 319 323 325 327 327 324 326 331 334 335 335 333 332 333 335 337
306 307 308 310 308 310 311 312 312 312 314 315 313 313 313 313 316 315 315 315 319 320 317 316 315 317 317 316 317 319 319 320 324 327 328 325 327 328 331 335 334 334 333 333 332 333 334
306 307 309 309 308 310 311 312 313 312 314 316 314 313 314 314 314 315 315 319 321 318 318 317 316 316 316 317 317 319 320 321 319 320 327 325 326 327 328 333 334 334 333 332 333 332 332
306 307 309 309 309 311 312 313 313 313 314 316 316 317 316 314 313 313 319 321 321 318 317 318 316 316 317 316 318 319 320 320 319 318 323 326 323 318 319 320 324 332 334 330 329 330 331
306 307 309 309 309 311 313 314 313 314 314 316 320 319 316 313 313 317 320 318 319 316 316 318 319 318 317 317 318 318 320 319 319 317 317 321 323 319 318 319 321 325 328 330 328 332 333
306 307 310 309 308 311 313 314 314 314 314 314 319 321 316 313 314 320 321 318 317 316 315 318 318 319 318 319 318 320 319 318 317 318 317 318 321 320 320 322 324 323 325 326 328 329 331
306 307 309 310 309 310 313 314 314 314 314 318 318 321 315 315 319 318 319 316 311 316 316 315 316 317 319 319 320 319 319 318 316 319 317 317 320 321 321 317 317 321 324 326 328 331 330
306 307 309 310 308 311 313 314 314 314 312 318 319 318 315 317 320 318 316 315 315 316 316 317 317 316 316 319 320 319 318 314 316 319 320 316 318 321 320 319 318 321 320 322 323 326 331
306 307 309 311 308 311 313 314 314 313 313 315 317 318 316 317 316 318 316 315 315 313 314 315 316 316 318 319 319 319 317 315 314 318 317 317 318 319 320 321 321 321 319 320 323 327 329
306 307 308 311 309 309 312 313 315 313 313 315 317 315 315 315 315 315 315 314 314 315 314 314 314 315 317 320 320 319 318 317 316 316 318 321 322 320 318 317 318 318 318 318 321 324 327
306 306 308 311 310 309 311 312 314 314 314 316 317 316 314 315 315 315 313 315 315 315 315 315 315 314 316 318 318 319 318 318 318 317 318 318 322 321 320 317 318 318 317 316 316 318 322
306 306 308 310 311 309 309 311 312 315 315 315 315 313 317 312 315 316 316 314 314 315 315 314 314 316 316 315 315 315 314 315 315 317 317 318 320 321 320 317 316 317 318 316 317 318 320
307 305 307 308 311 311 309 310 314 313 316 317 316 316 318 315 315 316 315 314 315 316 316 315 315 316 314 312 313 313 313 314 314 314 314 317 320 318 318 317 316 319 316 316 318 319 320
309 305 306 308 309 311 310 309 312 315 314 318 317 317 317 316 315 315 315 315 315 315 316 315 314 313 313 314 316 317 317 316 315 314 314 316 317 317 319 317 317 315 315 316 319 319 317
312 305 305 307 308 310 312 310 310 310 314 318 317 317 317 318 316 314 315 315 315 315 316 315 314 311 313 316 318 321 322 321 319 316 314 314 316 319 318 322 319 320 314 314 315 319 315
314 306 305 306 308 309 311 311 310 309 310 317 318 316 319 319 316 316 317 317 315 315 315 316 316 314 313 315 320 321 322 316 322 318 318 319 320 322 320 322 319 316 313 314 316 320 314
315 307 304 305 307 308 310 311 311 309 309 313 317 315 319 318 318 316 316 317 316 317 316 317 316 314 313 316 317 320 320 318 317 317 316 318 322 323 321 322 325 315 314 318 317 313 312
318 308 304 305 307 307 309 311 311 310 311 312 317 314 315 319 320 316 316 316 316 317 316 316 315 314 313 314 315 316 319 316 318 321 314 320 318 322 320 321 316 315 314 313 312 313 311

GFSGBSN_925_thetae_075.txt.gz
Theta_e
316 315 313 310 309 307 307 308 310 311 311 311 311 310 309 307 307 307 306 307 307 307 306 306 306 308 318 322 320 330 317 309 319 330 330 329 332 339 344 346 354 358 353 351 348 347 348
308 307 309 309 308 309 311 311 312 312 312 312 312 313 310 308 308 309 309 308 308 307 306 306 306 309 319 320 323 326 321 317 322 330 329 328 332 335 335 339 350 353 353 349 347 345 344
308 308 308 310 312 312 312 312 313 313 313 312 312 313 312 311 310 309 310 310 306 306 306 306 306 316 320 320 324 323 321 319 323 328 328 327 327 329 332 337 341 347 353 348 345 343 346
308 309 310 312 313 312 312 311 312 312 312 312 312 312 310 311 313 311 310 308 311 309 307 306 307 320 325 318 324 325 326 323 324 326 324 325 327 329 330 335 338 345 348 352 346 345 349
308 310 312 313 312 312 312 312 312 311 311 310 309 310 311 312 312 311 309 311 312 307 307 307 319 325 323 322 325 327 327 323 323 324 324 325 327 330 331 334 339 341 348 347 349 344 349
307 309 310 312 312 311 311 311 310 309 309 310 310 311 312 312 311 310 308 313 320 321 319 321 321 323 324 323 323 324 325 324 323 324 325 324 326 331 332 334 338 338 342 343 348 346 349
306 308 311 312 311 311 310 309 309 310 311 311 313 313 312 312 311 308 315 319 324 326 320 324 321 323 321 322 324 323 323 324 323 324 325 324 326 330 331 331 330 334 338 342 342 346 348
307 307 311 312 311 309 309 310 311 312 312 313 313 312 312 311 309 308 315 321 317 317 321 320 319 320 321 325 325 325 324 324 324 324 323 325 327 329 329 329 330 334 335 341 341 345 346
306 307 309 311 310 309 310 311 312 312 313 313 312 311 311 309 308 310 318 316 315 316 320 319 319 319 321 323 324 324 325 326 325 325 324 326 325 327 327 330 333 337 338 341 341 337 342
306 307 309 310 309 310 311 312 312 312 313 313 312 310 309 309 312 316 317 315 316 316 322 318 319 319 321 320 322 323 324 326 326 324 323 324 325 325 328 333 336 336 333 337 338 340 341
306 307 309 309 309 310 311 312 312 312 313 314 313 311 309 310 317 317 316 316 315 317 324 318 319 319 320 321 322 325 322 324 325 326 325 324 323 325 329 334 334 334 332 335 339 338 338
306 307 309 309 309 311 311 313 313 312 313 314 313 313 311 314 315 316 315 317 316 320 323 318 318 318 321 321 319 323 323 324 325 327 328 326 324 325 326 330 334 335 336 335 335 337 337
306 307 310 309 310 311 312 313 313 313 314 315 314 313 314 316 319 317 316 318 321 323 319 318 318 319 321 321 319 322 324 324 324 327 329 328 328 326 326 330 335 337 338 338 338 337 337
306 307 310 309 309 311 313 313 314 314 314 316 316 314 319 317 318 317 318 321 324 320 321 318 318 320 319 319 319 321 323 322 322 326 329 328 329 326 327 332 336 337 336 334 335 334 333
307 307 310 309 309 311 313 314 314 314 314 316 316 318 320 318 318 318 322 324 324 321 319 319 319 319 319 319 320 321 322 322 323 324 326 329 328 328 328 332 334 335 337 333 332 332 332
307 307 310 310 309 312 313 314 314 314 314 315 320 321 319 318 318 320 323 320 321 319 319 320 320 319 319 319 320 321 323 322 322 321 322 326 327 325 324 324 328 329 332 335 334 336 334
307 307 310 310 309 312 313 314 314 313 314 315 320 324 319 318 319 323 322 321 320 318 319 321 321 320 321 321 319 320 322 321 320 321 321 322 327 325 324 324 326 328 331 333 333 331 334
307 307 309 311 309 312 313 314 314 313 314 319 321 323 319 317 322 321 322 320 313 320 319 319 320 319 320 321 321 322 322 321 319 321 319 320 323 326 324 324 323 325 327 330 333 334 331
307 307 309 311 309 311 312 313 314 313 313 319 321 318 317 319 323 320 319 317 318 319 320 319 319 319 320 318 321 319 320 317 320 321 322 321 321 325 325 323 324 324 326 327 328 329 333
307 306 308 311 310 310 311 312 314 313 313 317 319 320 318 319 320 319 318 317 316 316 317 319 320 320 321 320 320 320 318 318 318 320 319 321 321 325 324 324 324 325 324 325 327 329 331
308 306 308 311 311 309 310 312 314 313 315 317 319 317 319 319 317 317 317 316 316 316 315 317 318 320 322 322 321 320 320 319 318 319 321 322 320 322 321 320 322 324 324 323 325 326 328
310 305 307 309 312 310 310 312 313 314 316 318 320 319 316 318 318 317 314 317 317 317 318 317 317 316 318 323 323 323 321 321 321 320 321 321 323 321 320 320 320 320 320 320 322 324 327
312 306 306 308 311 311 310 311 313 314 319 318 317 317 319 314 318 318 316 316 316 318 317 317 318 318 318 318 318 319 320 321 321 322 322 323 321 323 323 320 319 319 319 320 320 321 325
316 307 305 308 309 312 311 310 312 313 318 320 317 320 320 316 317 317 315 316 317 318 318 317 318 320 316 315 315 315 315 316 317 318 319 322 324 323 323 323 324 320 320 319 319 321 326
320 311 305 306 308 310 312 310 310 311 315 320 320 321 321 318 316 317 316 316 317 318 318 318 316 316 316 318 319 320 319 318 318 316 316 317 322 323 323 324 322 320 318 318 322 322 322
321 315 305 306 308 309 311 312 310 310 312 321 319 321 321 320 319 316 317 318 318 318 319 317 316 315 317 319 320 325 324 324 322 318 317 317 320 322 322 323 322 322 318 318 319 324 319
320 315 306 305 307 308 310 312 312 310 310 317 320 321 322 321 318 319 320 320 317 317 318 318 318 316 316 319 323 325 325 321 326 321 321 320 320 323 324 324 323 320 317 316 319 323 318
319 316 307 305 307 307 309 312 312 310 310 315 320 319 322 321 320 317 318 319 318 319 320 319 317 317 316 318 320 325 325 323 321 323 322 322 325 326 324 325 331 319 317 319 322 319 317
318 318 308 304 307 307 308 311 312 311 312 314 321 319 319 322 323 318 317 318 319 319 319 317 319 316 318 318 317 320 322 320 321 325 317 323 320 328 323 326 322 319 318 319 318 318 315

GFSGBSN_925_thetae_078.txt.gz
Theta_e
308 309 312 312 312 313 313 312 313 313 314 314 314 313 312 313 312 309 308 307 308 308 307 307 306 306 317 324 321 328 320 317 313 325 336 334 331 339 345 348 354 360 358 353 349 358 357
308 310 312 314 314 314 313 314 314 314 314 314 314 313 313 313 312 312 311 308 308 308 306 306 306 307 318 324 324 328 320 315 319 327 335 331 330 336 342 344 354 354 355 351 348 347 350
308 309 312 314 314 314 313 312 313 312 313 313 313 311 311 312 312 311 311 309 308 308 307 306 306 315 322 323 324 326 321 317 320 326 332 330 329 334 335 337 343 348 358 351 348 346 350
307 311 313 314 313 312 312 311 312 311 310 310 310 310 311 313 313 311 309 309 309 309 309 306 306 318 324 321 322 324 321 319 321 326 331 328 328 329 331 333 338 345 349 355 348 344 349
307 308 312 314 313 312 311 310 310 310 310 310 311 311 313 313 313 311 310 308 309 308 308 306 316 321 325 321 323 324 325 323 323 327 328 326 327 328 330 332 339 342 350 349 348 344 351
307 308 311 313 311 310 309 310 311 311 312 312 313 313 313 312 312 311 308 310 319 321 313 317 323 324 323 325 322 326 326 324 325 327 327 327 327 330 331 333 338 341 344 347 352 347 348
307 308 310 313 311 310 310 311 312 312 312 313 312 312 312 312 311 309 313 319 322 327 323 324 324 325 324 325 323 326 327 323 324 326 327 327 328 329 331 331 333 337 338 341 349 347 347
307 307 309 310 309 310 311 311 312 312 313 313 312 311 311 310 309 308 312 325 319 319 320 322 322 322 323 324 325 324 325 325 324 325 326 327 326 327 330 331 331 332 334 337 345 348 357
307 307 309 309 309 310 311 312 312 312 312 313 313 310 309 309 309 310 317 320 317 317 319 323 321 320 323 326 326 324 324 325 324 324 324 326 325 326 329 330 330 330 331 338 347 347 349
306 307 310 309 309 310 311 312 313 313 312 314 313 310 309 309 310 318 319 317 316 317 321 322 320 321 321 324 326 325 325 324 325 325 325 324 326 325 327 329 329 331 333 337 344 344 344
306 307 310 309 310 311 312 313 314 312 312 314 314 313 310 311 314 319 318 316 317 317 326 320 320 320 321 322 323 325 324 325 328 325 325 325 325 325 326 328 330 333 334 335 341 342 339
307 307 310 309 309 311 312 313 314 313 314 314 315 313 313 314 314 317 316 317 318 320 326 319 320 319 321 322 322 325 325 325 326 326 326 324 324 325 326 328 332 334 335 333 336 341 339
307 307 309 309 309 310 313 314 314 314 314 315 316 314 313 316 320 318 317 319 322 323 324 319 318 319 320 322 322 324 326 324 326 327 328 328 327 324 325 327 331 334 337 336 337 341 340
308 306 308 310 309 311 313 314 314 313 314 315 316 316 315 319 320 319 319 323 328 328 323 320 319 319 321 322 321 323 324 324 325 326 329 330 329 329 327 326 330 334 336 337 338 336 335
312 306 308 311 309 311 313 314 314 313 314 315 315 318 317 322 321 319 323 327 327 326 320 320 318 320 320 320 321 321 324 325 324 325 327 331 330 328 327 326 329 334 337 336 334 334 334
315 306 308 311 309 311 312 314 314 313 313 314 317 322 324 318 320 322 324 325 323 319 320 321 321 320 320 320 320 322 322 324 324 324 324 327 331 328 326 327 330 332 334 336 336 337 340
319 306 308 311 309 310 312 313 314 312 314 315 319 324 322 317 319 324 328 322 321 319 319 322 323 323 323 322 322 324 326 324 323 322 323 324 329 329 328 328 331 334 337 333 334 335 339
321 306 307 310 310 309 311 312 314 313 314 319 323 326 320 317 323 321 321 320 314 320 318 319 320 322 323 323 324 324 326 323 320 321 322 323 324 331 327 325 327 329 331 332 336 340 336
321 307 307 309 311 309 310 312 313 314 314 316 325 319 318 320 326 324 319 318 319 320 320 319 320 318 321 321 325 323 322 319 320 321 325 324 323 328 327 326 325 325 327 328 329 333 340
321 307 307 309 312 310 310 312 313 314 315 316 324 321 320 319 319 320 319 318 317 316 319 321 321 320 318 320 319 323 320 319 319 321 322 322 321 327 330 327 325 326 326 327 327 330 332
321 309 306 308 311 312 310 311 313 313 316 318 321 317 319 320 318 318 319 318 317 318 316 317 320 321 322 326 319 320 321 319 319 319 320 320 321 322 325 323 322 325 325 326 326 328 335
321 312 306 308 309 312 311 310 312 313 318 321 321 322 317 319 319 319 315 317 318 318 320 318 318 317 319 327 326 327 324 321 319 320 319 320 323 326 324 323 322 322 324 324 325 325 328
321 316 307 306 308 311 312 310 311 314 321 321 320 319 322 316 319 318 316 316 317 318 317 318 319 319 319 321 320 322 321 323 324 324 322 321 322 326 326 322 322 322 322 322 322 323 336
321 321 311 305 308 309 312 312 311 312 315 320 319 323 324 318 318 317 316 317 319 320 319 319 320 321 319 316 316 316 317 317 319 320 321 323 327 325 327 323 325 322 321 321 320 323 330
321 321 317 305 306 309 310 312 312 311 313 318 320 323 324 321 317 317 317 317 318 319 319 318 317 317 317 319 320 320 318 319 318 317 317 318 321 324 326 327 325 323 321 321 320 323 327
320 320 317 305 306 308 309 312 312 311 311 318 322 321 325 323 320 318 318 319 321 320 320 317 316 317 318 321 322 324 331 326 325 320 317 318 319 325 324 325 325 324 319 319 320 325 324
319 320 318 307 305 307 308 311 313 312 311 312 321 321 325 325 320 319 322 322 318 318 320 319 318 318 318 322 322 329 330 323 328 324 323 319 320 323 324 325 326 323 319 318 322 323 322
317 319 319 309 305 307 308 310 312 312 312 312 322 321 324 327 322 318 319 320 319 320 322 321 319 319 318 319 322 330 325 325 323 324 326 323 327 328 322 326 331 320 319 320 324 321 319
316 318 319 311 305 308 308 309 312 313 313 314 322 322 321 322 324 320 318 318 319 321 321 318 320 320 320 320 320 323 324 321 323 326 319 325 323 332 325 330 325 320 321 322 321 320 318

GFSGBSN_925_thetae_081.txt.gz
Theta_e
310 311 313 315 314 314 314 314 314 314 313 313 314 313 313 314 313 311 312 309 308 308 308 307 306 306 313 322 319 323 319 317 315 315 325 337 339 331 337 345 355 356 352 355 356 355 357
309 312 315 315 315 314 313 313 313 313 313 312 313 312 312 312 311 312 311 311 308 308 307 306 306 306 318 318 327 325 319 317 315 317 326 336 335 329 336 342 355 351 349 350 356 354 354
308 309 313 315 314 314 313 311 310 311 310 310 310 310 312 313 313 312 312 309 309 308 309 308 306 315 318 319 328 326 320 315 314 319 331 335 335 327 333 337 341 354 349 351 354 357 358
308 308 311 314 312 311 310 310 310 310 311 311 312 313 314 314 313 312 311 309 308 310 310 311 306 318 319 317 321 324 320 316 318 320 330 332 330 326 328 329 332 351 351 356 349 349 359
307 308 311 313 312 310 310 311 311 312 312 312 314 314 313 313 312 312 310 308 310 309 310 308 311 319 323 321 321 324 322 319 317 321 324 329 328 326 326 328 328 335 344 350 352 349 357
307 307 310 310 310 310 311 311 312 312 312 313 312 313 312 312 311 310 309 309 313 321 315 316 316 320 320 325 321 322 323 320 319 322 326 327 324 326 325 326 329 338 340 342 349 346 357
307 307 309 309 309 310 311 311 312 312 312 312 313 311 310 310 310 309 308 319 319 322 323 319 321 326 325 325 322 322 326 324 322 324 325 324 324 325 326 327 329 333 338 340 347 349 354
307 307 309 309 309 310 311 311 313 313 312 313 313 312 308 309 309 308 308 319 324 316 317 323 320 322 323 324 322 326 326 323 323 324 324 325 325 326 326 328 330 329 329 335 347 354 356
307 307 309 309 309 310 311 312 313 313 311 312 314 312 309 309 309 309 312 319 319 316 315 318 322 322 320 323 323 324 325 323 322 323 324 324 326 327 325 327 330 328 328 331 348 348 354
307 307 309 310 308 310 311 313 314 313 313 313 314 313 310 310 315 315 317 319 317 317 316 321 322 321 321 324 325 324 324 324 323 323 323 323 324 325 324 325 327 326 327 329 347 347 355
308 307 308 310 308 310 312 313 314 313 313 314 315 314 313 311 310 314 317 316 317 316 323 322 320 320 319 320 325 325 323 322 324 322 322 323 322 322 323 324 326 326 327 332 343 343 344
313 307 308 310 308 310 312 313 314 313 313 314 314 315 314 315 315 319 319 318 317 318 326 323 319 319 318 319 321 323 325 323 323 325 323 323 323 322 323 324 324 327 329 333 338 340 344
319 307 308 310 309 310 312 313 314 313 313 314 314 315 315 314 318 319 320 317 321 330 326 323 319 318 318 321 321 321 324 323 324 325 325 325 323 322 322 323 325 327 331 334 333 341 345
322 308 307 310 310 309 312 312 313 313 312 314 314 315 315 316 317 319 321 325 332 326 325 324 323 318 318 320 321 324 324 323 323 323 324 325 327 325 322 323 325 327 329 333 337 337 338
322 311 307 309 311 309 311 312 313 314 312 313 315 317 318 321 321 320 323 328 328 324 323 322 320 319 318 320 320 321 323 323 322 322 324 329 329 327 325 324 324 327 329 329 332 329 331
322 316 307 308 311 310 310 311 312 313 313 313 315 318 319 323 323 322 323 327 324 321 319 321 324 322 322 322 321 320 324 323 324 323 322 327 327 326 328 326 323 323 331 331 332 339 337
321 318 307 308 311 310 310 310 313 313 314 315 317 322 323 321 322 323 325 325 321 319 318 321 321 323 323 324 325 327 325 322 320 321 320 322 323 329 328 323 322 332 333 334 330 332 334
322 320 307 307 310 312 310 310 312 313 314 316 321 326 324 317 323 325 324 319 315 319 320 319 319 321 323 324 325 327 326 324 319 320 320 323 320 329 329 326 326 326 332 333 331 333 339
322 320 307 307 309 312 311 310 311 313 314 316 322 324 318 320 324 324 319 318 317 318 319 321 320 319 319 322 326 325 324 319 319 321 321 321 322 324 329 326 324 324 325 324 324 326 335
321 321 309 307 308 311 312 311 311 312 314 317 323 323 321 319 318 318 320 318 317 315 317 318 321 320 318 320 320 322 322 318 318 318 323 321 319 322 329 329 324 322 322 323 324 324 340
321 321 312 306 308 309 312 312 311 312 315 318 323 317 318 318 317 316 319 319 317 317 317 316 320 321 324 324 325 320 323 320 319 320 319 319 321 321 325 326 323 321 322 323 323 326 339
322 321 316 307 307 309 310 312 311 312 319 322 321 320 321 318 320 321 316 317 317 317 318 319 320 318 325 325 325 327 324 324 322 321 318 317 322 324 323 323 322 322 322 323 324 335 340
321 321 321 313 306 308 309 311 312 311 316 323 323 322 325 321 320 317 316 316 316 319 316 317 319 321 322 321 322 323 321 320 323 323 322 321 323 324 324 326 324 322 322 320 332 335 335
320 321 321 319 306 307 309 311 312 311 310 315 322 322 327 327 318 317 316 318 319 320 320 318 319 322 318 316 316 315 315 316 318 318 317 320 324 323 325 325 326 322 321 321 321 331 332
319 320 321 319 306 307 308 309 312 312 311 312 321 322 329 329 318 317 317 318 319 318 318 317 317 316 316 318 319 318 317 318 317 317 317 316 320 322 325 326 325 324 322 321 321 330 331
318 319 321 319 307 306 308 309 312 312 312 313 321 320 325 330 320 318 318 319 321 321 320 317 316 316 317 319 323 326 329 328 328 321 317 316 318 321 326 329 326 323 319 319 320 328 330
317 318 320 320 310 305 308 308 312 312 312 312 319 321 324 329 321 319 324 324 320 321 322 320 318 318 316 322 326 329 330 325 328 328 327 319 319 322 324 327 327 322 318 318 323 327 324
316 316 319 320 312 305 308 308 311 312 313 313 319 322 322 327 326 320 319 321 320 323 324 320 320 321 318 320 328 331 329 328 325 323 323 325 326 326 323 325 326 321 320 325 324 319 318
315 316 318 320 313 305 308 308 310 312 313 314 322 322 320 323 325 322 319 318 319 320 322 319 320 322 320 322 323 326 328 322 324 326 320 321 324 324 325 326 323 321 323 322 319 318 319

GFSGBSN_925_thetae_084.txt.gz
Theta_e
310 311 314 314 314 314 314 313 313 313 313 311 310 310 311 311 310 311 313 313 311 308 308 308 306 306 313 319 318 319 321 315 318 317 317 324 336 337 339 340 355 357 355 357 354 353 355
309 313 313 315 314 313 312 310 310 310 310 310 310 311 312 312 313 312 312 313 311 310 308 308 310 306 317 311 319 321 319 315 317 314 318 327 336 335 332 334 354 354 351 360 357 356 358
308 310 314 314 313 311 310 310 311 311 312 312 313 314 315 314 314 314 312 311 310 309 309 310 314 313 317 314 325 323 318 317 316 312 323 322 331 335 326 329 336 348 351 354 355 357 359
307 308 311 311 309 310 310 311 311 311 311 313 314 315 313 314 313 312 312 310 308 309 311 316 314 318 315 314 316 317 320 316 316 313 319 331 332 328 324 325 341 354 349 353 355 357 356
307 307 309 309 309 310 311 311 311 312 312 312 314 314 312 310 312 311 310 308 310 312 311 313 312 318 316 319 318 320 320 317 314 316 318 324 326 325 325 326 325 344 356 355 357 357 359
307 307 309 309 309 310 310 311 312 312 312 312 313 313 313 310 309 309 308 312 311 320 317 315 316 318 318 322 320 321 321 320 315 316 320 322 322 322 321 323 327 328 337 344 356 359 360
307 307 309 309 308 310 310 312 313 313 312 312 312 313 312 308 308 308 309 318 317 320 320 313 316 322 323 322 321 320 321 318 317 320 323 324 321 322 323 323 326 327 330 337 351 356 356
307 307 309 310 308 309 310 312 313 313 313 311 312 313 311 308 309 309 308 314 320 318 312 320 317 321 321 321 321 321 322 319 319 321 323 322 322 322 323 325 326 327 328 330 356 353 352
309 307 308 310 308 309 311 312 313 313 313 313 313 314 313 310 310 312 310 314 318 317 312 314 320 320 320 319 321 320 322 320 321 321 322 322 323 325 326 325 325 325 326 329 350 354 352
316 307 307 310 309 309 311 312 313 313 312 313 314 314 314 312 313 312 313 317 317 317 310 314 316 321 320 319 321 323 323 321 321 321 322 322 322 325 325 326 323 323 324 328 349 347 351
321 309 307 309 310 309 311 312 313 313 312 312 313 314 315 313 312 311 317 319 319 313 320 324 320 320 318 320 322 322 323 322 321 321 319 320 322 322 322 324 321 323 324 327 341 342 355
322 312 307 308 311 309 310 311 312 313 313 312 313 314 315 314 314 318 318 318 316 315 323 326 318 317 317 318 319 322 321 321 322 322 322 320 320 319 319 321 321 323 327 337 336 339 343
322 318 307 308 310 310 310 311 311 313 313 312 312 314 314 314 314 317 316 315 321 329 325 326 321 320 316 317 318 320 323 322 321 323 322 322 323 321 320 320 319 323 325 330 331 341 343
321 322 309 307 310 311 309 310 311 312 312 312 313 314 316 316 318 317 316 319 324 325 324 323 322 319 316 316 318 320 322 321 320 320 320 322 324 323 322 319 320 322 324 330 335 337 338
321 321 312 307 309 311 310 310 311 312 313 313 313 315 317 320 321 319 316 322 321 322 322 322 319 318 318 317 318 322 321 320 321 319 321 322 326 326 325 322 321 322 325 324 329 328 329
320 321 315 307 308 311 311 310 310 312 313 316 314 315 317 321 320 319 316 323 322 321 321 320 320 319 322 322 323 321 322 320 320 319 317 321 325 322 325 324 321 320 324 329 325 336 335
319 321 317 306 307 310 312 310 310 311 313 315 318 316 322 323 321 314 317 320 321 319 318 319 318 321 320 323 323 325 322 319 318 318 317 317 318 320 325 324 322 325 327 328 325 327 332
319 321 319 307 306 308 311 311 310 310 313 316 315 320 323 322 314 316 319 319 315 315 315 316 317 319 322 322 323 324 323 319 318 319 319 320 314 319 328 324 324 327 328 326 331 332 339
319 320 320 309 306 308 310 311 311 310 311 316 315 317 320 319 317 317 315 316 314 312 314 316 318 316 318 321 324 323 322 317 317 317 316 317 316 320 323 323 321 319 319 318 321 324 337
319 321 321 311 306 308 309 311 312 311 311 315 315 320 311 308 307 312 314 314 313 313 314 315 318 317 318 319 318 320 321 317 317 316 321 317 313 319 322 327 323 320 319 319 318 320 337
320 322 321 316 307 307 308 310 312 311 315 317 316 317 310 311 310 312 312 314 316 316 314 313 317 320 319 318 321 324 322 320 317 319 317 315 319 320 321 320 321 320 320 321 320 322 335
319 321 321 321 313 306 308 310 312 312 316 323 315 318 316 313 312 311 311 311 314 314 315 316 320 322 321 321 322 323 322 319 322 320 318 312 321 321 321 325 322 320 320 326 333 339 340
319 320 321 320 317 306 308 309 312 312 314 319 322 321 318 318 311 310 311 314 318 316 315 317 319 317 316 318 320 320 318 317 316 319 317 319 317 318 322 323 323 321 320 321 333 338 338
318 319 320 320 318 306 307 308 312 312 311 314 320 319 319 323 311 312 315 317 317 317 316 315 315 317 316 312 313 312 313 311 313 313 311 314 317 316 320 320 324 321 319 319 329 333 331
319 317 320 320 318 306 307 308 311 312 312 313 320 319 320 324 318 313 314 314 316 315 314 315 315 313 311 314 314 312 313 314 318 314 312 310 313 315 320 320 320 322 319 319 320 329 331
318 317 318 320 319 308 306 308 311 312 312 313 322 320 320 323 315 316 315 316 316 315 315 315 314 313 313 313 317 322 319 325 325 322 312 311 310 314 319 325 323 320 318 318 320 327 326
318 317 316 319 320 310 306 308 310 312 313 313 320 321 321 322 320 318 318 317 315 315 314 314 314 314 311 314 321 316 320 323 320 326 324 318 312 315 320 322 324 321 318 317 322 322 321
317 316 315 317 320 311 306 308 309 312 313 313 318 323 320 318 319 319 317 318 318 316 316 314 314 316 312 315 320 315 315 317 315 320 320 320 316 313 316 318 320 320 320 320 318 316 317
316 315 315 316 319 311 307 308 309 312 312 313 321 321 322 317 318 320 320 318 319 318 314 312 316 315 313 315 317 317 316 317 316 316 316 315 317 317 318 318 317 318 320 317 315 315 316

GFSGBSN_925_thetae_087.txt.gz
Theta_e
311 314 315 314 314 313 311 310 311 311 311 311 312 312 314 314 314 312 314 314 313 312 311 310 307 307 314 315 313 311 320 310 314 319 320 323 333 339 342 343 353 354 357 358 351 352 355
307 310 314 313 313 311 310 311 311 311 312 314 315 315 315 314 315 315 315 313 312 312 310 310 311 309 315 307 311 325 317 316 318 321 318 322 334 336 336 338 353 353 356 356 355 352 357
307 308 310 312 310 310 310 310 311 311 312 314 313 314 314 314 314 313 313 312 310 309 309 312 313 315 317 310 318 323 316 318 317 317 315 319 330 334 331 329 334 352 358 355 357 357 359
307 307 309 309 309 310 310 310 311 312 313 314 312 311 311 312 312 312 311 309 308 309 313 313 316 317 309 313 316 319 318 317 316 314 317 324 325 329 329 327 337 352 353 359 355 357 357
307 307 309 308 308 309 310 311 312 312 313 313 312 313 312 311 311 309 308 308 311 314 314 318 314 316 312 316 318 318 317 316 314 314 315 320 324 325 324 323 324 331 352 353 362 358 358
307 307 308 309 308 309 310 312 312 313 313 313 312 312 312 308 308 308 308 313 311 319 316 315 316 316 316 321 320 317 317 317 313 313 318 320 320 321 319 321 327 331 344 350 360 361 358
308 307 307 309 308 308 310 312 312 313 312 312 312 312 312 309 309 309 308 318 315 316 319 311 314 320 321 321 321 319 320 317 316 318 321 322 321 322 322 323 325 327 328 329 353 358 360
316 307 307 309 310 308 310 312 312 313 312 312 313 313 313 312 310 309 309 311 317 316 315 316 316 317 319 320 320 319 320 316 317 319 320 320 322 320 321 323 325 326 328 338 356 354 357
321 310 307 308 310 308 310 311 312 312 312 312 313 313 313 313 311 312 310 312 315 315 313 312 318 318 318 318 320 319 317 318 318 320 321 322 323 323 324 325 325 324 326 328 355 354 352
319 316 307 307 309 309 309 311 311 312 312 312 312 313 314 314 311 312 312 314 316 315 310 314 315 318 319 317 320 320 321 320 319 320 320 322 322 324 324 325 323 323 322 328 355 350 358
320 321 309 307 308 310 309 310 310 312 312 312 312 313 313 314 313 312 316 316 316 311 322 321 321 319 316 319 321 321 322 320 319 320 319 322 322 322 323 324 322 323 322 325 350 342 348
320 322 317 307 308 310 310 309 310 312 312 312 312 312 313 314 313 315 316 316 314 316 326 324 321 319 317 317 319 321 321 320 319 321 320 319 319 319 320 321 320 322 323 328 331 335 347
319 321 321 308 307 309 310 310 310 311 312 312 313 312 313 313 314 316 315 314 318 322 322 324 321 320 317 316 318 320 321 320 320 321 321 320 322 320 319 320 318 321 323 329 343 343 345
320 320 321 310 306 308 311 310 310 311 312 313 314 312 314 314 315 315 317 313 322 323 323 320 321 318 319 315 317 319 321 320 320 319 319 321 323 321 319 319 319 318 319 326 336 339 339
321 318 321 312 306 308 311 311 310 310 312 313 315 314 315 318 320 318 314 318 317 320 320 321 317 318 319 318 317 320 321 320 320 317 321 319 323 323 324 320 318 321 324 322 325 325 329
321 319 321 315 306 307 309 311 311 310 311 314 316 315 316 318 319 318 314 320 319 319 320 318 318 319 321 320 322 319 319 317 319 318 315 319 323 321 324 323 319 319 320 325 323 333 334
322 319 321 316 306 307 308 310 311 311 311 315 316 316 319 318 320 311 315 318 320 316 320 317 318 321 320 322 323 323 320 318 317 319 316 316 316 318 323 322 320 321 326 325 323 325 334
321 319 321 317 307 306 308 309 311 311 311 315 313 316 318 319 316 312 316 318 314 313 313 315 316 317 321 321 323 322 318 317 316 318 318 316 311 318 325 320 319 317 320 324 327 332 334
320 319 321 319 310 306 307 309 310 311 311 313 312 312 318 316 314 315 314 314 311 312 312 316 317 314 317 319 322 321 320 316 315 316 316 317 314 320 324 321 320 318 317 317 318 325 336
319 320 321 320 316 306 307 308 310 311 312 315 313 312 309 304 304 310 312 313 312 314 315 314 316 316 317 317 319 321 322 319 316 317 322 315 312 317 325 325 321 320 318 318 316 319 329
319 319 321 321 320 307 307 308 310 311 315 316 313 314 311 309 310 310 310 313 315 315 314 313 320 320 317 320 321 322 321 318 318 320 313 313 318 319 320 319 320 319 319 323 320 321 331
319 318 320 320 320 308 306 308 311 311 315 318 315 317 315 313 310 309 308 313 314 313 314 317 319 318 319 319 321 321 320 318 321 317 317 312 320 318 321 326 321 320 321 320 334 337 335
319 317 319 320 320 308 306 308 311 312 314 317 319 318 315 317 308 310 309 313 317 314 315 317 319 315 315 316 319 318 317 315 313 316 313 316 315 317 323 319 328 328 321 319 330 335 334
319 318 317 319 320 311 306 307 310 312 311 315 318 317 317 321 310 312 316 316 316 316 315 314 315 316 315 311 312 310 310 310 313 307 307 312 315 313 319 319 327 324 321 324 332 331 329
318 318 317 318 319 315 305 307 309 312 312 317 319 317 317 321 317 312 313 314 314 313 314 314 314 313 310 311 313 311 315 313 319 312 308 308 310 315 317 319 319 321 318 319 326 331 327
317 318 317 317 318 318 306 308 309 312 312 314 320 319 318 315 317 314 314 314 313 313 312 314 312 310 310 311 315 319 317 323 322 320 314 310 307 313 317 322 319 317 317 316 319 327 326
315 317 316 315 316 318 306 307 308 312 312 314 319 320 319 320 319 317 316 315 311 312 312 311 313 313 309 314 318 313 318 322 319 325 322 314 310 312 319 319 320 319 318 318 324 320 324
313 315 315 314 315 319 306 308 308 311 312 314 320 321 319 315 315 319 317 317 316 312 313 312 312 314 310 316 317 311 313 315 312 318 320 317 313 310 313 315 319 318 318 319 315 316 318
310 313 314 313 314 318 306 308 308 311 312 314 319 320 321 314 315 319 318 318 319 316 310 309 312 313 310 313 315 313 314 314 312 314 314 316 316 316 316 315 313 315 318 316 313 315 316

GFSGBSN_925_thetae_090.txt.gz
Theta_e
308 311 311 311 310 310 310 311 311 312 312 314 313 313 314 314 314 314 314 314 314 313 311 309 308 307 313 313 310 312 320 309 318 321 319 321 334 342 343 344 352 352 357 352 353 352 353
307 309 313 313 310 310 310 310 310 311 312 314 314 313 314 314 314 314 314 314 313 312 312 311 310 311 314 310 312 322 317 309 312 320 318 324 335 339 342 341 352 352 355 353 353 355 355
307 308 309 308 308 309 310 310 311 312 312 310 311 312 313 313 313 313 313 312 311 310 312 312 311 316 315 310 315 324 311 314 320 320 315 318 332 334 334 334 344 349 356 356 353 355 357
307 307 309 309 308 309 310 311 311 312 313 311 310 311 312 312 310 308 309 309 308 309 314 313 312 316 307 312 315 323 316 318 318 317 319 317 328 328 331 327 338 352 351 359 357 357 356
308 307 308 309 308 308 309 311 311 312 312 312 311 311 312 310 308 308 307 308 312 312 315 316 314 314 309 314 316 319 318 315 314 314 313 319 323 325 323 322 324 340 351 354 361 356 358
317 307 307 309 309 308 309 311 312 312 312 312 312 312 312 310 309 308 308 312 314 317 318 315 315 316 316 320 319 317 317 313 311 312 317 319 317 320 318 321 329 340 346 348 359 356 359
320 314 307 307 310 308 309 311 311 312 312 311 312 313 313 312 311 310 309 317 312 312 318 311 312 317 318 320 319 316 316 316 314 316 319 320 323 325 327 322 324 331 333 337 349 356 360
318 319 309 307 308 309 309 310 310 311 312 311 311 312 313 313 313 311 309 310 315 315 313 314 316 314 316 317 318 316 318 316 316 317 319 320 324 322 325 322 324 326 327 352 356 358 356
318 319 315 307 307 310 309 309 310 311 312 312 312 312 313 313 312 313 311 312 314 314 312 312 316 316 316 316 318 318 316 315 316 320 320 322 323 320 322 323 324 324 325 328 354 354 354
318 319 320 309 307 309 310 309 310 310 311 311 312 312 312 313 311 311 311 315 314 313 310 317 318 317 317 317 319 318 318 318 318 319 320 322 322 322 324 325 322 324 321 330 356 354 357
320 318 321 315 306 308 310 310 310 310 311 311 311 312 312 312 313 311 315 315 314 310 321 320 321 317 314 317 318 320 319 320 318 319 319 322 321 322 323 323 322 324 321 326 351 345 350
321 320 320 318 307 307 310 310 310 310 310 310 311 314 312 313 313 315 315 316 311 315 324 322 320 319 315 316 319 319 321 319 317 319 319 320 318 319 320 320 321 323 322 327 332 338 348
321 321 320 320 308 306 309 311 311 310 311 311 312 314 312 312 313 315 315 312 316 320 320 318 319 318 319 315 318 320 320 320 320 320 321 321 321 320 318 319 317 319 318 328 342 345 344
321 322 319 321 308 306 308 310 311 311 311 311 313 314 313 313 314 314 316 312 320 320 321 319 319 315 320 315 317 319 319 320 318 317 317 320 321 320 318 319 318 317 317 326 344 343 342
321 322 319 321 309 306 308 309 310 311 311 311 314 314 313 315 318 317 313 317 316 318 318 319 317 318 318 319 316 319 318 319 319 317 320 319 321 320 318 316 318 320 318 317 323 323 337
321 321 319 320 310 306 307 308 309 311 311 312 315 316 316 316 318 316 313 318 318 316 319 316 319 319 321 320 321 320 318 317 318 317 315 318 321 320 321 318 319 320 319 325 321 331 333
321 320 320 320 312 306 307 308 309 310 311 314 315 315 317 317 317 310 314 315 318 315 318 316 318 320 320 322 322 321 317 317 316 318 316 314 316 320 321 320 318 322 326 321 321 323 338
322 319 320 320 316 308 307 308 309 310 311 314 310 315 316 317 314 310 314 315 312 311 311 316 315 316 320 321 322 319 317 316 314 317 318 315 311 319 321 318 317 317 319 321 325 332 333
321 319 318 320 320 315 306 308 309 311 311 314 311 310 316 315 313 312 313 313 312 311 313 313 316 316 318 319 322 322 317 316 315 315 316 315 314 320 319 318 317 317 316 315 317 326 337
321 319 318 320 320 318 306 308 309 311 313 314 311 311 309 302 302 311 312 312 314 313 315 314 317 315 317 320 321 322 322 319 317 322 322 315 313 319 321 320 317 319 318 319 314 322 328
321 319 318 318 320 318 306 308 309 311 315 314 309 311 310 310 310 308 310 312 314 314 313 314 319 318 316 319 319 322 319 318 318 319 314 314 319 319 320 319 318 320 319 322 331 319 329
320 319 318 317 319 317 306 307 310 311 315 316 314 315 313 313 308 310 307 312 313 313 314 318 318 316 317 320 319 319 318 317 319 315 316 314 321 318 321 321 325 325 321 326 335 336 335
318 319 319 317 319 318 306 307 309 311 314 316 317 316 313 313 307 308 308 313 314 315 314 315 316 315 314 314 316 314 313 312 311 313 312 315 315 318 322 318 327 328 323 330 332 333 333
316 318 319 317 317 319 308 307 309 311 312 315 317 315 313 315 309 313 315 315 315 314 314 313 314 315 314 310 310 308 309 313 311 306 305 313 313 313 319 319 329 323 320 328 331 330 329
314 317 318 317 316 319 312 306 308 311 312 315 318 315 315 316 313 311 314 314 313 311 312 312 313 311 308 310 312 311 312 313 317 310 308 306 311 315 316 318 317 320 317 318 321 328 326
313 314 318 317 315 317 315 306 308 311 312 313 317 319 315 312 313 313 312 313 312 312 311 313 311 309 310 311 314 317 314 322 321 319 313 308 307 315 315 318 319 314 318 319 318 321 325
312 313 314 316 314 315 317 306 308 310 311 313 318 320 318 318 316 314 313 313 310 310 311 310 311 312 308 313 316 311 317 320 317 323 321 311 310 313 317 317 318 316 317 317 323 320 323
311 312 312 314 313 315 317 306 308 310 311 314 319 319 318 313 313 318 315 313 313 310 312 310 311 311 308 316 315 309 312 313 312 316 319 314 311 308 311 315 316 316 317 318 315 315 318
312 310 310 312 312 314 316 306 308 310 311 313 318 318 319 313 313 317 318 318 317 314 309 308 311 311 309 313 313 310 312 312 309 310 312 315 314 315 313 313 311 312 317 316 312 315 317

GFSGBSN_925_thetae_093.txt.gz
Theta_e
309 310 311 310 310 309 310 310 311 312 313 313 314 313 313 314 312 313 314 314 314 313 312 311 308 307 312 314 315 310 322 311 327 320 322 323 330 344 346 346 349 354 356 353 352 354 353
307 308 310 308 308 309 310 310 311 312 313 313 313 313 314 314 313 312 312 313 312 312 311 310 310 308 314 315 314 324 322 321 327 319 319 326 336 342 343 343 350 352 355 354 353 355 353
307 307 308 309 308 309 309 311 311 312 312 312 312 313 313 312 311 311 311 310 310 309 311 312 311 315 316 314 314 323 320 320 320 318 319 322 336 339 339 336 338 354 357 356 355 355 356
314 307 307 309 309 308 309 311 311 312 311 312 312 312 312 309 310 308 307 307 307 309 313 312 314 316 311 311 314 320 317 318 316 317 317 319 331 334 335 332 341 355 356 362 357 355 356
319 313 307 308 309 308 309 311 311 311 311 311 312 312 312 311 309 308 307 309 315 310 312 314 314 314 313 314 316 321 316 317 318 315 314 318 323 331 328 329 353 351 361 360 360 355 357
318 319 308 307 309 309 309 310 310 311 311 311 311 312 312 312 311 310 311 312 316 316 316 316 316 318 318 320 317 319 316 314 315 315 318 321 325 333 327 328 345 357 355 356 360 358 357
318 318 312 307 307 309 309 309 309 310 311 311 311 311 312 312 312 310 311 315 315 316 318 316 316 316 317 319 317 316 317 314 315 318 323 324 335 341 334 328 330 348 350 349 349 355 357
318 318 319 309 307 308 310 309 309 309 310 311 311 312 312 312 313 311 309 314 317 316 319 316 317 315 315 316 318 317 317 317 316 317 322 328 336 333 329 326 328 333 341 339 358 355 357
319 318 319 316 307 307 309 310 309 309 310 310 311 311 312 312 312 311 311 312 313 314 317 315 316 317 317 316 318 319 319 317 317 322 325 327 331 326 328 327 328 329 332 355 354 355 351
320 319 319 321 309 307 308 310 310 310 310 310 310 311 312 312 311 311 312 314 313 313 318 322 321 319 319 318 321 319 319 318 319 321 326 331 324 326 325 328 328 331 327 337 357 355 361
320 320 320 320 312 306 308 310 311 310 310 310 310 311 313 312 312 313 314 314 313 309 324 321 322 317 317 319 320 320 319 321 320 323 325 327 326 326 327 327 326 331 325 333 354 353 356
321 320 321 320 313 306 307 309 310 311 311 311 311 312 313 312 312 314 314 314 311 320 322 322 320 320 318 318 321 321 321 321 320 322 323 325 321 325 326 325 326 326 331 337 345 348 347
321 320 321 320 316 307 307 308 309 310 310 311 311 313 313 312 315 314 314 315 321 323 321 320 320 320 320 318 321 323 323 324 325 325 325 324 323 322 321 323 323 324 325 336 340 344 335
321 321 321 320 317 307 307 308 309 309 310 311 312 314 313 312 313 313 314 320 323 321 322 320 320 317 321 318 320 322 324 325 321 323 324 325 326 324 322 324 324 325 326 332 339 344 342
321 322 319 320 317 308 306 307 308 309 310 311 314 314 313 314 316 314 320 323 320 320 319 320 320 322 322 319 319 322 322 326 325 323 325 324 323 322 321 322 323 323 324 327 334 333 340
320 321 320 321 318 312 306 307 308 309 310 312 314 315 316 316 316 314 321 320 321 317 320 318 322 321 324 323 323 324 321 319 321 320 320 324 325 323 324 320 321 324 324 327 328 339 341
320 321 319 320 320 318 308 307 308 309 311 313 314 321 316 316 315 320 321 320 320 316 318 318 319 323 322 325 324 325 320 318 318 319 319 321 324 324 324 325 325 325 326 327 329 333 336
319 321 319 319 320 320 312 307 308 310 311 315 313 323 315 315 321 317 321 319 312 313 314 317 317 320 323 323 324 320 320 318 316 319 321 319 323 326 324 320 320 322 328 330 328 337 342
319 320 319 318 320 320 313 307 308 311 312 315 318 318 315 314 320 318 317 314 315 316 316 318 319 320 320 323 326 324 321 317 318 317 320 320 322 327 325 323 323 327 323 324 330 337 343
319 320 320 318 319 320 312 306 308 311 314 314 317 318 314 310 309 316 315 315 317 315 318 318 321 318 321 324 324 324 323 321 320 323 322 319 321 327 328 326 324 329 330 322 326 329 338
318 320 320 318 318 320 312 306 308 311 314 313 314 317 312 317 315 313 314 315 316 317 316 320 322 320 319 324 322 323 321 321 322 320 319 321 324 324 324 324 325 327 335 336 326 326 332
317 319 319 318 317 319 313 306 308 311 313 316 321 322 317 319 311 314 313 316 315 315 317 321 320 318 321 324 322 322 319 321 319 320 322 321 327 323 326 324 328 325 330 338 337 337 337
315 318 318 318 316 318 316 306 307 311 313 317 316 315 319 313 312 314 315 316 317 317 315 317 318 318 319 317 316 318 315 313 313 318 321 322 322 327 328 325 329 330 327 329 333 336 337
315 315 316 318 317 317 319 306 307 310 312 314 316 317 320 317 315 317 316 317 316 316 315 314 317 318 316 313 313 313 316 318 317 314 313 323 323 322 326 329 329 325 323 327 330 333 333
312 313 314 316 317 316 318 307 307 310 311 314 316 318 321 318 315 315 317 317 315 314 315 314 315 314 313 317 317 320 318 319 321 318 315 318 322 323 328 327 323 323 321 322 325 328 332
312 312 313 313 316 315 317 309 307 309 311 313 316 318 320 319 317 314 316 316 318 317 317 315 313 311 317 320 322 322 324 323 322 320 319 317 321 323 324 324 325 322 321 321 322 327 331
313 311 311 313 313 313 316 311 307 309 311 313 317 318 319 324 321 316 318 318 315 315 319 316 316 316 315 322 325 328 328 324 327 322 322 320 321 322 325 323 321 321 321 321 327 327 326
314 312 311 311 312 312 315 311 307 309 311 313 318 318 319 319 320 319 316 317 316 316 320 316 317 317 318 325 325 327 329 325 324 323 325 321 324 324 322 324 325 320 321 323 323 322 323
313 313 311 309 311 312 314 311 307 309 310 312 318 317 318 319 319 317 317 317 317 317 317 313 319 319 317 323 322 319 324 321 319 325 318 328 323 331 323 324 320 320 322 320 320 322 323

GFSGBSN_925_thetae_096.txt.gz
Theta_e
308 310 310 308 309 309 310 311 312 313 314 315 314 311 313 314 314 313 313 314 314 311 312 310 308 306 317 321 320 318 322 308 317 326 324 324 327 342 356 352 351 357 356 354 353 355 354
308 308 309 309 308 309 310 311 311 312 312 314 314 313 312 311 312 313 312 313 312 312 310 309 308 308 317 319 317 326 321 323 324 323 324 323 327 342 350 350 351 355 355 354 354 355 353
315 307 308 309 309 308 310 311 311 311 311 312 313 313 313 311 312 311 310 310 309 308 309 311 309 317 317 318 316 327 323 326 324 323 325 324 329 345 343 340 343 353 358 356 357 355 355
318 313 307 308 309 308 309 310 310 311 311 311 312 312 312 310 310 308 307 307 308 310 308 310 310 318 316 313 317 323 320 324 323 321 322 327 339 341 340 337 352 359 358 365 358 357 356
318 318 308 307 309 309 309 309 310 310 311 311 311 312 312 312 311 309 308 311 316 309 309 311 319 317 317 314 318 319 316 318 318 319 319 325 336 340 337 345 359 358 365 363 363 355 357
318 318 314 307 307 309 309 309 309 309 310 311 311 311 312 312 312 310 312 313 315 317 317 318 317 322 320 322 320 319 318 318 318 319 320 328 338 343 338 343 360 360 362 361 364 359 354
319 317 319 310 307 308 310 309 309 309 309 310 310 310 312 312 312 311 314 318 322 324 321 321 320 319 319 321 321 320 318 318 318 319 322 325 338 347 341 337 336 351 354 358 358 358 359
319 319 318 319 308 307 309 310 310 310 309 309 310 310 311 312 312 311 311 320 320 318 321 320 319 319 318 319 322 322 318 320 319 319 323 325 333 340 341 332 336 346 354 355 356 357 357
320 319 320 321 311 307 308 310 310 310 310 310 310 310 312 312 312 313 316 318 316 316 322 320 319 319 320 319 322 322 321 320 319 319 324 324 327 337 336 332 335 341 349 348 358 356 354
320 320 320 320 313 307 307 309 310 310 310 311 310 310 312 312 314 316 318 317 315 315 323 323 322 321 321 321 323 321 320 321 319 319 321 323 327 333 336 339 335 339 335 348 358 356 361
320 320 321 320 317 307 307 308 309 309 310 310 311 311 312 312 317 319 317 316 315 316 324 322 322 320 322 323 323 322 321 321 321 319 323 325 328 332 334 338 335 336 332 340 347 352 356
320 320 321 320 320 309 306 307 308 309 309 310 311 311 313 313 315 317 316 316 316 323 325 322 322 322 322 323 323 322 323 322 323 322 323 327 328 329 331 333 333 330 332 337 345 349 356
320 321 321 319 320 309 306 307 308 308 309 310 311 313 313 313 320 316 316 320 325 323 322 322 322 322 323 323 324 324 325 324 325 325 322 326 328 327 329 331 331 332 335 339 342 345 344
320 321 320 320 319 311 307 307 308 308 309 310 312 314 314 314 315 316 319 325 323 322 323 322 322 322 321 322 324 325 325 325 326 324 324 327 327 327 326 328 331 334 334 339 345 346 342
319 321 319 319 320 316 312 307 308 308 309 311 314 316 317 317 316 317 325 322 323 322 321 322 323 322 322 322 323 325 326 325 325 325 325 325 326 325 325 326 326 331 334 334 337 339 341
319 319 319 318 321 320 318 308 308 308 310 313 318 320 321 318 318 321 324 320 322 321 321 321 324 325 324 322 322 324 324 325 326 325 326 326 326 324 324 324 325 326 329 335 334 342 341
319 319 319 317 320 321 320 308 308 308 311 316 320 322 319 318 318 324 323 322 321 319 320 321 321 325 325 324 322 323 325 323 324 325 325 326 325 325 325 325 325 326 327 327 332 335 337
319 319 319 317 319 320 319 307 307 309 313 319 321 324 319 317 325 322 322 319 312 316 318 320 321 323 325 326 323 324 324 324 320 323 325 326 326 329 325 325 326 325 326 327 328 336 334
318 319 320 317 317 319 319 306 307 310 314 319 324 324 319 318 323 322 321 317 318 317 317 319 321 323 325 326 327 324 323 322 322 322 325 325 326 329 328 327 327 326 326 328 328 328 336
316 318 320 317 317 318 319 307 307 311 314 317 324 324 321 322 320 319 320 319 318 318 318 319 322 322 324 325 326 324 323 321 322 323 323 322 326 329 329 326 327 330 329 327 328 329 330
313 317 318 317 318 317 319 307 307 311 314 317 322 322 319 319 319 319 319 318 318 317 318 318 323 322 323 325 324 324 323 323 322 324 324 325 329 328 328 328 328 329 329 327 328 328 330
311 314 317 318 317 317 318 308 307 311 314 322 326 324 322 321 320 319 315 319 317 316 318 318 321 321 322 325 325 323 323 323 323 323 325 326 328 328 329 328 328 332 333 331 329 330 329
312 314 316 317 317 317 316 311 307 310 315 322 323 323 326 315 319 319 319 318 317 317 318 321 321 321 321 321 320 321 320 319 320 324 326 326 328 328 330 328 329 330 330 331 334 334 334
312 312 313 314 317 318 316 315 307 309 312 318 320 324 326 320 319 319 318 317 317 318 317 314 321 321 319 318 318 318 320 321 321 321 323 326 331 329 328 329 332 329 327 329 331 332 333
313 313 312 313 314 317 315 316 307 308 311 317 319 323 327 320 319 319 318 317 319 319 317 314 319 320 319 319 321 322 322 322 322 322 321 326 327 328 329 330 329 327 326 327 328 331 331
313 313 312 312 313 316 314 315 307 308 311 315 319 321 326 323 320 319 319 319 320 321 319 317 318 318 321 322 322 325 326 325 324 323 322 322 325 325 324 328 329 328 324 323 325 330 330
312 313 313 312 312 314 313 314 309 307 310 313 320 319 324 325 320 320 320 320 320 320 321 320 320 320 321 320 323 326 328 327 326 324 325 324 324 325 325 324 324 325 323 323 329 331 330
311 312 313 313 311 313 313 314 310 307 310 312 321 320 323 325 324 321 319 322 321 321 321 322 321 321 321 322 322 327 327 327 326 326 326 324 325 325 324 325 327 323 324 326 328 326 327
311 311 312 313 311 311 312 314 311 307 310 311 321 319 319 324 324 321 321 320 321 321 321 321 324 321 321 321 322 324 324 324 325 327 325 330 323 328 323 326 326 326 325 324 324 325 326

GFSGBSN_925_thetae_099.txt.gz
Theta_e
308 309 309 308 308 309 311 311 311 311 313 314 313 314 314 314 313 313 313 313 312 312 311 310 308 306 318 323 324 325 320 316 315 325 328 328 328 342 355 356 353 356 357 355 354 353 354
314 307 309 309 308 309 310 311 311 311 311 312 313 312 312 313 311 311 310 311 310 310 309 308 307 306 320 323 320 325 323 317 317 326 326 326 327 333 349 355 355 356 356 355 355 356 357
318 312 307 309 309 308 309 310 310 311 311 311 312 312 312 311 310 309 308 307 307 307 308 308 307 316 321 321 319 327 322 320 320 325 327 324 326 332 348 352 349 355 358 357 358 356 355
318 318 308 307 309 309 309 310 310 310 311 311 311 312 312 312 311 310 307 307 310 311 307 307 307 319 323 316 319 325 325 326 322 323 326 325 327 335 347 343 353 362 358 365 360 356 355
318 318 315 307 308 309 309 309 309 310 310 310 310 311 312 312 312 311 309 312 315 309 307 308 321 322 322 315 319 324 322 326 324 323 324 325 334 343 345 348 362 363 367 365 364 356 358
319 318 319 310 307 308 309 310 309 310 310 310 310 310 311 312 312 312 310 313 317 316 316 320 321 322 321 322 322 320 319 321 321 322 323 324 337 344 345 348 368 362 364 364 367 361 358
320 319 318 319 308 307 309 310 310 310 310 310 310 310 311 312 312 312 316 321 326 329 325 324 322 321 321 323 323 321 320 319 320 322 324 323 335 345 344 345 351 355 357 360 363 357 356
320 320 320 321 311 307 307 309 310 310 310 310 310 310 311 312 312 312 311 323 321 321 323 322 320 320 321 322 325 323 321 322 321 321 324 325 331 337 343 341 341 349 357 357 361 356 353
320 320 320 320 314 307 307 308 309 310 310 310 311 311 311 312 312 312 320 320 320 321 325 321 321 320 320 321 324 324 322 322 322 320 323 325 326 330 340 342 339 342 356 353 355 359 353
320 320 321 320 319 308 307 307 308 309 309 310 310 311 311 312 314 320 321 321 320 321 327 324 323 323 322 322 323 324 323 322 322 321 323 325 327 328 342 343 338 341 351 355 359 360 372
320 320 321 320 321 311 307 307 308 308 309 309 310 311 312 312 318 321 321 321 320 322 329 323 323 323 324 324 324 324 323 323 323 321 322 324 325 328 336 338 339 339 338 358 360 358 358
321 320 321 319 321 313 308 307 307 308 308 309 310 311 313 316 316 319 321 321 322 326 327 324 323 323 323 323 324 323 323 324 324 323 322 324 326 327 332 333 337 338 336 338 351 354 362
320 320 320 319 320 314 311 307 307 308 308 309 311 312 313 318 323 321 320 323 330 325 322 323 323 322 323 324 325 324 323 324 326 325 324 324 328 329 330 331 335 339 338 343 346 363 353
319 319 320 319 320 319 318 312 308 308 308 310 312 314 318 316 320 320 322 328 328 321 323 322 322 322 322 323 324 325 325 326 325 326 326 323 326 329 328 331 334 338 338 342 348 347 348
318 319 319 319 319 320 320 318 309 308 308 310 315 319 321 321 319 321 326 331 325 323 322 322 324 323 323 322 324 325 326 326 326 327 327 325 325 327 328 329 331 333 340 338 341 341 349
318 319 319 320 319 320 320 319 309 308 309 313 319 322 323 322 322 323 328 320 324 322 322 323 324 328 326 323 321 324 326 326 326 326 327 329 328 327 326 326 327 328 333 340 339 345 348
317 319 319 318 319 318 320 317 308 308 310 316 320 324 324 322 323 326 327 324 321 320 319 321 323 324 327 326 323 324 327 325 327 329 326 328 328 328 326 326 327 327 329 334 336 337 340
316 318 319 319 318 317 318 316 307 308 313 321 324 324 323 322 326 325 324 320 313 318 318 319 321 323 326 329 325 324 328 327 324 326 327 327 328 329 327 326 325 327 326 329 333 339 336
313 315 318 319 318 318 317 316 307 309 312 320 327 327 323 322 327 324 323 319 318 319 318 318 322 322 325 326 328 326 327 325 324 324 328 327 327 330 330 326 325 325 327 326 328 329 333
312 313 316 318 317 317 317 317 307 309 312 317 327 325 323 323 325 322 321 321 320 319 318 317 321 322 323 325 325 327 325 324 324 324 331 327 327 328 332 330 328 326 327 327 327 329 328
312 312 314 317 318 317 317 318 307 309 312 317 326 325 323 323 321 320 320 320 318 319 319 319 322 322 323 326 326 326 325 324 324 327 327 326 329 329 329 331 330 327 325 327 328 330 331
313 312 313 316 317 317 317 318 307 309 313 322 329 326 322 323 321 320 317 322 319 317 318 320 320 322 322 325 328 328 325 326 327 325 327 329 332 332 330 330 328 328 328 328 327 327 328
314 313 313 313 316 315 317 318 308 308 315 325 325 325 328 319 321 321 322 320 319 316 318 320 321 322 322 324 323 324 323 324 326 325 327 329 334 335 335 329 330 331 331 330 329 328 329
313 314 313 312 313 314 316 316 312 307 310 319 324 326 327 325 321 321 319 318 317 319 318 316 320 321 322 321 322 322 321 321 323 322 325 329 334 333 336 335 332 332 330 331 333 334 333
311 313 314 313 312 313 315 315 316 307 309 315 322 326 329 326 321 321 319 318 319 320 319 315 318 322 320 320 323 324 324 325 324 323 324 326 328 335 335 336 333 332 331 331 331 333 333
311 312 313 313 313 313 314 316 316 307 309 312 321 323 327 328 322 320 320 320 322 323 320 318 319 320 320 322 322 326 331 330 328 324 324 324 327 331 331 335 336 333 327 327 327 334 332
311 311 311 313 313 312 312 315 316 308 309 311 321 324 326 327 323 321 320 321 321 322 323 321 320 319 320 323 324 325 330 328 329 326 326 326 327 327 328 327 334 330 326 325 328 334 333
311 311 311 312 313 313 311 313 315 309 308 311 321 324 326 326 325 322 322 321 320 322 324 324 322 322 322 324 324 326 327 327 327 327 328 328 329 328 328 333 331 326 324 327 332 329 331
312 312 312 312 313 312 311 312 315 308 308 310 319 323 322 327 327 323 321 321 321 323 323 323 325 324 324 323 323 326 325 326 324 326 326 329 326 330 327 334 329 327 330 328 328 329 329

GFSGBSN_925_thetae_102.txt.gz
Theta_e
315 308 309 309 308 309 310 311 310 311 311 312 312 312 312 311 312 311 311 311 312 311 311 310 308 306 315 326 324 326 321 318 314 316 326 331 330 338 352 355 355 357 356 356 356 355 353
319 313 308 309 309 309 310 310 310 310 311 311 311 312 312 311 310 309 308 308 309 309 309 307 307 306 320 323 322 328 325 323 315 319 326 330 329 332 346 351 357 356 356 356 355 356 355
318 319 309 308 309 309 309 309 310 310 310 310 311 311 312 312 311 310 308 307 307 308 308 308 308 316 320 323 320 324 324 317 316 320 327 328 327 329 335 348 353 353 359 358 360 360 357
318 318 316 308 308 309 309 309 309 309 310 310 310 310 311 312 312 311 309 310 312 315 307 307 308 319 323 319 320 325 325 322 318 321 327 327 326 327 332 346 350 358 359 367 361 360 353
319 319 319 311 307 308 309 310 310 310 310 310 310 310 310 311 312 312 311 311 315 314 307 308 320 321 325 317 317 323 325 325 324 322 325 327 327 328 334 348 357 363 369 366 364 358 358
320 319 319 319 309 307 308 309 310 310 310 310 310 310 310 311 312 312 312 312 315 316 320 320 321 324 323 322 320 325 323 325 325 324 326 326 328 333 342 348 362 362 366 364 366 363 358
320 320 319 320 312 307 307 308 310 310 310 310 311 311 310 311 312 313 312 320 327 328 326 326 324 322 323 323 323 322 321 323 323 323 324 324 326 337 345 346 349 351 364 365 355 354 358
320 320 320 319 316 307 307 308 309 309 310 310 310 311 311 311 312 313 312 322 322 321 324 326 321 319 321 323 324 324 321 321 321 321 323 325 324 330 339 345 356 355 356 360 350 346 357
321 320 321 320 320 309 307 307 308 308 309 309 309 310 311 311 312 314 318 321 321 322 326 324 321 320 320 320 323 324 323 322 322 321 322 324 326 327 334 341 347 352 354 353 351 346 349
320 321 321 320 320 316 309 307 307 308 308 308 309 309 311 312 315 321 323 322 322 323 328 325 323 323 321 321 322 325 323 323 323 322 321 322 326 327 330 336 345 359 350 350 352 349 357
320 320 321 320 320 317 310 308 307 307 308 308 308 309 311 312 316 320 323 322 322 323 335 324 324 323 324 322 324 324 324 323 323 322 322 322 324 326 327 333 343 344 349 351 351 350 354
319 319 321 320 320 318 314 313 308 307 308 308 309 310 312 316 315 318 321 323 323 328 332 324 323 324 323 323 325 325 325 324 325 324 322 322 324 325 326 332 337 338 346 350 350 353 364
319 319 319 319 319 321 320 319 316 309 308 308 309 311 312 315 325 322 322 323 330 333 324 325 324 323 323 324 324 324 324 324 325 326 326 323 323 327 327 328 332 340 342 355 363 362 363
317 318 319 319 318 320 321 321 320 311 308 308 309 312 315 316 320 322 323 327 334 324 324 322 322 323 321 326 325 325 324 324 324 326 326 324 323 327 328 329 331 337 342 342 357 359 363
316 318 319 319 318 319 320 321 320 310 308 309 311 319 318 321 319 320 326 332 333 323 322 322 323 327 325 323 323 326 325 325 325 325 328 327 326 325 327 328 330 334 336 338 341 345 352
316 318 319 319 318 319 319 320 319 310 308 310 316 322 323 322 323 323 327 329 326 322 321 321 322 326 327 328 324 325 326 326 325 326 326 328 331 328 328 328 329 331 333 335 345 347 353
314 315 317 319 318 318 318 320 315 308 309 314 319 326 324 322 322 325 329 328 323 321 319 319 322 323 324 330 327 326 326 327 327 327 328 327 330 331 328 328 327 327 329 331 334 342 346
312 312 314 318 319 318 317 319 313 307 310 322 324 325 325 322 324 326 327 325 313 318 319 319 320 321 323 327 327 329 330 328 326 327 329 329 329 331 330 328 327 326 327 329 333 338 338
312 312 313 316 317 318 319 318 314 307 310 316 327 327 326 322 325 328 326 321 318 319 318 318 319 323 322 327 327 329 329 327 326 325 328 328 330 330 331 330 327 326 327 327 327 330 338
313 312 313 314 316 317 319 317 317 307 309 315 326 330 326 324 324 327 326 322 320 321 319 318 318 322 322 325 327 328 332 326 325 324 335 326 328 330 330 333 332 327 326 326 326 328 328
312 313 313 313 315 317 317 317 319 307 309 316 325 328 326 323 323 323 321 322 320 319 320 319 320 322 323 327 329 330 327 327 325 325 325 326 329 330 328 329 331 331 326 326 328 327 329
311 311 314 313 313 315 316 318 318 308 309 320 327 330 329 324 323 321 317 319 320 319 319 320 320 321 322 322 330 330 328 328 329 328 327 327 330 333 334 331 332 331 331 326 326 327 328
310 310 314 314 313 313 315 318 318 309 311 326 326 327 329 324 322 321 322 322 320 319 319 318 320 321 323 325 324 325 324 324 328 328 328 330 334 337 340 337 334 332 333 332 327 328 329
309 309 312 313 314 312 313 316 316 311 308 316 324 326 331 328 323 322 321 320 318 319 320 317 319 321 323 322 321 321 321 323 323 324 325 329 335 334 341 337 338 336 332 332 336 330 342
309 310 312 312 313 313 312 315 316 315 308 313 317 325 329 334 328 322 321 319 319 320 318 317 317 321 322 319 321 325 324 326 325 323 325 327 333 338 341 338 336 334 334 332 336 338 336
309 310 311 311 312 313 313 313 316 316 308 310 318 323 325 331 328 322 320 320 321 323 323 319 319 319 320 321 323 328 332 334 331 326 324 329 333 337 337 341 339 337 332 331 332 342 337
309 311 311 311 311 312 313 312 316 315 309 309 317 323 323 330 328 322 321 322 321 323 325 323 320 320 320 324 325 331 333 330 330 333 326 331 332 332 332 338 335 332 331 329 331 338 333
311 311 311 312 312 312 313 312 314 315 309 309 317 323 323 330 328 324 321 322 322 323 325 324 322 323 322 325 325 328 328 331 330 330 331 332 331 331 334 338 338 329 328 328 337 331 333
310 311 311 312 313 313 313 312 313 315 309 309 315 323 322 325 329 326 322 321 321 323 324 325 326 328 324 325 325 325 326 325 327 327 326 329 331 333 333 339 333 330 334 332 331 331 330

GFSGBSN_925_thetae_105.txt.gz
Theta_e
319 313 308 309 309 309 309 310 309 310 310 310 311 311 312 311 311 310 308 308 309 310 310 310 308 307 312 322 322 323 320 319 318 312 314 322 329 330 350 356 354 359 358 355 353 350 354
318 319 309 308 309 309 309 309 310 310 310 310 310 310 311 312 311 311 309 307 307 307 307 307 307 307 320 319 327 326 327 323 318 311 319 324 330 328 335 350 354 356 356 360 354 359 358
318 318 317 308 308 309 309 310 309 310 310 310 310 310 310 311 312 311 311 309 310 312 310 307 308 316 318 318 321 326 325 320 317 314 319 324 329 327 328 334 352 356 361 360 360 359 361
319 319 319 313 308 308 309 310 310 310 310 310 310 310 310 310 311 312 312 310 312 315 311 307 308 319 321 320 320 320 323 320 316 316 319 324 327 325 325 337 349 356 359 365 362 360 358
320 319 319 319 309 308 308 309 310 310 310 310 310 310 310 310 311 312 312 312 311 315 311 307 319 318 323 320 317 319 323 324 318 317 319 324 326 323 325 328 342 361 364 363 365 360 360
320 319 319 319 317 308 307 308 309 310 310 310 310 310 310 310 311 312 312 314 319 315 321 319 321 322 324 323 321 318 321 325 323 321 321 322 324 325 325 328 350 360 361 361 362 354 352
320 320 321 321 320 308 307 307 308 308 309 309 309 310 310 310 311 312 313 316 323 325 323 327 325 323 322 323 323 324 324 323 324 323 322 324 323 324 327 333 339 356 360 356 356 349 350
321 320 321 321 320 313 308 307 307 308 308 308 308 309 309 310 311 312 312 317 322 321 321 323 326 324 319 320 323 323 322 321 323 321 321 321 321 322 325 342 351 352 353 356 351 347 346
321 321 321 320 320 320 311 308 307 307 307 308 308 308 309 310 312 313 314 318 321 322 322 325 325 320 318 319 319 323 320 319 319 319 319 319 322 323 324 348 348 353 355 355 354 349 345
320 319 320 319 319 320 314 311 309 308 307 308 308 308 309 310 316 318 321 323 322 322 324 327 321 321 320 319 319 321 322 321 321 319 319 318 321 323 324 344 346 355 351 350 350 350 355
319 319 319 320 320 320 317 316 316 313 309 308 308 308 309 310 311 315 320 322 323 323 332 323 323 322 323 320 322 321 323 322 322 322 321 318 319 320 323 327 347 354 349 348 346 349 354
317 318 318 319 320 320 321 321 320 320 313 309 308 308 309 314 318 317 321 322 322 326 333 324 323 323 322 321 322 324 324 322 322 322 323 320 320 320 323 328 344 347 349 349 349 352 357
315 317 318 318 319 321 320 321 321 321 315 310 308 308 309 310 319 321 321 321 327 333 329 325 322 322 322 323 323 324 324 324 322 324 323 324 321 320 323 335 346 348 351 358 356 352 354
315 317 317 318 319 319 321 320 320 320 314 309 308 309 311 312 314 319 320 324 334 334 328 321 321 322 322 325 325 324 324 322 322 322 322 324 322 321 326 326 342 350 343 348 356 361 359
313 315 316 318 318 318 320 319 320 320 312 308 309 315 320 315 316 316 321 330 334 329 321 320 320 324 327 326 326 325 325 322 321 321 322 325 326 326 325 326 326 332 338 337 347 349 355
312 312 314 317 318 318 319 318 319 318 310 309 313 318 321 323 320 321 325 326 328 322 319 317 319 321 328 327 328 326 327 327 326 324 321 322 326 327 328 324 326 327 331 332 341 355 357
313 312 312 314 317 318 318 318 319 314 308 317 318 323 324 324 323 323 325 327 329 320 318 318 318 320 325 329 327 330 330 328 326 325 326 327 326 326 328 326 326 325 328 329 337 339 349
313 313 312 314 314 317 317 318 318 312 308 318 324 326 324 323 323 323 324 326 324 319 319 318 318 318 321 327 326 331 330 330 327 325 328 326 326 327 328 328 326 325 324 324 327 334 338
316 312 313 312 313 315 316 317 316 314 308 312 324 326 326 325 323 322 327 326 321 318 319 317 317 317 321 327 330 331 329 327 327 326 326 324 327 328 328 327 328 324 324 323 322 322 328
318 312 312 313 313 313 315 316 317 316 308 312 324 329 328 326 325 322 326 327 324 320 320 319 319 318 320 326 326 331 329 327 326 325 330 324 324 326 328 329 328 332 326 324 323 322 325
318 313 310 313 314 313 313 315 317 317 308 313 324 327 328 328 323 321 324 323 322 319 320 318 320 321 323 326 329 329 326 326 327 327 325 323 325 326 328 331 328 329 330 326 323 324 328
317 312 310 312 314 314 313 314 316 317 308 315 324 328 329 330 328 323 319 319 321 320 319 319 320 321 323 327 329 329 329 329 330 327 327 324 327 335 335 336 336 335 331 332 329 324 344
318 312 309 311 313 314 313 313 315 316 310 321 326 327 330 330 329 323 321 323 322 320 318 319 319 321 324 326 325 324 325 326 328 329 327 329 333 334 338 334 336 338 334 334 338 338 337
315 310 308 310 313 313 314 313 315 315 314 311 317 321 331 333 332 332 325 322 321 320 321 319 317 320 323 321 318 319 318 321 323 324 321 329 333 333 337 336 340 336 331 332 338 338 336
311 309 309 310 311 312 313 314 313 315 315 311 311 318 328 333 333 333 328 321 321 319 318 317 320 320 318 318 320 326 328 328 329 328 323 326 330 334 336 336 337 337 335 333 333 337 337
309 309 310 311 311 311 312 313 313 313 314 311 310 315 323 330 332 331 330 322 320 323 323 319 319 318 319 319 322 331 332 329 332 330 328 333 334 334 332 337 341 338 332 331 329 341 334
309 310 310 311 311 311 311 312 313 313 314 313 309 313 322 328 327 329 330 323 321 323 326 323 320 319 319 323 326 334 334 329 331 332 334 331 330 333 335 338 336 333 332 330 340 340 334
309 310 310 311 311 312 312 312 313 312 314 312 311 316 321 328 327 329 326 326 323 323 327 324 324 323 322 325 328 334 330 328 328 331 335 334 333 335 329 331 336 330 330 329 333 332 334
310 309 310 311 312 313 313 312 313 312 314 311 313 318 322 327 326 321 320 321 321 323 324 327 329 329 327 327 330 330 329 326 327 332 327 332 332 335 333 332 325 328 332 332 331 329 329

GFSGBSN_925_thetae_108.txt.gz
Theta_e
318 319 309 308 309 309 309 309 309 309 309 309 309 309 310 311 311 311 310 308 307 307 307 308 307 307 312 318 320 320 321 321 320 315 314 314 322 327 330 351 356 358 353 354 353 352 352
318 318 317 308 308 309 309 309 309 310 310 310 310 310 310 310 311 311 311 310 309 309 310 308 307 308 319 316 322 324 321 319 317 314 312 314 324 328 328 345 355 357 357 355 353 352 353
319 319 319 312 308 308 308 309 310 310 310 310 310 310 310 310 310 311 311 312 310 313 314 308 307 315 318 313 326 325 325 325 319 314 316 316 319 324 324 325 348 356 360 357 354 357 356
320 319 319 320 310 308 308 308 309 310 310 310 310 310 310 310 310 311 312 312 311 311 315 308 307 318 315 313 320 318 325 322 316 315 311 318 322 321 322 323 331 359 357 363 357 355 349
320 319 320 319 319 308 307 307 308 309 309 309 309 309 310 310 310 311 312 312 313 313 315 308 320 318 321 323 319 320 319 320 317 315 315 317 319 321 322 325 332 359 359 360 367 352 358
320 320 320 320 320 310 307 307 307 308 308 308 308 308 309 309 310 311 312 313 315 320 320 320 320 319 319 324 320 318 318 319 316 315 316 316 319 320 320 323 332 353 358 357 356 352 354
320 320 321 320 320 316 309 308 307 307 307 308 308 308 308 309 310 311 312 313 317 319 322 323 322 322 322 321 322 320 321 320 322 319 319 320 321 323 323 322 327 354 356 357 353 349 352
319 320 320 319 320 320 315 310 309 308 307 307 308 308 308 308 310 311 311 313 316 319 318 320 324 323 324 323 320 321 323 321 322 321 320 319 321 321 322 325 334 353 355 356 350 348 349
319 319 319 319 319 320 317 314 314 312 310 308 307 307 308 309 310 315 315 318 321 319 317 321 322 324 323 316 318 317 319 317 318 320 318 318 319 321 322 325 351 351 355 353 353 348 347
318 318 319 319 319 319 320 319 319 319 319 313 309 307 308 308 314 315 313 320 319 319 319 323 322 318 317 316 318 317 320 319 319 317 316 315 317 319 320 327 347 353 349 350 351 350 355
316 316 317 318 318 318 319 320 321 321 320 318 312 308 307 308 312 313 317 319 319 318 328 325 321 322 318 317 319 320 321 320 320 320 319 318 318 317 319 321 346 352 347 347 348 349 352
315 315 316 317 317 318 319 321 320 320 321 319 314 309 308 310 310 315 318 318 319 322 331 323 320 320 321 319 319 321 321 320 320 321 320 320 320 317 317 337 347 344 346 347 347 348 353
313 314 316 315 317 318 318 321 320 320 320 318 314 309 308 308 311 317 315 317 323 328 328 323 320 321 319 319 321 322 322 322 321 322 320 320 322 325 344 348 345 345 345 355 357 354 354
316 312 313 316 317 317 318 320 319 319 320 314 312 308 311 313 312 312 317 320 330 331 330 321 316 318 321 323 324 323 321 322 320 319 319 320 322 320 330 345 348 346 339 347 354 356 358
316 313 312 313 316 316 317 318 319 319 319 309 309 311 314 315 315 314 315 324 328 329 318 315 314 319 322 322 325 323 323 319 320 318 320 321 323 322 323 335 343 345 341 336 345 346 354
321 313 312 313 314 315 316 317 319 319 315 309 319 316 317 317 318 318 317 322 325 325 316 314 316 318 325 323 325 325 327 327 326 324 319 318 320 320 325 324 333 337 334 336 335 351 358
323 317 313 312 313 314 315 316 317 318 312 314 319 314 320 319 320 314 319 319 323 323 317 316 316 315 321 326 327 328 328 328 327 326 323 321 319 323 325 325 322 322 327 326 332 340 352
322 322 314 312 313 312 314 315 316 318 310 310 316 321 321 322 317 314 317 320 322 322 314 315 315 314 318 324 326 329 329 329 326 325 323 323 320 325 325 323 322 321 321 322 324 328 337
320 322 318 311 312 314 313 314 315 316 310 310 314 318 322 322 317 315 315 320 321 323 317 315 316 315 322 325 326 329 328 327 325 326 323 321 320 325 326 324 324 325 324 321 317 319 330
318 320 319 312 310 314 314 312 314 315 312 310 315 320 319 317 315 317 317 318 323 318 318 316 317 317 321 323 324 329 327 326 325 326 337 322 318 325 326 325 324 327 327 326 318 319 320
317 319 320 312 310 313 314 313 312 316 314 310 315 318 321 326 323 324 319 319 321 319 317 315 318 320 319 326 326 327 326 325 326 328 326 321 322 323 325 334 334 333 334 334 331 324 323
319 319 318 311 309 313 314 313 312 315 312 312 316 320 323 325 325 324 319 319 318 316 316 315 317 324 323 324 323 322 326 326 326 322 325 321 326 331 335 332 332 335 334 339 340 339 353
319 318 315 309 310 312 313 313 313 313 313 314 320 321 323 325 327 327 318 318 319 315 317 317 318 318 322 325 322 319 320 321 324 325 322 328 328 330 335 331 334 338 335 337 339 338 340
318 316 312 309 310 312 313 313 313 313 314 312 311 316 322 329 330 331 331 326 318 317 318 315 314 317 320 316 316 315 319 320 323 321 316 328 326 326 331 329 339 333 332 331 336 336 341
313 311 309 309 310 311 311 312 312 313 313 314 312 310 320 327 330 330 330 326 316 316 315 315 318 316 313 313 314 321 324 321 321 325 324 322 323 328 329 331 333 335 332 334 332 334 338
310 309 310 309 310 311 311 311 312 313 312 313 315 310 313 326 325 327 328 322 316 317 319 317 316 314 313 312 318 326 326 327 327 327 323 322 323 326 327 333 335 332 332 331 331 336 335
309 309 310 310 310 311 311 311 311 313 312 313 314 314 312 324 323 326 328 327 321 319 318 317 317 316 313 315 324 326 326 327 325 329 329 325 325 327 330 332 331 329 329 330 338 334 335
310 310 310 309 310 311 312 312 312 312 312 313 315 313 314 322 323 324 323 322 320 319 319 317 319 317 315 320 324 324 326 324 324 325 331 332 327 331 324 328 329 327 329 331 330 332 335
309 311 310 310 310 311 312 312 312 312 312 313 310 314 313 319 321 323 322 319 316 317 319 318 319 321 319 321 321 324 325 323 321 326 323 329 328 332 331 327 322 324 328 328 327 336 336

GFSGBSN_925_thetae_111.txt.gz
Theta_e
318 319 313 308 308 309 309 309 309 310 310 310 310 310 310 310 310 311 311 311 310 309 309 308 307 307 311 314 317 319 321 317 319 316 313 313 320 325 328 333 356 357 356 353 352 353 352
319 319 319 309 308 308 308 309 309 309 310 310 310 310 310 310 310 310 311 311 311 312 313 309 307 308 318 310 316 324 320 319 319 317 314 313 319 325 327 327 354 355 354 355 354 353 352
319 319 319 319 308 307 307 308 308 309 309 309 309 309 309 309 310 310 311 311 312 310 314 310 307 314 316 309 324 322 321 319 318 316 311 312 317 322 323 325 338 356 360 356 355 354 356
320 320 320 319 317 307 307 307 307 308 308 308 308 308 308 309 309 310 311 311 312 312 313 309 308 317 315 312 320 320 320 326 320 317 312 315 317 321 322 322 324 359 357 361 356 356 353
320 320 320 318 320 310 307 307 307 307 307 308 308 308 308 308 309 310 311 312 312 314 313 310 320 318 318 321 321 320 319 323 318 316 314 314 317 318 321 323 326 350 358 359 360 353 354
319 319 320 319 319 318 310 309 308 307 307 307 307 307 308 308 308 310 311 312 316 319 318 319 319 319 318 321 321 317 318 321 316 313 314 315 315 318 318 319 327 346 358 354 357 355 354
319 318 319 319 319 320 318 313 312 311 310 308 308 307 307 307 308 310 311 312 312 314 323 320 319 320 321 322 319 318 317 315 319 317 318 318 318 319 321 321 327 353 356 356 352 351 351
318 318 318 318 318 319 319 317 316 317 318 316 311 308 308 307 308 310 314 311 315 317 316 318 321 321 322 323 323 318 320 321 320 321 318 318 320 319 322 323 331 353 354 353 350 349 349
316 316 317 318 317 318 319 320 320 320 320 320 317 312 308 307 309 314 313 316 317 317 316 318 320 321 322 322 322 316 319 318 319 320 318 318 319 320 321 327 352 350 352 351 352 348 347
314 314 316 316 317 317 318 320 320 320 320 320 319 315 310 307 313 312 313 316 316 317 318 321 323 321 318 315 317 317 318 318 318 318 317 316 316 319 319 321 346 350 350 350 350 350 354
314 314 315 314 315 317 317 318 321 320 320 320 320 315 310 307 307 313 315 316 317 317 325 325 320 319 315 317 318 319 318 319 318 319 318 318 319 319 317 318 343 348 347 348 348 347 351
319 315 312 316 316 315 316 317 320 320 319 320 319 313 310 309 308 311 315 315 318 322 331 326 320 320 321 318 319 319 320 319 319 319 318 318 319 319 319 336 340 343 345 345 344 346 354
320 315 313 313 315 315 315 316 320 319 318 319 317 312 309 308 309 314 311 316 322 327 326 318 318 318 318 319 320 320 320 320 319 320 320 320 321 342 341 345 343 342 339 342 348 349 355
322 319 314 312 313 314 314 315 319 320 318 318 313 310 311 309 310 312 316 319 329 329 329 322 315 319 321 323 322 321 321 320 320 319 319 321 321 342 341 343 345 343 336 339 347 352 353
322 322 316 312 313 314 314 314 316 320 318 312 310 317 312 312 314 314 315 324 327 328 324 314 314 319 321 321 324 322 323 323 320 319 321 319 321 320 338 341 341 345 341 334 343 343 349
321 321 322 314 311 312 312 313 315 319 319 309 312 317 315 318 315 317 316 321 322 323 319 314 315 316 322 323 325 324 325 326 326 324 318 321 321 319 321 337 340 337 334 340 337 351 357
321 321 322 319 312 312 313 312 313 318 318 308 317 315 316 318 319 313 318 318 321 321 320 315 313 314 316 322 326 326 328 327 326 325 321 320 316 319 323 324 333 325 331 326 331 338 349
320 319 320 321 315 311 314 313 312 315 318 308 312 316 317 319 317 310 317 317 319 322 315 314 312 314 320 324 327 328 327 327 325 324 323 321 318 323 323 322 321 321 324 324 328 328 339
319 318 317 320 316 310 313 313 312 314 314 311 308 314 319 316 320 316 313 318 320 320 318 315 316 315 322 324 325 327 326 325 324 325 324 321 319 323 325 325 324 324 326 320 315 317 331
321 318 318 318 316 310 313 313 312 314 314 311 312 318 316 313 312 316 317 318 320 320 319 314 315 315 321 323 323 325 326 325 323 325 337 323 317 323 326 327 325 332 333 331 315 317 318
320 318 318 318 314 310 312 312 313 313 314 311 311 314 318 324 323 325 322 323 326 323 315 314 320 321 319 325 325 324 325 322 323 325 324 322 322 321 322 332 332 335 338 339 335 336 319
320 318 318 318 311 311 312 311 312 313 314 311 309 319 321 323 323 326 321 322 323 322 314 315 321 323 320 322 319 319 323 323 324 321 321 321 328 329 332 331 333 334 334 338 338 341 339
318 317 317 317 311 310 311 311 311 313 314 311 314 316 320 322 325 328 326 324 322 315 316 314 317 321 322 321 320 317 317 317 322 324 321 326 327 328 332 329 330 332 333 335 337 341 342
317 315 313 311 309 310 311 311 312 312 313 313 310 311 320 326 327 329 330 329 319 316 316 316 315 318 319 314 313 315 317 320 319 321 316 324 324 326 328 328 334 329 331 333 333 336 342
313 311 310 309 310 310 311 311 311 312 312 313 313 310 316 325 326 327 328 327 315 315 315 317 317 315 311 312 314 319 319 320 320 322 322 319 322 326 328 329 330 335 333 331 331 332 338
310 310 309 309 309 310 310 311 311 312 312 312 313 314 310 321 323 326 327 326 316 315 317 316 315 310 310 310 321 323 322 326 325 325 321 321 318 324 326 330 335 331 330 330 329 334 337
308 310 310 310 310 310 311 311 311 312 312 311 313 311 310 318 320 324 327 325 322 317 316 315 316 315 312 315 323 322 324 326 324 327 327 323 323 326 328 329 327 325 328 327 334 331 335
309 309 310 310 310 310 310 312 311 311 312 311 313 313 312 314 317 322 322 322 319 316 316 314 317 315 312 319 322 322 323 323 322 322 329 328 326 326 321 326 327 324 327 329 327 334 333
309 308 310 310 310 310 310 311 312 312 312 311 312 311 311 309 314 321 322 322 322 319 316 315 318 317 316 318 319 320 322 321 318 324 323 330 325 327 326 325 320 321 326 325 328 333 333

GFSGBSN_925_thetae_114.txt.gz
Theta_e
318 318 319 308 308 308 308 308 309 309 309 309 309 309 309 309 309 310 310 311 311 311 312 309 307 307 311 310 312 320 320 315 317 317 313 313 322 324 328 329 355 355 355 354 353 352 351
319 318 319 317 308 307 307 307 308 308 309 309 309 308 308 308 309 309 310 310 311 311 312 313 307 308 315 309 314 322 320 317 318 315 312 314 319 323 326 326 348 354 355 355 354 353 352
319 320 319 319 314 307 307 307 307 307 307 308 308 308 308 308 308 309 310 310 311 312 311 313 307 313 313 307 323 321 320 319 319 317 311 314 318 323 323 324 329 353 358 354 356 354 356
319 319 318 319 318 310 308 307 307 307 307 307 307 307 307 307 308 309 309 311 311 311 312 312 309 317 316 311 314 319 320 323 324 317 314 312 317 320 322 320 330 358 355 359 355 357 354
319 319 318 319 319 318 311 310 310 309 308 308 307 307 307 307 307 308 309 311 313 313 313 311 319 318 317 319 320 320 320 321 319 316 313 313 317 317 320 321 323 343 356 360 357 351 355
318 318 317 318 318 319 319 316 313 313 314 314 312 310 308 307 307 308 310 312 319 319 318 320 319 317 318 320 321 317 318 319 315 311 313 313 313 317 316 318 326 350 356 355 357 354 351
316 316 317 317 317 317 319 319 318 318 319 319 319 316 312 308 307 308 312 312 311 313 322 318 318 319 319 321 320 316 318 319 317 316 317 316 316 319 321 320 327 350 354 354 353 351 352
314 314 315 316 316 317 317 319 320 320 320 320 320 319 316 310 307 311 316 313 314 316 316 316 319 319 320 321 322 320 316 319 319 321 317 316 319 318 320 321 328 351 353 354 350 349 348
314 314 314 314 314 316 317 318 321 320 320 320 320 320 317 312 308 315 312 316 316 315 315 317 318 320 321 321 321 320 318 318 319 320 318 318 320 319 321 336 346 349 349 350 351 350 347
320 316 313 315 314 314 316 317 319 321 320 320 320 319 317 313 311 308 313 315 313 315 317 320 322 321 317 315 317 316 318 317 317 318 316 318 316 318 319 320 340 348 346 348 351 350 352
320 317 315 312 315 316 314 315 317 321 320 318 319 318 315 313 308 309 313 312 316 315 322 323 321 318 314 317 318 318 317 317 317 318 316 317 319 318 317 317 335 337 346 346 347 345 350
321 320 317 316 312 313 313 313 315 319 320 318 319 316 313 311 308 309 311 314 316 321 329 326 319 319 320 317 317 318 318 317 317 318 317 317 317 318 319 334 336 343 344 342 341 343 350
320 321 321 315 313 313 313 312 314 317 320 318 319 313 310 310 308 315 310 315 321 325 324 321 315 316 319 319 319 319 319 319 318 319 318 318 320 339 340 343 341 340 335 341 345 347 349
321 321 321 321 314 311 313 313 312 315 320 318 318 310 313 312 309 309 315 319 328 326 327 319 313 319 320 321 321 320 319 319 319 318 317 319 319 342 340 342 343 340 333 337 341 346 348
320 321 320 321 320 313 310 313 312 313 320 318 311 312 316 310 310 311 315 323 324 327 324 314 313 315 318 321 323 322 323 321 321 317 319 319 320 321 339 340 340 342 341 333 340 341 346
319 319 318 319 321 317 311 312 313 312 320 317 309 316 317 315 314 314 315 321 322 322 321 313 314 315 319 321 324 324 325 325 325 323 317 321 322 319 321 338 339 338 336 340 337 346 350
319 319 318 317 318 319 312 313 313 313 319 312 314 313 314 315 315 312 316 316 319 319 320 313 313 313 316 323 325 325 326 326 324 324 318 319 316 320 321 328 339 327 335 330 331 337 345
319 319 318 316 316 319 312 312 313 312 318 312 307 315 316 314 315 308 316 316 317 321 316 313 312 313 319 323 326 325 326 325 324 323 322 320 318 322 323 320 320 323 330 326 331 329 337
319 319 320 317 316 317 311 312 312 312 312 311 305 310 316 315 317 315 314 316 318 319 319 314 314 314 321 322 323 326 325 323 323 324 323 318 318 324 325 325 326 325 330 319 314 319 334
319 318 319 317 317 316 310 311 312 312 312 312 309 314 315 311 309 316 318 319 319 319 318 314 314 320 320 323 322 321 325 323 321 323 335 320 317 323 326 326 326 334 335 335 313 316 319
318 320 318 317 317 314 311 311 312 312 313 311 308 311 316 321 320 323 320 324 326 326 316 315 321 317 320 323 323 322 323 321 321 322 322 318 320 322 322 329 333 335 335 338 334 335 319
319 319 317 317 316 312 311 311 311 312 313 311 306 318 317 321 322 325 321 324 323 322 317 315 320 320 319 320 319 317 320 321 322 320 320 320 324 329 332 329 332 333 333 337 338 343 341
317 316 315 314 312 311 310 311 311 311 313 309 311 313 317 319 323 325 324 323 328 324 314 314 320 321 320 319 316 316 315 315 321 322 321 325 326 326 329 329 330 334 332 334 336 340 341
315 314 313 311 310 310 310 311 311 311 312 313 310 309 318 323 324 326 329 328 328 326 315 315 318 318 317 312 312 315 314 317 319 319 316 323 324 327 329 328 334 329 330 330 332 334 339
313 312 311 310 309 310 310 311 312 311 312 312 312 309 316 325 324 326 327 326 318 313 314 314 313 313 308 310 314 317 317 320 320 320 319 317 322 325 328 329 328 335 334 331 330 332 336
312 310 309 310 310 310 310 311 311 312 311 312 311 312 309 320 323 325 326 325 315 314 315 315 311 308 309 314 318 321 321 323 322 324 319 319 317 322 324 329 333 329 330 329 328 335 334
308 309 309 310 310 310 310 310 311 311 312 313 311 312 309 317 319 322 325 322 320 317 314 312 314 313 311 316 320 320 322 324 322 325 325 322 321 324 326 326 326 323 328 329 335 331 335
308 310 309 309 309 310 310 310 311 312 312 312 311 312 311 310 311 318 321 321 319 315 315 312 315 314 311 318 320 321 321 322 321 320 327 323 324 324 321 324 324 323 327 332 327 332 334
308 310 307 309 310 310 311 310 311 312 312 312 311 310 312 309 310 313 315 317 320 321 317 313 315 314 312 316 317 318 322 319 316 323 321 327 322 324 322 322 318 319 324 324 326 331 331

GFSGBSN_925_thetae_117.txt.gz
Theta_e
318 318 318 315 308 307 307 307 308 308 308 308 308 308 308 308 308 309 309 310 311 311 311 314 308 307 311 312 312 317 319 316 317 315 313 319 332 330 335 331 346 353 355 352 349 345 345
320 318 318 319 310 307 307 307 307 307 307 307 307 307 307 307 307 308 309 309 310 311 312 313 308 309 314 312 315 322 315 316 318 316 313 316 327 327 329 329 342 354 356 356 354 353 350
317 317 317 318 318 309 308 308 307 307 307 307 307 307 307 307 307 307 308 309 310 311 311 312 309 312 314 311 324 321 318 318 318 317 316 314 320 327 327 328 332 354 359 357 356 354 353
317 317 317 318 317 318 312 311 311 311 311 311 310 309 308 307 307 307 308 309 311 312 311 313 310 317 319 313 314 319 320 323 322 317 313 312 315 322 326 324 350 356 355 360 356 355 354
316 317 317 317 317 318 319 317 316 315 316 318 318 316 313 309 307 307 308 311 317 314 313 312 319 318 320 319 320 318 319 322 317 314 313 314 317 322 323 326 338 353 353 361 358 353 355
316 315 316 316 316 317 318 319 319 319 319 320 320 319 318 314 308 307 309 315 320 319 319 320 320 321 320 321 320 316 319 318 316 315 315 316 319 324 324 327 336 350 355 359 360 354 350
314 314 314 315 315 316 317 319 320 320 320 320 320 320 319 316 310 309 314 313 317 319 321 321 320 321 321 321 319 315 318 319 317 318 319 319 325 331 326 326 331 339 350 354 355 352 354
318 314 314 314 313 315 316 317 320 321 321 320 320 320 319 317 310 313 315 317 317 316 320 317 318 320 320 320 322 318 318 321 320 324 320 322 327 323 323 324 337 341 347 355 352 350 351
321 319 318 313 314 315 314 315 316 320 321 319 319 319 320 316 310 313 312 316 315 314 320 321 320 322 322 322 322 320 318 320 322 323 322 324 323 321 323 332 337 343 338 352 352 351 348
320 320 319 318 314 313 314 312 313 318 321 319 318 319 319 316 309 308 314 314 312 314 324 324 324 323 322 321 319 319 319 320 319 323 321 323 319 320 321 322 329 333 343 347 353 353 355
320 320 321 319 317 315 310 310 312 312 320 320 318 318 318 314 312 310 313 311 316 315 324 326 322 318 316 319 319 317 317 319 321 319 320 322 320 321 322 321 325 327 346 349 351 350 351
320 320 320 321 319 315 313 312 312 312 315 321 318 318 317 313 311 309 309 314 316 327 324 325 320 320 320 319 319 319 319 320 319 320 320 321 319 321 322 336 327 344 346 346 347 350 357
319 320 319 319 320 320 315 311 311 313 312 320 319 318 312 311 310 312 311 317 327 328 325 321 318 318 320 322 320 320 321 322 323 323 323 322 322 331 339 342 342 344 345 345 349 355 349
318 319 318 318 319 321 319 314 311 313 312 318 319 315 311 312 309 309 313 325 331 326 327 319 316 320 323 323 323 321 321 322 321 322 323 324 323 340 341 338 341 343 336 331 336 344 350
319 318 317 317 317 317 320 315 311 313 312 318 316 310 313 312 311 312 322 329 330 328 326 317 316 321 323 324 325 327 327 323 324 322 325 324 324 325 342 341 341 345 344 336 345 347 353
320 319 318 317 316 315 317 315 311 313 313 318 311 314 316 313 311 314 323 325 327 324 323 314 317 318 321 323 327 327 328 327 327 325 321 324 328 323 329 341 340 342 339 345 347 343 344
321 320 318 318 317 315 316 314 311 312 314 316 312 318 314 313 313 321 322 324 322 322 322 318 316 317 319 325 327 328 328 327 326 326 322 323 324 327 323 335 336 340 341 340 342 346 342
319 319 319 319 318 316 316 311 311 311 315 317 307 320 315 313 321 316 322 321 317 322 319 315 314 315 320 325 328 327 327 327 325 325 325 323 325 328 327 324 323 335 337 338 340 340 344
317 317 318 319 318 317 316 311 311 311 311 311 312 314 315 313 322 322 319 319 319 320 321 315 316 316 323 326 325 327 326 324 324 325 326 323 325 327 328 328 329 332 336 330 326 331 340
316 317 318 319 317 316 314 311 311 311 311 312 313 319 320 318 315 321 322 322 323 320 321 319 317 323 325 326 325 324 326 324 323 324 332 323 324 327 326 330 331 339 338 339 331 330 333
317 318 318 317 317 315 313 311 311 311 311 311 311 314 318 325 322 321 321 325 325 326 321 317 321 321 324 325 326 326 325 324 323 324 325 324 327 326 326 332 334 334 336 341 336 340 327
316 317 317 315 314 314 312 311 311 311 312 311 312 323 321 326 325 327 324 329 327 327 325 317 322 321 324 325 324 324 324 326 327 325 326 326 329 330 333 331 330 335 332 338 343 345 346
316 316 314 313 312 311 311 311 311 311 312 310 309 313 320 322 326 328 328 326 325 328 324 318 321 323 322 323 323 319 320 322 324 326 328 331 333 332 330 330 330 334 333 332 339 341 344
316 314 312 312 310 310 310 311 311 311 311 312 311 310 318 323 327 329 329 328 329 328 327 316 322 324 321 318 319 321 322 323 325 326 322 330 332 334 332 331 333 331 331 332 334 336 341
313 313 311 310 310 310 310 311 311 311 311 312 312 312 316 324 326 325 327 328 326 317 322 319 319 318 318 317 321 322 324 325 324 326 326 324 330 332 333 334 330 334 332 333 332 332 337
312 311 309 310 310 310 310 310 311 312 312 312 312 312 312 321 319 324 328 327 322 317 317 316 313 313 318 321 322 325 329 327 326 329 324 325 326 330 331 332 332 332 331 330 330 336 334
312 309 310 309 308 310 310 310 310 311 312 312 312 312 311 315 317 324 327 325 322 320 319 317 316 317 317 324 326 330 332 328 330 329 331 330 330 332 334 334 330 327 328 330 337 335 337
313 310 310 308 308 309 310 311 311 311 312 312 312 312 312 313 315 316 322 323 322 319 320 317 320 318 321 326 327 330 331 331 327 326 331 332 335 337 331 335 331 326 329 335 332 334 339
311 310 310 308 307 310 311 311 311 311 312 313 312 310 311 312 315 312 314 314 319 321 322 319 320 321 322 324 325 327 330 326 327 330 325 336 330 336 332 331 328 327 329 329 330 337 338